Wetterdaten: Sonntag, 06.11.2016
Datum Zeit Temp. A. Temp. A. max Feuchte A. Luftdruck Regen Wind Richtung Richtung Sonnenschein ET UV Solar Taupunkt Windböen
06.11.2016 00:00 6,8 °C 6,8 °C 93 % 1000,0 hPa 0,0 mm 1,3 km/h (1 Bft) SW 236 ° 0 min 0,000 mm 0,0 UV-I 0 W/m² 5,7 °C 3,2 km/h (1 Bft)
06.11.2016 00:01 6,8 °C 6,8 °C 93 % 1000,0 hPa 0,0 mm 1,3 km/h (1 Bft) SW 236 ° 0 min 0,000 mm 0,0 UV-I 0 W/m² 5,7 °C 3,2 km/h (1 Bft)
06.11.2016 00:02 6,8 °C 6,8 °C 93 % 1000,0 hPa 0,0 mm 1,2 km/h (1 Bft) SW 236 ° 0 min 0,000 mm 0,0 UV-I 0 W/m² 5,7 °C 3,2 km/h (1 Bft)
06.11.2016 00:03 6,8 °C 6,8 °C 93 % 1000,0 hPa 0,0 mm 1,5 km/h (1 Bft) SW 236 ° 0 min 0,000 mm 0,0 UV-I 0 W/m² 5,7 °C 3,2 km/h (1 Bft)
06.11.2016 00:04 6,8 °C 6,8 °C 93 % 999,9 hPa 0,0 mm 2,5 km/h (1 Bft) SW 228 ° 0 min 0,000 mm 0,0 UV-I 0 W/m² 5,7 °C 6,4 km/h (2 Bft)
06.11.2016 00:05 6,8 °C 6,8 °C 93 % 1000,0 hPa 0,0 mm 2,3 km/h (1 Bft) SW 228 ° 0 min 0,000 mm 0,0 UV-I 0 W/m² 5,7 °C 3,2 km/h (1 Bft)
06.11.2016 00:06 6,8 °C 6,8 °C 93 % 1000,0 hPa 0,0 mm 3,4 km/h (1 Bft) W-SW 248 ° 0 min 0,000 mm 0,0 UV-I 0 W/m² 5,7 °C 6,4 km/h (2 Bft)
06.11.2016 00:07 6,8 °C 6,8 °C 93 % 1000,0 hPa 0,0 mm 5,8 km/h (2 Bft) W 261 ° 0 min 0,000 mm 0,0 UV-I 0 W/m² 5,7 °C 8,0 km/h (2 Bft)
06.11.2016 00:08 6,8 °C 6,8 °C 93 % 1000,0 hPa 0,0 mm 3,3 km/h (1 Bft) W-SW 250 ° 0 min 0,000 mm 0,0 UV-I 0 W/m² 5,7 °C 6,4 km/h (2 Bft)
06.11.2016 00:09 6,8 °C 6,8 °C 93 % 1000,0 hPa 0,0 mm 3,1 km/h (1 Bft) W-SW 254 ° 0 min 0,000 mm 0,0 UV-I 0 W/m² 5,7 °C 4,8 km/h (1 Bft)
06.11.2016 00:10 6,8 °C 6,8 °C 93 % 1000,0 hPa 0,0 mm 3,1 km/h (1 Bft) W-SW 254 ° 0 min 0,000 mm 0,0 UV-I 0 W/m² 5,7 °C 4,8 km/h (1 Bft)
06.11.2016 00:11 6,8 °C 6,8 °C 93 % 1000,0 hPa 0,0 mm 3,3 km/h (1 Bft) W-SW 254 ° 0 min 0,000 mm 0,0 UV-I 0 W/m² 5,7 °C 4,8 km/h (1 Bft)
06.11.2016 00:12 6,8 °C 6,8 °C 93 % 999,9 hPa 0,0 mm 1,4 km/h (1 Bft) W-SW 254 ° 0 min 0,000 mm 0,0 UV-I 0 W/m² 5,7 °C 3,2 km/h (1 Bft)
06.11.2016 00:13 6,8 °C 6,8 °C 93 % 999,9 hPa 0,0 mm 1,6 km/h (1 Bft) W-SW 254 ° 0 min 0,000 mm 0,0 UV-I 0 W/m² 5,7 °C 3,2 km/h (1 Bft)
06.11.2016 00:14 6,7 °C 6,8 °C 93 % 999,9 hPa 0,0 mm 1,3 km/h (1 Bft) W-SW 254 ° 0 min 0,000 mm 0,0 UV-I 0 W/m² 5,6 °C 3,2 km/h (1 Bft)
06.11.2016 00:15 6,8 °C 6,8 °C 93 % 999,9 hPa 0,0 mm 1,5 km/h (1 Bft) W-SW 254 ° 0 min 0,000 mm 0,0 UV-I 0 W/m² 5,7 °C 3,2 km/h (1 Bft)
06.11.2016 00:16 6,7 °C 6,8 °C 93 % 1000,0 hPa 0,0 mm 1,8 km/h (1 Bft) W-SW 254 ° 0 min 0,000 mm 0,0 UV-I 0 W/m² 5,6 °C 3,2 km/h (1 Bft)
06.11.2016 00:17 6,7 °C 6,8 °C 93 % 1000,0 hPa 0,0 mm 2,0 km/h (1 Bft) W-SW 254 ° 0 min 0,000 mm 0,0 UV-I 0 W/m² 5,6 °C 4,8 km/h (1 Bft)
06.11.2016 00:18 6,7 °C 6,7 °C 93 % 1000,0 hPa 0,2 mm 1,0 km/h (0 Bft) W-SW 254 ° 0 min 0,000 mm 0,0 UV-I 0 W/m² 5,6 °C 1,6 km/h (1 Bft)
06.11.2016 00:19 6,7 °C 6,7 °C 93 % 1000,0 hPa 0,0 mm 0,9 km/h (0 Bft) W-SW 254 ° 0 min 0,000 mm 0,0 UV-I 0 W/m² 5,6 °C 3,2 km/h (1 Bft)
06.11.2016 00:20 6,7 °C 6,7 °C 93 % 1000,0 hPa 0,0 mm 1,9 km/h (1 Bft) W-SW 254 ° 0 min 0,000 mm 0,0 UV-I 0 W/m² 5,6 °C 3,2 km/h (1 Bft)
06.11.2016 00:21 6,7 °C 6,7 °C 93 % 1000,0 hPa 0,0 mm 1,3 km/h (1 Bft) W-SW 254 ° 0 min 0,000 mm 0,0 UV-I 0 W/m² 5,6 °C 3,2 km/h (1 Bft)
06.11.2016 00:22 6,7 °C 6,7 °C 93 % 1000,0 hPa 0,0 mm 3,2 km/h (1 Bft) W-SW 254 ° 0 min 0,000 mm 0,0 UV-I 0 W/m² 5,6 °C 4,8 km/h (1 Bft)
06.11.2016 00:23 6,7 °C 6,7 °C 93 % 1000,0 hPa 0,0 mm 1,4 km/h (1 Bft) W-SW 254 ° 0 min 0,000 mm 0,0 UV-I 0 W/m² 5,6 °C 3,2 km/h (1 Bft)
06.11.2016 00:24 6,7 °C 6,7 °C 93 % 1000,1 hPa 0,0 mm 0,9 km/h (0 Bft) W-SW 254 ° 0 min 0,000 mm 0,0 UV-I 0 W/m² 5,6 °C 1,6 km/h (1 Bft)
06.11.2016 00:25 6,7 °C 6,7 °C 93 % 1000,1 hPa 0,0 mm 0,5 km/h (0 Bft) W-SW 254 ° 0 min 0,000 mm 0,0 UV-I 0 W/m² 5,6 °C 1,6 km/h (1 Bft)
06.11.2016 00:26 6,6 °C 6,7 °C 93 % 1000,0 hPa 0,0 mm 0,6 km/h (0 Bft) W-SW 254 ° 0 min 0,000 mm 0,0 UV-I 0 W/m² 5,6 °C 3,2 km/h (1 Bft)
06.11.2016 00:27 6,7 °C 6,7 °C 93 % 1000,0 hPa 0,0 mm 0,8 km/h (0 Bft) W-SW 254 ° 0 min 0,000 mm 0,0 UV-I 0 W/m² 5,6 °C 1,6 km/h (1 Bft)
06.11.2016 00:28 6,6 °C 6,7 °C 93 % 1000,0 hPa 0,0 mm 0,2 km/h (0 Bft) W-SW 254 ° 0 min 0,000 mm 0,0 UV-I 0 W/m² 5,6 °C 1,6 km/h (1 Bft)
06.11.2016 00:29 6,7 °C 6,7 °C 93 % 999,9 hPa 0,0 mm 2,3 km/h (1 Bft) W-SW 254 ° 0 min 0,000 mm 0,0 UV-I 0 W/m² 5,6 °C 3,2 km/h (1 Bft)
06.11.2016 00:30 6,6 °C 6,7 °C 93 % 999,9 hPa 0,0 mm 1,3 km/h (1 Bft) W-SW 254 ° 0 min 0,000 mm 0,0 UV-I 0 W/m² 5,6 °C 3,2 km/h (1 Bft)
06.11.2016 00:31 6,6 °C 6,6 °C 93 % 999,9 hPa 0,0 mm 2,0 km/h (1 Bft) W-SW 254 ° 0 min 0,000 mm 0,0 UV-I 0 W/m² 5,6 °C 3,2 km/h (1 Bft)
06.11.2016 00:32 6,6 °C 6,6 °C 93 % 999,9 hPa 0,0 mm 2,8 km/h (1 Bft) W-SW 254 ° 0 min 0,000 mm 0,0 UV-I 0 W/m² 5,6 °C 3,2 km/h (1 Bft)
06.11.2016 00:33 6,6 °C 6,6 °C 93 % 999,9 hPa 0,0 mm 4,0 km/h (1 Bft) W 259 ° 0 min 0,000 mm 0,0 UV-I 0 W/m² 5,6 °C 9,7 km/h (2 Bft)
06.11.2016 00:34 6,6 °C 6,6 °C 93 % 999,9 hPa 0,0 mm 6,3 km/h (2 Bft) W-SW 251 ° 0 min 0,000 mm 0,0 UV-I 0 W/m² 5,6 °C 9,7 km/h (2 Bft)
06.11.2016 00:35 6,6 °C 6,6 °C 93 % 999,9 hPa 0,0 mm 2,3 km/h (1 Bft) W-SW 251 ° 0 min 0,000 mm 0,0 UV-I 0 W/m² 5,6 °C 4,8 km/h (1 Bft)
06.11.2016 00:36 6,6 °C 6,6 °C 93 % 999,9 hPa 0,0 mm 2,3 km/h (1 Bft) W-SW 244 ° 0 min 0,000 mm 0,0 UV-I 0 W/m² 5,6 °C 4,8 km/h (1 Bft)
06.11.2016 00:37 6,6 °C 6,6 °C 93 % 999,8 hPa 0,0 mm 2,1 km/h (1 Bft) W-SW 244 ° 0 min 0,000 mm 0,0 UV-I 0 W/m² 5,6 °C 4,8 km/h (1 Bft)
06.11.2016 00:38 6,6 °C 6,6 °C 93 % 999,8 hPa 0,0 mm 1,7 km/h (1 Bft) W-SW 244 ° 0 min 0,000 mm 0,0 UV-I 0 W/m² 5,6 °C 3,2 km/h (1 Bft)
06.11.2016 00:39 6,6 °C 6,6 °C 93 % 999,8 hPa 0,0 mm 1,7 km/h (1 Bft) W-SW 244 ° 0 min 0,000 mm 0,0 UV-I 0 W/m² 5,6 °C 3,2 km/h (1 Bft)
06.11.2016 00:40 6,6 °C 6,6 °C 93 % 999,8 hPa 0,0 mm 2,3 km/h (1 Bft) W-SW 257 ° 0 min 0,000 mm 0,0 UV-I 0 W/m² 5,6 °C 4,8 km/h (1 Bft)
06.11.2016 00:41 6,5 °C 6,6 °C 93 % 999,8 hPa 0,0 mm 2,8 km/h (1 Bft) SW 227 ° 0 min 0,000 mm 0,0 UV-I 0 W/m² 5,5 °C 4,8 km/h (1 Bft)
06.11.2016 00:42 6,5 °C 6,6 °C 93 % 999,8 hPa 0,0 mm 5,4 km/h (1 Bft) W-SW 245 ° 0 min 0,000 mm 0,0 UV-I 0 W/m² 5,5 °C 11,3 km/h (2 Bft)
06.11.2016 00:43 6,5 °C 6,5 °C 93 % 999,8 hPa 0,0 mm 3,2 km/h (1 Bft) W-SW 250 ° 0 min 0,000 mm 0,0 UV-I 0 W/m² 5,5 °C 6,4 km/h (2 Bft)
06.11.2016 00:44 6,5 °C 6,5 °C 93 % 999,8 hPa 0,0 mm 4,9 km/h (1 Bft) SW 223 ° 0 min 0,000 mm 0,0 UV-I 0 W/m² 5,5 °C 6,4 km/h (2 Bft)
06.11.2016 00:45 6,5 °C 6,5 °C 93 % 999,8 hPa 0,0 mm 4,7 km/h (1 Bft) SW 216 ° 0 min 0,000 mm 0,0 UV-I 0 W/m² 5,5 °C 6,4 km/h (2 Bft)
06.11.2016 00:46 6,5 °C 6,5 °C 93 % 999,8 hPa 0,0 mm 2,9 km/h (1 Bft) SW 236 ° 0 min 0,000 mm 0,0 UV-I 0 W/m² 5,5 °C 4,8 km/h (1 Bft)
06.11.2016 00:47 6,5 °C 6,5 °C 93 % 999,8 hPa 0,0 mm 0,6 km/h (0 Bft) SW 236 ° 0 min 0,000 mm 0,0 UV-I 0 W/m² 5,5 °C 1,6 km/h (1 Bft)
06.11.2016 00:48 6,5 °C 6,5 °C 93 % 999,8 hPa 0,0 mm 2,0 km/h (1 Bft) W-SW 242 ° 0 min 0,000 mm 0,0 UV-I 0 W/m² 5,5 °C 4,8 km/h (1 Bft)
06.11.2016 00:49 6,4 °C 6,5 °C 93 % 999,8 hPa 0,0 mm 1,9 km/h (1 Bft) SW 231 ° 0 min 0,000 mm 0,0 UV-I 0 W/m² 5,4 °C 4,8 km/h (1 Bft)
06.11.2016 00:50 6,5 °C 6,5 °C 93 % 999,8 hPa 0,0 mm 2,6 km/h (1 Bft) SW 231 ° 0 min 0,000 mm 0,0 UV-I 0 W/m² 5,5 °C 3,2 km/h (1 Bft)
06.11.2016 00:51 6,4 °C 6,5 °C 93 % 999,8 hPa 0,0 mm 2,4 km/h (1 Bft) SW 236 ° 0 min 0,000 mm 0,0 UV-I 0 W/m² 5,4 °C 4,8 km/h (1 Bft)
06.11.2016 00:52 6,4 °C 6,4 °C 93 % 999,8 hPa 0,0 mm 2,3 km/h (1 Bft) SW 227 ° 0 min 0,000 mm 0,0 UV-I 0 W/m² 5,4 °C 4,8 km/h (1 Bft)
06.11.2016 00:53 6,4 °C 6,4 °C 93 % 999,8 hPa 0,0 mm 2,2 km/h (1 Bft) SW 227 ° 0 min 0,000 mm 0,0 UV-I 0 W/m² 5,4 °C 4,8 km/h (1 Bft)
06.11.2016 00:54 6,4 °C 6,4 °C 93 % 999,7 hPa 0,0 mm 2,3 km/h (1 Bft) SW 227 ° 0 min 0,000 mm 0,0 UV-I 0 W/m² 5,4 °C 3,2 km/h (1 Bft)
06.11.2016 00:55 6,4 °C 6,4 °C 93 % 999,7 hPa 0,0 mm 1,7 km/h (1 Bft) SW 227 ° 0 min 0,000 mm 0,0 UV-I 0 W/m² 5,4 °C 3,2 km/h (1 Bft)
06.11.2016 00:56 6,4 °C 6,4 °C 93 % 999,7 hPa 0,0 mm 0,7 km/h (0 Bft) SW 227 ° 0 min 0,000 mm 0,0 UV-I 0 W/m² 5,4 °C 1,6 km/h (1 Bft)
06.11.2016 00:57 6,4 °C 6,4 °C 93 % 999,7 hPa 0,0 mm 3,2 km/h (1 Bft) SW 218 ° 0 min 0,000 mm 0,0 UV-I 0 W/m² 5,4 °C 6,4 km/h (2 Bft)
06.11.2016 00:58 6,4 °C 6,4 °C 93 % 999,7 hPa 0,0 mm 1,8 km/h (1 Bft) S-SW 207 ° 0 min 0,000 mm 0,0 UV-I 0 W/m² 5,4 °C 3,2 km/h (1 Bft)
06.11.2016 00:59 6,4 °C 6,4 °C 93 % 999,7 hPa 0,0 mm 3,2 km/h (1 Bft) S 184 ° 0 min 0,000 mm 0,0 UV-I 0 W/m² 5,4 °C 4,8 km/h (1 Bft)
06.11.2016 01:00 6,4 °C 6,4 °C 93 % 999,7 hPa 0,0 mm 3,6 km/h (1 Bft) SW 234 ° 0 min 0,000 mm 0,0 UV-I 0 W/m² 5,4 °C 4,8 km/h (1 Bft)
06.11.2016 01:01 6,4 °C 6,4 °C 93 % 999,7 hPa 0,0 mm 2,5 km/h (1 Bft) S-SW 210 ° 0 min 0,000 mm 0,0 UV-I 0 W/m² 5,4 °C 3,2 km/h (1 Bft)
06.11.2016 01:02 6,4 °C 6,4 °C 93 % 999,7 hPa 0,0 mm 4,1 km/h (1 Bft) SW 215 ° 0 min 0,000 mm 0,0 UV-I 0 W/m² 5,4 °C 6,4 km/h (2 Bft)
06.11.2016 01:03 6,3 °C 6,4 °C 93 % 999,7 hPa 0,0 mm 2,3 km/h (1 Bft) SW 215 ° 0 min 0,000 mm 0,0 UV-I 0 W/m² 5,3 °C 3,2 km/h (1 Bft)
06.11.2016 01:04 6,4 °C 6,4 °C 93 % 999,7 hPa 0,0 mm 2,7 km/h (1 Bft) SW 215 ° 0 min 0,000 mm 0,0 UV-I 0 W/m² 5,4 °C 3,2 km/h (1 Bft)
06.11.2016 01:05 6,3 °C 6,4 °C 93 % 999,7 hPa 0,2 mm 2,3 km/h (1 Bft) SW 215 ° 0 min 0,000 mm 0,0 UV-I 0 W/m² 5,3 °C 3,2 km/h (1 Bft)
06.11.2016 01:06 6,3 °C 6,4 °C 93 % 999,7 hPa 0,0 mm 3,2 km/h (1 Bft) S-SW 209 ° 0 min 0,000 mm 0,0 UV-I 0 W/m² 5,3 °C 4,8 km/h (1 Bft)
06.11.2016 01:07 6,3 °C 6,3 °C 93 % 999,6 hPa 0,0 mm 2,5 km/h (1 Bft) SW 215 ° 0 min 0,000 mm 0,0 UV-I 0 W/m² 5,3 °C 3,2 km/h (1 Bft)
06.11.2016 01:08 6,3 °C 6,3 °C 93 % 999,6 hPa 0,0 mm 2,2 km/h (1 Bft) SW 215 ° 0 min 0,000 mm 0,0 UV-I 0 W/m² 5,3 °C 3,2 km/h (1 Bft)
06.11.2016 01:09 6,3 °C 6,3 °C 93 % 999,6 hPa 0,0 mm 2,2 km/h (1 Bft) SW 215 ° 0 min 0,000 mm 0,0 UV-I 0 W/m² 5,3 °C 3,2 km/h (1 Bft)
06.11.2016 01:10 6,3 °C 6,3 °C 93 % 999,6 hPa 0,0 mm 2,2 km/h (1 Bft) S-SW 213 ° 0 min 0,000 mm 0,0 UV-I 0 W/m² 5,3 °C 3,2 km/h (1 Bft)
06.11.2016 01:11 6,3 °C 6,3 °C 93 % 999,7 hPa 0,0 mm 1,9 km/h (1 Bft) S-SW 213 ° 0 min 0,000 mm 0,0 UV-I 0 W/m² 5,3 °C 3,2 km/h (1 Bft)
06.11.2016 01:12 6,3 °C 6,3 °C 93 % 999,7 hPa 0,0 mm 3,0 km/h (1 Bft) S-SW 213 ° 0 min 0,000 mm 0,0 UV-I 0 W/m² 5,3 °C 4,8 km/h (1 Bft)
06.11.2016 01:13 6,3 °C 6,3 °C 93 % 999,7 hPa 0,0 mm 2,5 km/h (1 Bft) S-SW 213 ° 0 min 0,000 mm 0,0 UV-I 0 W/m² 5,3 °C 3,2 km/h (1 Bft)
06.11.2016 01:14 6,3 °C 6,3 °C 93 % 999,7 hPa 0,0 mm 1,9 km/h (1 Bft) S-SW 213 ° 0 min 0,000 mm 0,0 UV-I 0 W/m² 5,3 °C 3,2 km/h (1 Bft)
06.11.2016 01:15 6,3 °C 6,3 °C 93 % 999,7 hPa 0,0 mm 1,0 km/h (0 Bft) S-SW 213 ° 0 min 0,000 mm 0,0 UV-I 0 W/m² 5,3 °C 1,6 km/h (1 Bft)
06.11.2016 01:16 6,3 °C 6,3 °C 93 % 999,7 hPa 0,0 mm 1,5 km/h (1 Bft) S-SW 213 ° 0 min 0,000 mm 0,0 UV-I 0 W/m² 5,3 °C 3,2 km/h (1 Bft)
06.11.2016 01:17 6,3 °C 6,3 °C 93 % 999,7 hPa 0,0 mm 2,8 km/h (1 Bft) SW 214 ° 0 min 0,000 mm 0,0 UV-I 0 W/m² 5,3 °C 3,2 km/h (1 Bft)
06.11.2016 01:18 6,3 °C 6,3 °C 93 % 999,8 hPa 0,0 mm 1,9 km/h (1 Bft) SW 214 ° 0 min 0,000 mm 0,0 UV-I 0 W/m² 5,3 °C 3,2 km/h (1 Bft)
06.11.2016 01:19 6,3 °C 6,3 °C 93 % 999,8 hPa 0,0 mm 1,5 km/h (1 Bft) SW 214 ° 0 min 0,000 mm 0,0 UV-I 0 W/m² 5,3 °C 1,6 km/h (1 Bft)
06.11.2016 01:20 6,3 °C 6,3 °C 93 % 999,7 hPa 0,0 mm 2,3 km/h (1 Bft) SW 214 ° 0 min 0,000 mm 0,0 UV-I 0 W/m² 5,3 °C 3,2 km/h (1 Bft)
06.11.2016 01:21 6,3 °C 6,3 °C 93 % 999,7 hPa 0,2 mm 1,3 km/h (1 Bft) SW 214 ° 0 min 0,000 mm 0,0 UV-I 0 W/m² 5,3 °C 1,6 km/h (1 Bft)
06.11.2016 01:22 6,3 °C 6,3 °C 93 % 999,7 hPa 0,0 mm 1,9 km/h (1 Bft) SW 219 ° 0 min 0,000 mm 0,0 UV-I 0 W/m² 5,3 °C 4,8 km/h (1 Bft)
06.11.2016 01:23 6,3 °C 6,3 °C 93 % 999,8 hPa 0,0 mm 2,1 km/h (1 Bft) SW 219 ° 0 min 0,000 mm 0,0 UV-I 0 W/m² 5,3 °C 3,2 km/h (1 Bft)
06.11.2016 01:24 6,3 °C 6,3 °C 93 % 999,8 hPa 0,0 mm 2,0 km/h (1 Bft) SW 219 ° 0 min 0,000 mm 0,0 UV-I 0 W/m² 5,3 °C 3,2 km/h (1 Bft)
06.11.2016 01:25 6,3 °C 6,3 °C 93 % 999,8 hPa 0,0 mm 1,5 km/h (1 Bft) SW 219 ° 0 min 0,000 mm 0,0 UV-I 0 W/m² 5,3 °C 3,2 km/h (1 Bft)
06.11.2016 01:26 6,3 °C 6,3 °C 93 % 999,8 hPa 0,0 mm 1,3 km/h (1 Bft) SW 219 ° 0 min 0,000 mm 0,0 UV-I 0 W/m² 5,3 °C 3,2 km/h (1 Bft)
06.11.2016 01:27 6,3 °C 6,3 °C 93 % 999,8 hPa 0,0 mm 2,9 km/h (1 Bft) SW 219 ° 0 min 0,000 mm 0,0 UV-I 0 W/m² 5,3 °C 4,8 km/h (1 Bft)
06.11.2016 01:28 6,3 °C 6,3 °C 93 % 999,8 hPa 0,0 mm 3,6 km/h (1 Bft) W-SW 255 ° 0 min 0,000 mm 0,0 UV-I 0 W/m² 5,3 °C 4,8 km/h (1 Bft)
06.11.2016 01:29 6,3 °C 6,3 °C 93 % 999,8 hPa 0,0 mm 3,0 km/h (1 Bft) S-SW 211 ° 0 min 0,000 mm 0,0 UV-I 0 W/m² 5,3 °C 4,8 km/h (1 Bft)
06.11.2016 01:30 6,3 °C 6,3 °C 93 % 999,8 hPa 0,2 mm 2,2 km/h (1 Bft) S-SW 211 ° 0 min 0,000 mm 0,0 UV-I 0 W/m² 5,3 °C 3,2 km/h (1 Bft)
06.11.2016 01:31 6,3 °C 6,3 °C 93 % 999,9 hPa 0,0 mm 1,7 km/h (1 Bft) S-SW 211 ° 0 min 0,000 mm 0,0 UV-I 0 W/m² 5,3 °C 3,2 km/h (1 Bft)
06.11.2016 01:32 6,3 °C 6,3 °C 93 % 999,9 hPa 0,0 mm 1,8 km/h (1 Bft) S-SW 211 ° 0 min 0,000 mm 0,0 UV-I 0 W/m² 5,3 °C 3,2 km/h (1 Bft)
06.11.2016 01:33 6,3 °C 6,3 °C 93 % 999,9 hPa 0,0 mm 0,5 km/h (0 Bft) S-SW 211 ° 0 min 0,000 mm 0,0 UV-I 0 W/m² 5,3 °C 1,6 km/h (1 Bft)
06.11.2016 01:34 6,2 °C 6,3 °C 93 % 999,9 hPa 0,0 mm 1,7 km/h (1 Bft) S-SW 211 ° 0 min 0,000 mm 0,0 UV-I 0 W/m² 5,2 °C 3,2 km/h (1 Bft)
06.11.2016 01:35 6,3 °C 6,3 °C 93 % 999,9 hPa 0,0 mm 3,0 km/h (1 Bft) S-SW 194 ° 0 min 0,000 mm 0,0 UV-I 0 W/m² 5,3 °C 4,8 km/h (1 Bft)
06.11.2016 01:36 6,3 °C 6,3 °C 93 % 999,9 hPa 0,0 mm 2,1 km/h (1 Bft) S-SW 208 ° 0 min 0,000 mm 0,0 UV-I 0 W/m² 5,3 °C 3,2 km/h (1 Bft)
06.11.2016 01:37 6,2 °C 6,3 °C 93 % 999,9 hPa 0,0 mm 1,1 km/h (1 Bft) S-SW 208 ° 0 min 0,000 mm 0,0 UV-I 0 W/m² 5,2 °C 1,6 km/h (1 Bft)
06.11.2016 01:38 6,3 °C 6,3 °C 93 % 999,8 hPa 0,0 mm 0,2 km/h (0 Bft) S-SW 208 ° 0 min 0,000 mm 0,0 UV-I 0 W/m² 5,3 °C 1,6 km/h (1 Bft)
06.11.2016 01:39 6,2 °C 6,3 °C 93 % 999,8 hPa 0,2 mm 0,0 km/h (0 Bft) S-SW 208 ° 0 min 0,000 mm 0,0 UV-I 0 W/m² 5,2 °C 0,0 km/h (0 Bft)
06.11.2016 01:40 6,2 °C 6,3 °C 94 % 999,9 hPa 0,0 mm 0,0 km/h (0 Bft) S-SW 208 ° 0 min 0,000 mm 0,0 UV-I 0 W/m² 5,3 °C 0,0 km/h (0 Bft)
06.11.2016 01:41 6,3 °C 6,3 °C 94 % 999,8 hPa 0,0 mm 0,3 km/h (0 Bft) S-SW 208 ° 0 min 0,000 mm 0,0 UV-I 0 W/m² 5,4 °C 1,6 km/h (1 Bft)
06.11.2016 01:42 6,2 °C 6,3 °C 94 % 999,8 hPa 0,0 mm 0,7 km/h (0 Bft) S-SW 208 ° 0 min 0,000 mm 0,0 UV-I 0 W/m² 5,3 °C 3,2 km/h (1 Bft)
06.11.2016 01:43 6,2 °C 6,3 °C 94 % 999,8 hPa 0,0 mm 0,2 km/h (0 Bft) S-SW 208 ° 0 min 0,000 mm 0,0 UV-I 0 W/m² 5,3 °C 1,6 km/h (1 Bft)
06.11.2016 01:44 6,3 °C 6,3 °C 94 % 999,8 hPa 0,2 mm 0,5 km/h (0 Bft) S-SW 208 ° 0 min 0,000 mm 0,0 UV-I 0 W/m² 5,4 °C 1,6 km/h (1 Bft)
06.11.2016 01:45 6,3 °C 6,3 °C 94 % 999,9 hPa 0,0 mm 0,9 km/h (0 Bft) S-SW 208 ° 0 min 0,000 mm 0,0 UV-I 0 W/m² 5,4 °C 1,6 km/h (1 Bft)
06.11.2016 01:46 6,2 °C 6,3 °C 94 % 999,9 hPa 0,0 mm 1,0 km/h (0 Bft) S-SW 208 ° 0 min 0,000 mm 0,0 UV-I 0 W/m² 5,3 °C 1,6 km/h (1 Bft)
06.11.2016 01:47 6,3 °C 6,3 °C 94 % 999,8 hPa 0,0 mm 0,1 km/h (0 Bft) S-SW 208 ° 0 min 0,000 mm 0,0 UV-I 0 W/m² 5,4 °C 1,6 km/h (1 Bft)
06.11.2016 01:48 6,2 °C 6,3 °C 94 % 999,8 hPa 0,0 mm 2,0 km/h (1 Bft) SW 236 ° 0 min 0,000 mm 0,0 UV-I 0 W/m² 5,3 °C 3,2 km/h (1 Bft)
06.11.2016 01:49 6,2 °C 6,3 °C 94 % 999,9 hPa 0,2 mm 3,5 km/h (1 Bft) N-NW 344 ° 0 min 0,000 mm 0,0 UV-I 0 W/m² 5,3 °C 6,4 km/h (2 Bft)
06.11.2016 01:50 6,3 °C 6,3 °C 94 % 999,9 hPa 0,0 mm 5,2 km/h (1 Bft) N-NW 343 ° 0 min 0,000 mm 0,0 UV-I 0 W/m² 5,4 °C 6,4 km/h (2 Bft)
06.11.2016 01:51 6,3 °C 6,3 °C 93 % 999,8 hPa 0,0 mm 4,9 km/h (1 Bft) NW 326 ° 0 min 0,000 mm 0,0 UV-I 0 W/m² 5,3 °C 6,4 km/h (2 Bft)
06.11.2016 01:52 6,2 °C 6,3 °C 94 % 999,8 hPa 0,2 mm 4,0 km/h (1 Bft) N 10 ° 0 min 0,000 mm 0,0 UV-I 0 W/m² 5,3 °C 6,4 km/h (2 Bft)
06.11.2016 01:53 6,2 °C 6,3 °C 93 % 999,8 hPa 0,0 mm 4,6 km/h (1 Bft) N 5 ° 0 min 0,000 mm 0,0 UV-I 0 W/m² 5,2 °C 6,4 km/h (2 Bft)
06.11.2016 01:54 6,2 °C 6,2 °C 93 % 999,9 hPa 0,0 mm 4,8 km/h (1 Bft) N-NW 345 ° 0 min 0,000 mm 0,0 UV-I 0 W/m² 5,2 °C 6,4 km/h (2 Bft)
06.11.2016 01:55 6,2 °C 6,3 °C 94 % 999,9 hPa 0,0 mm 3,5 km/h (1 Bft) N-NW 327 ° 0 min 0,000 mm 0,0 UV-I 0 W/m² 5,3 °C 4,8 km/h (1 Bft)
06.11.2016 01:56 6,2 °C 6,2 °C 93 % 999,9 hPa 0,0 mm 3,1 km/h (1 Bft) NW 321 ° 0 min 0,000 mm 0,0 UV-I 0 W/m² 5,2 °C 4,8 km/h (1 Bft)
06.11.2016 01:57 6,2 °C 6,2 °C 94 % 999,9 hPa 0,2 mm 3,8 km/h (1 Bft) NW 313 ° 0 min 0,000 mm 0,0 UV-I 0 W/m² 5,3 °C 4,8 km/h (1 Bft)
06.11.2016 01:58 6,2 °C 6,2 °C 93 % 999,9 hPa 0,0 mm 4,3 km/h (1 Bft) NW 315 ° 0 min 0,000 mm 0,0 UV-I 0 W/m² 5,2 °C 6,4 km/h (2 Bft)
06.11.2016 01:59 6,2 °C 6,2 °C 93 % 999,9 hPa 0,0 mm 4,1 km/h (1 Bft) N 355 ° 0 min 0,000 mm 0,0 UV-I 0 W/m² 5,2 °C 4,8 km/h (1 Bft)
06.11.2016 02:00 6,2 °C 6,2 °C 93 % 999,9 hPa 0,0 mm 2,8 km/h (1 Bft) N 5 ° 0 min 0,000 mm 0,0 UV-I 0 W/m² 5,2 °C 3,2 km/h (1 Bft)
06.11.2016 02:01 6,2 °C 6,2 °C 93 % 999,9 hPa 0,0 mm 2,5 km/h (1 Bft) N-NW 346 ° 0 min 0,000 mm 0,0 UV-I 0 W/m² 5,2 °C 4,8 km/h (1 Bft)
06.11.2016 02:02 6,2 °C 6,2 °C 93 % 999,8 hPa 0,0 mm 1,3 km/h (1 Bft) N-NW 346 ° 0 min 0,000 mm 0,0 UV-I 0 W/m² 5,2 °C 3,2 km/h (1 Bft)
06.11.2016 02:03 6,2 °C 6,2 °C 93 % 999,8 hPa 0,0 mm 3,2 km/h (1 Bft) N 360 ° 0 min 0,000 mm 0,0 UV-I 0 W/m² 5,2 °C 4,8 km/h (1 Bft)
06.11.2016 02:04 6,2 °C 6,2 °C 93 % 999,8 hPa 0,2 mm 2,8 km/h (1 Bft) N 360 ° 0 min 0,000 mm 0,0 UV-I 0 W/m² 5,2 °C 4,8 km/h (1 Bft)
06.11.2016 02:05 6,2 °C 6,2 °C 93 % 999,8 hPa 0,0 mm 3,2 km/h (1 Bft) N 360 ° 0 min 0,000 mm 0,0 UV-I 0 W/m² 5,2 °C 4,8 km/h (1 Bft)
06.11.2016 02:06 6,2 °C 6,2 °C 93 % 999,9 hPa 0,0 mm 2,0 km/h (1 Bft) N 360 ° 0 min 0,000 mm 0,0 UV-I 0 W/m² 5,2 °C 3,2 km/h (1 Bft)
06.11.2016 02:07 6,1 °C 6,2 °C 93 % 999,9 hPa 0,0 mm 0,8 km/h (0 Bft) N 360 ° 0 min 0,000 mm 0,0 UV-I 0 W/m² 5,1 °C 1,6 km/h (1 Bft)
06.11.2016 02:08 6,1 °C 6,2 °C 93 % 999,9 hPa 0,0 mm 1,1 km/h (1 Bft) N-NW 343 ° 0 min 0,000 mm 0,0 UV-I 0 W/m² 5,1 °C 4,8 km/h (1 Bft)
06.11.2016 02:09 6,1 °C 6,2 °C 93 % 999,9 hPa 0,0 mm 4,0 km/h (1 Bft) NW 319 ° 0 min 0,000 mm 0,0 UV-I 0 W/m² 5,1 °C 6,4 km/h (2 Bft)
06.11.2016 02:10 6,1 °C 6,1 °C 93 % 999,9 hPa 0,0 mm 1,1 km/h (1 Bft) NW 319 ° 0 min 0,000 mm 0,0 UV-I 0 W/m² 5,1 °C 3,2 km/h (1 Bft)
06.11.2016 02:11 6,1 °C 6,1 °C 93 % 999,8 hPa 0,0 mm 1,3 km/h (1 Bft) NW 319 ° 0 min 0,000 mm 0,0 UV-I 0 W/m² 5,1 °C 1,6 km/h (1 Bft)
06.11.2016 02:12 6,1 °C 6,1 °C 93 % 999,8 hPa 0,0 mm 1,5 km/h (1 Bft) NW 319 ° 0 min 0,000 mm 0,0 UV-I 0 W/m² 5,1 °C 1,6 km/h (1 Bft)
06.11.2016 02:13 6,1 °C 6,1 °C 93 % 999,8 hPa 0,0 mm 0,6 km/h (0 Bft) NW 319 ° 0 min 0,000 mm 0,0 UV-I 0 W/m² 5,1 °C 1,6 km/h (1 Bft)
06.11.2016 02:14 6,1 °C 6,1 °C 93 % 999,8 hPa 0,0 mm 0,6 km/h (0 Bft) NW 319 ° 0 min 0,000 mm 0,0 UV-I 0 W/m² 5,1 °C 1,6 km/h (1 Bft)
06.11.2016 02:15 6,1 °C 6,1 °C 93 % 999,8 hPa 0,0 mm 0,7 km/h (0 Bft) NW 319 ° 0 min 0,000 mm 0,0 UV-I 0 W/m² 5,1 °C 1,6 km/h (1 Bft)
06.11.2016 02:16 6,1 °C 6,1 °C 93 % 999,8 hPa 0,0 mm 0,8 km/h (0 Bft) NW 319 ° 0 min 0,000 mm 0,0 UV-I 0 W/m² 5,1 °C 3,2 km/h (1 Bft)
06.11.2016 02:17 6,1 °C 6,1 °C 93 % 999,9 hPa 0,0 mm 0,5 km/h (0 Bft) NW 319 ° 0 min 0,000 mm 0,0 UV-I 0 W/m² 5,1 °C 3,2 km/h (1 Bft)
06.11.2016 02:18 6,1 °C 6,1 °C 93 % 999,8 hPa 0,0 mm 0,3 km/h (0 Bft) NW 319 ° 0 min 0,000 mm 0,0 UV-I 0 W/m² 5,1 °C 1,6 km/h (1 Bft)
06.11.2016 02:19 6,1 °C 6,1 °C 93 % 999,8 hPa 0,0 mm 1,0 km/h (0 Bft) NW 319 ° 0 min 0,000 mm 0,0 UV-I 0 W/m² 5,1 °C 3,2 km/h (1 Bft)
06.11.2016 02:20 6,1 °C 6,1 °C 93 % 999,8 hPa 0,0 mm 1,5 km/h (1 Bft) NW 319 ° 0 min 0,000 mm 0,0 UV-I 0 W/m² 5,1 °C 3,2 km/h (1 Bft)
06.11.2016 02:21 6,1 °C 6,1 °C 93 % 999,8 hPa 0,0 mm 0,7 km/h (0 Bft) NW 319 ° 0 min 0,000 mm 0,0 UV-I 0 W/m² 5,1 °C 1,6 km/h (1 Bft)
06.11.2016 02:22 6,0 °C 6,1 °C 93 % 999,8 hPa 0,0 mm 1,0 km/h (0 Bft) NW 319 ° 0 min 0,000 mm 0,0 UV-I 0 W/m² 5,0 °C 1,6 km/h (1 Bft)
06.11.2016 02:23 6,0 °C 6,1 °C 93 % 999,8 hPa 0,0 mm 0,7 km/h (0 Bft) NW 319 ° 0 min 0,000 mm 0,0 UV-I 0 W/m² 5,0 °C 1,6 km/h (1 Bft)
06.11.2016 02:24 6,0 °C 6,0 °C 93 % 999,9 hPa 0,0 mm 0,1 km/h (0 Bft) NW 319 ° 0 min 0,000 mm 0,0 UV-I 0 W/m² 5,0 °C 1,6 km/h (1 Bft)
06.11.2016 02:25 6,0 °C 6,1 °C 93 % 999,8 hPa 0,0 mm 0,0 km/h (0 Bft) NW 319 ° 0 min 0,000 mm 0,0 UV-I 0 W/m² 5,0 °C 0,0 km/h (0 Bft)
06.11.2016 02:26 6,0 °C 6,0 °C 93 % 999,8 hPa 0,0 mm 0,0 km/h (0 Bft) NW 319 ° 0 min 0,000 mm 0,0 UV-I 0 W/m² 5,0 °C 0,0 km/h (0 Bft)
06.11.2016 02:27 6,0 °C 6,0 °C 93 % 999,8 hPa 0,0 mm 0,0 km/h (0 Bft) NW 319 ° 0 min 0,000 mm 0,0 UV-I 0 W/m² 5,0 °C 0,0 km/h (0 Bft)
06.11.2016 02:28 6,0 °C 6,0 °C 93 % 999,8 hPa 0,0 mm 0,0 km/h (0 Bft) NW 319 ° 0 min 0,000 mm 0,0 UV-I 0 W/m² 5,0 °C 0,0 km/h (0 Bft)
06.11.2016 02:29 5,9 °C 6,0 °C 93 % 999,8 hPa 0,0 mm 0,0 km/h (0 Bft) NW 319 ° 0 min 0,000 mm 0,0 UV-I 0 W/m² 4,9 °C 0,0 km/h (0 Bft)
06.11.2016 02:30 6,0 °C 6,0 °C 93 % 999,8 hPa 0,2 mm 0,0 km/h (0 Bft) NW 319 ° 0 min 0,000 mm 0,0 UV-I 0 W/m² 5,0 °C 0,0 km/h (0 Bft)
06.11.2016 02:31 5,9 °C 6,0 °C 93 % 999,8 hPa 0,0 mm 0,0 km/h (0 Bft) NW 319 ° 0 min 0,000 mm 0,0 UV-I 0 W/m² 4,9 °C 0,0 km/h (0 Bft)
06.11.2016 02:32 5,9 °C 6,0 °C 93 % 999,8 hPa 0,0 mm 0,6 km/h (0 Bft) NW 319 ° 0 min 0,000 mm 0,0 UV-I 0 W/m² 4,9 °C 1,6 km/h (1 Bft)
06.11.2016 02:33 5,9 °C 5,9 °C 93 % 999,8 hPa 0,0 mm 1,0 km/h (0 Bft) NW 319 ° 0 min 0,000 mm 0,0 UV-I 0 W/m² 4,9 °C 1,6 km/h (1 Bft)
06.11.2016 02:34 5,9 °C 6,0 °C 93 % 999,8 hPa 0,0 mm 1,1 km/h (1 Bft) NW 319 ° 0 min 0,000 mm 0,0 UV-I 0 W/m² 4,9 °C 1,6 km/h (1 Bft)
06.11.2016 02:35 5,9 °C 5,9 °C 93 % 999,7 hPa 0,2 mm 0,5 km/h (0 Bft) NW 319 ° 0 min 0,000 mm 0,0 UV-I 0 W/m² 4,9 °C 1,6 km/h (1 Bft)
06.11.2016 02:36 5,9 °C 5,9 °C 94 % 999,7 hPa 0,0 mm 0,5 km/h (0 Bft) NW 319 ° 0 min 0,000 mm 0,0 UV-I 0 W/m² 5,0 °C 1,6 km/h (1 Bft)
06.11.2016 02:37 5,9 °C 5,9 °C 93 % 999,7 hPa 0,0 mm 0,3 km/h (0 Bft) NW 319 ° 0 min 0,000 mm 0,0 UV-I 0 W/m² 4,9 °C 1,6 km/h (1 Bft)
06.11.2016 02:38 5,9 °C 5,9 °C 93 % 999,7 hPa 0,0 mm 3,6 km/h (1 Bft) N-NW 347 ° 0 min 0,000 mm 0,0 UV-I 0 W/m² 4,9 °C 6,4 km/h (2 Bft)
06.11.2016 02:39 5,9 °C 5,9 °C 94 % 999,7 hPa 0,0 mm 3,9 km/h (1 Bft) N 355 ° 0 min 0,000 mm 0,0 UV-I 0 W/m² 5,0 °C 4,8 km/h (1 Bft)
06.11.2016 02:40 5,9 °C 5,9 °C 94 % 999,7 hPa 0,0 mm 3,1 km/h (1 Bft) N 360 ° 0 min 0,000 mm 0,0 UV-I 0 W/m² 5,0 °C 4,8 km/h (1 Bft)
06.11.2016 02:41 5,9 °C 5,9 °C 94 % 999,7 hPa 0,0 mm 4,0 km/h (1 Bft) N-NO 22 ° 0 min 0,000 mm 0,0 UV-I 0 W/m² 5,0 °C 4,8 km/h (1 Bft)
06.11.2016 02:42 5,9 °C 5,9 °C 93 % 999,7 hPa 0,0 mm 3,0 km/h (1 Bft) N-NO 22 ° 0 min 0,000 mm 0,0 UV-I 0 W/m² 4,9 °C 4,8 km/h (1 Bft)
06.11.2016 02:43 5,9 °C 5,9 °C 93 % 999,7 hPa 0,2 mm 1,6 km/h (1 Bft) N-NO 22 ° 0 min 0,000 mm 0,0 UV-I 0 W/m² 4,9 °C 3,2 km/h (1 Bft)
06.11.2016 02:44 5,8 °C 5,9 °C 93 % 999,7 hPa 0,0 mm 1,4 km/h (1 Bft) N-NO 22 ° 0 min 0,000 mm 0,0 UV-I 0 W/m² 4,8 °C 3,2 km/h (1 Bft)
06.11.2016 02:45 5,8 °C 5,8 °C 93 % 999,7 hPa 0,0 mm 0,4 km/h (0 Bft) N-NO 22 ° 0 min 0,000 mm 0,0 UV-I 0 W/m² 4,8 °C 1,6 km/h (1 Bft)
06.11.2016 02:46 5,8 °C 5,9 °C 93 % 999,6 hPa 0,0 mm 0,3 km/h (0 Bft) N-NO 22 ° 0 min 0,000 mm 0,0 UV-I 0 W/m² 4,8 °C 1,6 km/h (1 Bft)
06.11.2016 02:47 5,8 °C 5,8 °C 93 % 999,6 hPa 0,0 mm 0,0 km/h (0 Bft) N-NO 22 ° 0 min 0,000 mm 0,0 UV-I 0 W/m² 4,8 °C 0,0 km/h (0 Bft)
06.11.2016 02:48 5,8 °C 5,8 °C 93 % 999,6 hPa 0,0 mm 0,1 km/h (0 Bft) N-NO 22 ° 0 min 0,000 mm 0,0 UV-I 0 W/m² 4,8 °C 1,6 km/h (1 Bft)
06.11.2016 02:49 5,8 °C 5,8 °C 93 % 999,6 hPa 0,0 mm 1,6 km/h (1 Bft) N-NO 22 ° 0 min 0,000 mm 0,0 UV-I 0 W/m² 4,8 °C 3,2 km/h (1 Bft)
06.11.2016 02:50 5,8 °C 5,8 °C 93 % 999,6 hPa 0,2 mm 4,8 km/h (1 Bft) NW 312 ° 0 min 0,000 mm 0,0 UV-I 0 W/m² 4,8 °C 6,4 km/h (2 Bft)
06.11.2016 02:51 5,8 °C 5,8 °C 93 % 999,6 hPa 0,0 mm 4,0 km/h (1 Bft) N-NW 333 ° 0 min 0,000 mm 0,0 UV-I 0 W/m² 4,8 °C 6,4 km/h (2 Bft)
06.11.2016 02:52 5,8 °C 5,8 °C 93 % 999,6 hPa 0,0 mm 2,1 km/h (1 Bft) N-NW 333 ° 0 min 0,000 mm 0,0 UV-I 0 W/m² 4,8 °C 3,2 km/h (1 Bft)
06.11.2016 02:53 5,7 °C 5,8 °C 93 % 999,6 hPa 0,0 mm 1,1 km/h (1 Bft) N-NW 333 ° 0 min 0,000 mm 0,0 UV-I 0 W/m² 4,7 °C 1,6 km/h (1 Bft)
06.11.2016 02:54 5,7 °C 5,8 °C 93 % 999,6 hPa 0,0 mm 0,5 km/h (0 Bft) N-NW 333 ° 0 min 0,000 mm 0,0 UV-I 0 W/m² 4,7 °C 1,6 km/h (1 Bft)
06.11.2016 02:55 5,7 °C 5,7 °C 93 % 999,6 hPa 0,0 mm 0,9 km/h (0 Bft) N-NW 333 ° 0 min 0,000 mm 0,0 UV-I 0 W/m² 4,7 °C 1,6 km/h (1 Bft)
06.11.2016 02:56 5,7 °C 5,7 °C 93 % 999,5 hPa 0,0 mm 0,0 km/h (0 Bft) N-NW 333 ° 0 min 0,000 mm 0,0 UV-I 0 W/m² 4,7 °C 0,0 km/h (0 Bft)
06.11.2016 02:57 5,7 °C 5,7 °C 93 % 999,6 hPa 0,0 mm 0,0 km/h (0 Bft) N-NW 333 ° 0 min 0,000 mm 0,0 UV-I 0 W/m² 4,7 °C 0,0 km/h (0 Bft)
06.11.2016 02:58 5,7 °C 5,7 °C 93 % 999,6 hPa 0,0 mm 0,0 km/h (0 Bft) N-NW 333 ° 0 min 0,000 mm 0,0 UV-I 0 W/m² 4,7 °C 0,0 km/h (0 Bft)
06.11.2016 02:59 5,6 °C 5,7 °C 93 % 999,6 hPa 0,0 mm 1,7 km/h (1 Bft) W-NW 292 ° 0 min 0,000 mm 0,0 UV-I 0 W/m² 4,6 °C 3,2 km/h (1 Bft)
06.11.2016 03:00 5,6 °C 5,6 °C 93 % 999,6 hPa 0,0 mm 2,4 km/h (1 Bft) W-NW 292 ° 0 min 0,000 mm 0,0 UV-I 0 W/m² 4,6 °C 3,2 km/h (1 Bft)
06.11.2016 03:01 5,6 °C 5,6 °C 93 % 999,6 hPa 0,0 mm 1,7 km/h (1 Bft) W-NW 292 ° 0 min 0,000 mm 0,0 UV-I 0 W/m² 4,6 °C 3,2 km/h (1 Bft)
06.11.2016 03:02 5,6 °C 5,6 °C 93 % 999,6 hPa 0,0 mm 3,5 km/h (1 Bft) W-NW 286 ° 0 min 0,000 mm 0,0 UV-I 0 W/m² 4,6 °C 4,8 km/h (1 Bft)
06.11.2016 03:03 5,6 °C 5,6 °C 93 % 999,6 hPa 0,0 mm 3,6 km/h (1 Bft) W-NW 296 ° 0 min 0,000 mm 0,0 UV-I 0 W/m² 4,6 °C 4,8 km/h (1 Bft)
06.11.2016 03:04 5,5 °C 5,6 °C 93 % 999,7 hPa 0,0 mm 3,9 km/h (1 Bft) NW 305 ° 0 min 0,000 mm 0,0 UV-I 0 W/m² 4,5 °C 4,8 km/h (1 Bft)
06.11.2016 03:05 5,4 °C 5,5 °C 93 % 999,7 hPa 0,0 mm 2,4 km/h (1 Bft) W-NW 287 ° 0 min 0,000 mm 0,0 UV-I 0 W/m² 4,4 °C 4,8 km/h (1 Bft)
06.11.2016 03:06 5,4 °C 5,4 °C 93 % 999,7 hPa 0,0 mm 3,5 km/h (1 Bft) W-NW 287 ° 0 min 0,000 mm 0,0 UV-I 0 W/m² 4,4 °C 4,8 km/h (1 Bft)
06.11.2016 03:07 5,4 °C 5,4 °C 93 % 999,7 hPa 0,0 mm 4,4 km/h (1 Bft) NW 308 ° 0 min 0,000 mm 0,0 UV-I 0 W/m² 4,4 °C 6,4 km/h (2 Bft)
06.11.2016 03:08 5,4 °C 5,4 °C 93 % 999,7 hPa 0,0 mm 3,4 km/h (1 Bft) NW 314 ° 0 min 0,000 mm 0,0 UV-I 0 W/m² 4,4 °C 4,8 km/h (1 Bft)
06.11.2016 03:09 5,4 °C 5,4 °C 93 % 999,7 hPa 0,0 mm 2,9 km/h (1 Bft) NW 314 ° 0 min 0,000 mm 0,0 UV-I 0 W/m² 4,4 °C 4,8 km/h (1 Bft)
06.11.2016 03:10 5,4 °C 5,4 °C 93 % 999,7 hPa 0,0 mm 2,2 km/h (1 Bft) NW 317 ° 0 min 0,000 mm 0,0 UV-I 0 W/m² 4,4 °C 4,8 km/h (1 Bft)
06.11.2016 03:11 5,4 °C 5,4 °C 93 % 999,7 hPa 0,0 mm 1,1 km/h (1 Bft) NW 317 ° 0 min 0,000 mm 0,0 UV-I 0 W/m² 4,4 °C 3,2 km/h (1 Bft)
06.11.2016 03:12 5,3 °C 5,4 °C 93 % 999,7 hPa 0,0 mm 2,3 km/h (1 Bft) NW 321 ° 0 min 0,000 mm 0,0 UV-I 0 W/m² 4,3 °C 3,2 km/h (1 Bft)
06.11.2016 03:13 5,3 °C 5,4 °C 93 % 999,7 hPa 0,0 mm 1,8 km/h (1 Bft) NW 321 ° 0 min 0,000 mm 0,0 UV-I 0 W/m² 4,3 °C 3,2 km/h (1 Bft)
06.11.2016 03:14 5,3 °C 5,3 °C 93 % 999,6 hPa 0,0 mm 2,1 km/h (1 Bft) NW 321 ° 0 min 0,000 mm 0,0 UV-I 0 W/m² 4,3 °C 3,2 km/h (1 Bft)
06.11.2016 03:15 5,3 °C 5,3 °C 93 % 999,6 hPa 0,0 mm 1,4 km/h (1 Bft) NW 321 ° 0 min 0,000 mm 0,0 UV-I 0 W/m² 4,3 °C 3,2 km/h (1 Bft)
06.11.2016 03:16 5,3 °C 5,3 °C 93 % 999,6 hPa 0,0 mm 1,3 km/h (1 Bft) NW 321 ° 0 min 0,000 mm 0,0 UV-I 0 W/m² 4,3 °C 3,2 km/h (1 Bft)
06.11.2016 03:17 5,3 °C 5,3 °C 93 % 999,5 hPa 0,0 mm 1,5 km/h (1 Bft) NW 321 ° 0 min 0,000 mm 0,0 UV-I 0 W/m² 4,3 °C 3,2 km/h (1 Bft)
06.11.2016 03:18 5,3 °C 5,3 °C 93 % 999,5 hPa 0,2 mm 2,2 km/h (1 Bft) NW 321 ° 0 min 0,000 mm 0,0 UV-I 0 W/m² 4,3 °C 3,2 km/h (1 Bft)
06.11.2016 03:19 5,3 °C 5,3 °C 93 % 999,5 hPa 0,0 mm 1,9 km/h (1 Bft) NW 321 ° 0 min 0,000 mm 0,0 UV-I 0 W/m² 4,3 °C 3,2 km/h (1 Bft)
06.11.2016 03:20 5,3 °C 5,3 °C 93 % 999,6 hPa 0,0 mm 1,1 km/h (1 Bft) NW 321 ° 0 min 0,000 mm 0,0 UV-I 0 W/m² 4,3 °C 1,6 km/h (1 Bft)
06.11.2016 03:21 5,3 °C 5,3 °C 93 % 999,6 hPa 0,0 mm 0,4 km/h (0 Bft) NW 321 ° 0 min 0,000 mm 0,0 UV-I 0 W/m² 4,3 °C 1,6 km/h (1 Bft)
06.11.2016 03:22 5,2 °C 5,3 °C 93 % 999,6 hPa 0,0 mm 0,0 km/h (0 Bft) NW 321 ° 0 min 0,000 mm 0,0 UV-I 0 W/m² 4,2 °C 0,0 km/h (0 Bft)
06.11.2016 03:23 5,2 °C 5,3 °C 93 % 999,6 hPa 0,0 mm 0,9 km/h (0 Bft) NW 321 ° 0 min 0,000 mm 0,0 UV-I 0 W/m² 4,2 °C 3,2 km/h (1 Bft)
06.11.2016 03:24 5,3 °C 5,3 °C 93 % 999,5 hPa 0,0 mm 1,5 km/h (1 Bft) NW 321 ° 0 min 0,000 mm 0,0 UV-I 0 W/m² 4,3 °C 1,6 km/h (1 Bft)
06.11.2016 03:25 5,2 °C 5,3 °C 93 % 999,5 hPa 0,0 mm 1,4 km/h (1 Bft) NW 321 ° 0 min 0,000 mm 0,0 UV-I 0 W/m² 4,2 °C 1,6 km/h (1 Bft)
06.11.2016 03:26 5,2 °C 5,2 °C 93 % 999,6 hPa 0,2 mm 1,8 km/h (1 Bft) NW 321 ° 0 min 0,000 mm 0,0 UV-I 0 W/m² 4,2 °C 3,2 km/h (1 Bft)
06.11.2016 03:27 5,2 °C 5,2 °C 93 % 999,6 hPa 0,0 mm 0,8 km/h (0 Bft) NW 321 ° 0 min 0,000 mm 0,0 UV-I 0 W/m² 4,2 °C 1,6 km/h (1 Bft)
06.11.2016 03:28 5,2 °C 5,2 °C 93 % 999,6 hPa 0,0 mm 0,8 km/h (0 Bft) NW 321 ° 0 min 0,000 mm 0,0 UV-I 0 W/m² 4,2 °C 1,6 km/h (1 Bft)
06.11.2016 03:29 5,2 °C 5,2 °C 93 % 999,6 hPa 0,0 mm 0,0 km/h (0 Bft) NW 321 ° 0 min 0,000 mm 0,0 UV-I 0 W/m² 4,2 °C 0,0 km/h (0 Bft)
06.11.2016 03:30 5,2 °C 5,2 °C 93 % 999,6 hPa 0,0 mm 0,9 km/h (0 Bft) NW 321 ° 0 min 0,000 mm 0,0 UV-I 0 W/m² 4,2 °C 3,2 km/h (1 Bft)
06.11.2016 03:31 5,2 °C 5,2 °C 93 % 999,6 hPa 0,0 mm 1,7 km/h (1 Bft) NW 321 ° 0 min 0,000 mm 0,0 UV-I 0 W/m² 4,2 °C 3,2 km/h (1 Bft)
06.11.2016 03:32 5,2 °C 5,2 °C 93 % 999,6 hPa 0,0 mm 0,7 km/h (0 Bft) NW 321 ° 0 min 0,000 mm 0,0 UV-I 0 W/m² 4,2 °C 1,6 km/h (1 Bft)
06.11.2016 03:33 5,2 °C 5,2 °C 93 % 999,6 hPa 0,0 mm 0,4 km/h (0 Bft) NW 321 ° 0 min 0,000 mm 0,0 UV-I 0 W/m² 4,2 °C 1,6 km/h (1 Bft)
06.11.2016 03:34 5,2 °C 5,2 °C 93 % 999,5 hPa 0,2 mm 1,0 km/h (0 Bft) NW 321 ° 0 min 0,000 mm 0,0 UV-I 0 W/m² 4,2 °C 1,6 km/h (1 Bft)
06.11.2016 03:35 5,2 °C 5,2 °C 93 % 999,5 hPa 0,0 mm 0,3 km/h (0 Bft) NW 321 ° 0 min 0,000 mm 0,0 UV-I 0 W/m² 4,2 °C 1,6 km/h (1 Bft)
06.11.2016 03:36 5,2 °C 5,2 °C 93 % 999,5 hPa 0,0 mm 1,1 km/h (1 Bft) NW 321 ° 0 min 0,000 mm 0,0 UV-I 0 W/m² 4,2 °C 1,6 km/h (1 Bft)
06.11.2016 03:37 5,1 °C 5,2 °C 93 % 999,6 hPa 0,0 mm 0,4 km/h (0 Bft) NW 321 ° 0 min 0,000 mm 0,0 UV-I 0 W/m² 4,1 °C 1,6 km/h (1 Bft)
06.11.2016 03:38 5,2 °C 5,2 °C 93 % 999,5 hPa 0,0 mm 1,1 km/h (1 Bft) NW 321 ° 0 min 0,000 mm 0,0 UV-I 0 W/m² 4,2 °C 1,6 km/h (1 Bft)
06.11.2016 03:39 5,1 °C 5,2 °C 93 % 999,5 hPa 0,0 mm 0,5 km/h (0 Bft) N-NW 339 ° 0 min 0,000 mm 0,0 UV-I 0 W/m² 4,1 °C 3,2 km/h (1 Bft)
06.11.2016 03:40 5,1 °C 5,1 °C 93 % 999,5 hPa 0,0 mm 2,7 km/h (1 Bft) N-NW 342 ° 0 min 0,000 mm 0,0 UV-I 0 W/m² 4,1 °C 3,2 km/h (1 Bft)
06.11.2016 03:41 5,1 °C 5,1 °C 93 % 999,5 hPa 0,2 mm 2,7 km/h (1 Bft) N-NW 342 ° 0 min 0,000 mm 0,0 UV-I 0 W/m² 4,1 °C 3,2 km/h (1 Bft)
06.11.2016 03:42 5,1 °C 5,1 °C 93 % 999,5 hPa 0,0 mm 3,2 km/h (1 Bft) N 349 ° 0 min 0,000 mm 0,0 UV-I 0 W/m² 4,1 °C 4,8 km/h (1 Bft)
06.11.2016 03:43 5,1 °C 5,1 °C 93 % 999,5 hPa 0,0 mm 2,9 km/h (1 Bft) N 349 ° 0 min 0,000 mm 0,0 UV-I 0 W/m² 4,1 °C 4,8 km/h (1 Bft)
06.11.2016 03:44 5,1 °C 5,1 °C 93 % 999,5 hPa 0,0 mm 0,8 km/h (0 Bft) N 349 ° 0 min 0,000 mm 0,0 UV-I 0 W/m² 4,1 °C 1,6 km/h (1 Bft)
06.11.2016 03:45 5,1 °C 5,1 °C 93 % 999,4 hPa 0,0 mm 1,7 km/h (1 Bft) N 355 ° 0 min 0,000 mm 0,0 UV-I 0 W/m² 4,1 °C 4,8 km/h (1 Bft)
06.11.2016 03:46 5,1 °C 5,1 °C 93 % 999,4 hPa 0,0 mm 3,4 km/h (1 Bft) N 355 ° 0 min 0,000 mm 0,0 UV-I 0 W/m² 4,1 °C 4,8 km/h (1 Bft)
06.11.2016 03:47 5,1 °C 5,1 °C 93 % 999,4 hPa 0,0 mm 1,8 km/h (1 Bft) N 355 ° 0 min 0,000 mm 0,0 UV-I 0 W/m² 4,1 °C 3,2 km/h (1 Bft)
06.11.2016 03:48 5,1 °C 5,1 °C 93 % 999,5 hPa 0,2 mm 0,5 km/h (0 Bft) N 355 ° 0 min 0,000 mm 0,0 UV-I 0 W/m² 4,1 °C 1,6 km/h (1 Bft)
06.11.2016 03:49 5,1 °C 5,1 °C 93 % 999,5 hPa 0,0 mm 0,5 km/h (0 Bft) N 355 ° 0 min 0,000 mm 0,0 UV-I 0 W/m² 4,1 °C 1,6 km/h (1 Bft)
06.11.2016 03:50 5,0 °C 5,1 °C 93 % 999,5 hPa 0,0 mm 0,4 km/h (0 Bft) N 355 ° 0 min 0,000 mm 0,0 UV-I 0 W/m² 4,0 °C 1,6 km/h (1 Bft)
06.11.2016 03:51 5,0 °C 5,0 °C 94 % 999,5 hPa 0,0 mm 0,0 km/h (0 Bft) N 355 ° 0 min 0,000 mm 0,0 UV-I 0 W/m² 4,1 °C 0,0 km/h (0 Bft)
06.11.2016 03:52 5,0 °C 5,1 °C 94 % 999,5 hPa 0,0 mm 0,0 km/h (0 Bft) N 355 ° 0 min 0,000 mm 0,0 UV-I 0 W/m² 4,1 °C 0,0 km/h (0 Bft)
06.11.2016 03:53 5,0 °C 5,1 °C 94 % 999,5 hPa 0,0 mm 0,2 km/h (0 Bft) N 355 ° 0 min 0,000 mm 0,0 UV-I 0 W/m² 4,1 °C 1,6 km/h (1 Bft)
06.11.2016 03:54 5,0 °C 5,0 °C 94 % 999,5 hPa 0,0 mm 0,0 km/h (0 Bft) N 355 ° 0 min 0,000 mm 0,0 UV-I 0 W/m² 4,1 °C 0,0 km/h (0 Bft)
06.11.2016 03:55 5,0 °C 5,0 °C 94 % 999,6 hPa 0,0 mm 0,9 km/h (0 Bft) N 355 ° 0 min 0,000 mm 0,0 UV-I 0 W/m² 4,1 °C 1,6 km/h (1 Bft)
06.11.2016 03:56 5,0 °C 5,0 °C 94 % 999,6 hPa 0,0 mm 1,3 km/h (1 Bft) N 355 ° 0 min 0,000 mm 0,0 UV-I 0 W/m² 4,1 °C 1,6 km/h (1 Bft)
06.11.2016 03:57 5,0 °C 5,0 °C 94 % 999,6 hPa 0,0 mm 0,1 km/h (0 Bft) N 355 ° 0 min 0,000 mm 0,0 UV-I 0 W/m² 4,1 °C 1,6 km/h (1 Bft)
06.11.2016 03:58 4,9 °C 5,0 °C 94 % 999,6 hPa 0,0 mm 0,1 km/h (0 Bft) N 355 ° 0 min 0,000 mm 0,0 UV-I 0 W/m² 4,0 °C 1,6 km/h (1 Bft)
06.11.2016 03:59 4,9 °C 5,0 °C 94 % 999,6 hPa 0,2 mm 0,7 km/h (0 Bft) N 355 ° 0 min 0,000 mm 0,0 UV-I 0 W/m² 4,0 °C 1,6 km/h (1 Bft)
06.11.2016 04:00 5,0 °C 5,0 °C 94 % 999,6 hPa 0,0 mm 1,3 km/h (1 Bft) N 355 ° 0 min 0,000 mm 0,0 UV-I 0 W/m² 4,1 °C 1,6 km/h (1 Bft)
06.11.2016 04:01 4,9 °C 5,0 °C 94 % 999,5 hPa 0,0 mm 0,1 km/h (0 Bft) N 355 ° 0 min 0,000 mm 0,0 UV-I 0 W/m² 4,0 °C 1,6 km/h (1 Bft)
06.11.2016 04:02 4,9 °C 4,9 °C 94 % 999,5 hPa 0,0 mm 0,0 km/h (0 Bft) N 355 ° 0 min 0,000 mm 0,0 UV-I 0 W/m² 4,0 °C 0,0 km/h (0 Bft)
06.11.2016 04:03 4,9 °C 5,0 °C 94 % 999,5 hPa 0,0 mm 0,0 km/h (0 Bft) N 355 ° 0 min 0,000 mm 0,0 UV-I 0 W/m² 4,0 °C 0,0 km/h (0 Bft)
06.11.2016 04:04 4,9 °C 4,9 °C 94 % 999,4 hPa 0,0 mm 0,0 km/h (0 Bft) N 355 ° 0 min 0,000 mm 0,0 UV-I 0 W/m² 4,0 °C 0,0 km/h (0 Bft)
06.11.2016 04:05 4,9 °C 5,0 °C 94 % 999,4 hPa 0,0 mm 0,0 km/h (0 Bft) N 355 ° 0 min 0,000 mm 0,0 UV-I 0 W/m² 4,0 °C 0,0 km/h (0 Bft)
06.11.2016 04:06 4,9 °C 4,9 °C 94 % 999,4 hPa 0,0 mm 0,0 km/h (0 Bft) N 355 ° 0 min 0,000 mm 0,0 UV-I 0 W/m² 4,0 °C 0,0 km/h (0 Bft)
06.11.2016 04:07 4,9 °C 4,9 °C 94 % 999,4 hPa 0,0 mm 0,0 km/h (0 Bft) N 355 ° 0 min 0,000 mm 0,0 UV-I 0 W/m² 4,0 °C 0,0 km/h (0 Bft)
06.11.2016 04:08 4,9 °C 4,9 °C 94 % 999,4 hPa 0,0 mm 0,0 km/h (0 Bft) N 355 ° 0 min 0,000 mm 0,0 UV-I 0 W/m² 4,0 °C 0,0 km/h (0 Bft)
06.11.2016 04:09 4,9 °C 4,9 °C 94 % 999,4 hPa 0,2 mm 0,0 km/h (0 Bft) N 355 ° 0 min 0,000 mm 0,0 UV-I 0 W/m² 4,0 °C 0,0 km/h (0 Bft)
06.11.2016 04:10 4,9 °C 4,9 °C 94 % 999,3 hPa 0,0 mm 0,0 km/h (0 Bft) N 355 ° 0 min 0,000 mm 0,0 UV-I 0 W/m² 4,0 °C 0,0 km/h (0 Bft)
06.11.2016 04:11 4,9 °C 4,9 °C 94 % 999,3 hPa 0,0 mm 0,0 km/h (0 Bft) N 355 ° 0 min 0,000 mm 0,0 UV-I 0 W/m² 4,0 °C 0,0 km/h (0 Bft)
06.11.2016 04:12 4,9 °C 4,9 °C 94 % 999,4 hPa 0,0 mm 0,0 km/h (0 Bft) N 355 ° 0 min 0,000 mm 0,0 UV-I 0 W/m² 4,0 °C 0,0 km/h (0 Bft)
06.11.2016 04:13 4,9 °C 4,9 °C 94 % 999,4 hPa 0,0 mm 0,0 km/h (0 Bft) N 355 ° 0 min 0,000 mm 0,0 UV-I 0 W/m² 4,0 °C 0,0 km/h (0 Bft)
06.11.2016 04:14 4,9 °C 4,9 °C 94 % 999,3 hPa 0,0 mm 0,0 km/h (0 Bft) N 355 ° 0 min 0,000 mm 0,0 UV-I 0 W/m² 4,0 °C 0,0 km/h (0 Bft)
06.11.2016 04:15 4,9 °C 4,9 °C 94 % 999,4 hPa 0,0 mm 0,0 km/h (0 Bft) N 355 ° 0 min 0,000 mm 0,0 UV-I 0 W/m² 4,0 °C 0,0 km/h (0 Bft)
06.11.2016 04:16 4,9 °C 4,9 °C 94 % 999,4 hPa 0,0 mm 0,0 km/h (0 Bft) N 355 ° 0 min 0,000 mm 0,0 UV-I 0 W/m² 4,0 °C 0,0 km/h (0 Bft)
06.11.2016 04:17 4,9 °C 4,9 °C 94 % 999,4 hPa 0,0 mm 0,0 km/h (0 Bft) N 355 ° 0 min 0,000 mm 0,0 UV-I 0 W/m² 4,0 °C 0,0 km/h (0 Bft)
06.11.2016 04:18 4,9 °C 4,9 °C 94 % 999,4 hPa 0,0 mm 0,0 km/h (0 Bft) N 355 ° 0 min 0,000 mm 0,0 UV-I 0 W/m² 4,0 °C 0,0 km/h (0 Bft)
06.11.2016 04:19 4,9 °C 4,9 °C 94 % 999,4 hPa 0,0 mm 0,0 km/h (0 Bft) N 355 ° 0 min 0,000 mm 0,0 UV-I 0 W/m² 4,0 °C 0,0 km/h (0 Bft)
06.11.2016 04:20 4,9 °C 4,9 °C 94 % 999,4 hPa 0,0 mm 0,0 km/h (0 Bft) N 355 ° 0 min 0,000 mm 0,0 UV-I 0 W/m² 4,0 °C 0,0 km/h (0 Bft)
06.11.2016 04:21 4,9 °C 4,9 °C 94 % 999,4 hPa 0,0 mm 0,0 km/h (0 Bft) N 355 ° 0 min 0,000 mm 0,0 UV-I 0 W/m² 4,0 °C 0,0 km/h (0 Bft)
06.11.2016 04:22 4,9 °C 4,9 °C 94 % 999,4 hPa 0,0 mm 0,0 km/h (0 Bft) N 355 ° 0 min 0,000 mm 0,0 UV-I 0 W/m² 4,0 °C 0,0 km/h (0 Bft)
06.11.2016 04:23 4,9 °C 4,9 °C 94 % 999,4 hPa 0,0 mm 0,0 km/h (0 Bft) N 355 ° 0 min 0,000 mm 0,0 UV-I 0 W/m² 4,0 °C 0,0 km/h (0 Bft)
06.11.2016 04:24 4,9 °C 4,9 °C 94 % 999,3 hPa 0,0 mm 0,0 km/h (0 Bft) N 355 ° 0 min 0,000 mm 0,0 UV-I 0 W/m² 4,0 °C 0,0 km/h (0 Bft)
06.11.2016 04:25 4,9 °C 4,9 °C 94 % 999,4 hPa 0,0 mm 0,0 km/h (0 Bft) N 355 ° 0 min 0,000 mm 0,0 UV-I 0 W/m² 4,0 °C 0,0 km/h (0 Bft)
06.11.2016 04:26 4,9 °C 4,9 °C 94 % 999,4 hPa 0,0 mm 0,0 km/h (0 Bft) N 355 ° 0 min 0,000 mm 0,0 UV-I 0 W/m² 4,0 °C 0,0 km/h (0 Bft)
06.11.2016 04:27 4,9 °C 4,9 °C 94 % 999,4 hPa 0,0 mm 0,0 km/h (0 Bft) N 355 ° 0 min 0,000 mm 0,0 UV-I 0 W/m² 4,0 °C 0,0 km/h (0 Bft)
06.11.2016 04:28 4,9 °C 4,9 °C 94 % 999,4 hPa 0,0 mm 0,0 km/h (0 Bft) N 355 ° 0 min 0,000 mm 0,0 UV-I 0 W/m² 4,0 °C 0,0 km/h (0 Bft)
06.11.2016 04:29 4,9 °C 4,9 °C 94 % 999,4 hPa 0,0 mm 0,0 km/h (0 Bft) N 355 ° 0 min 0,000 mm 0,0 UV-I 0 W/m² 4,0 °C 0,0 km/h (0 Bft)
06.11.2016 04:30 4,9 °C 4,9 °C 94 % 999,4 hPa 0,2 mm 2,7 km/h (1 Bft) N 355 ° 0 min 0,000 mm 0,0 UV-I 0 W/m² 4,0 °C 4,8 km/h (1 Bft)
06.11.2016 04:31 4,9 °C 4,9 °C 94 % 999,4 hPa 0,0 mm 3,2 km/h (1 Bft) N 355 ° 0 min 0,000 mm 0,0 UV-I 0 W/m² 4,0 °C 4,8 km/h (1 Bft)
06.11.2016 04:32 4,9 °C 4,9 °C 94 % 999,3 hPa 0,0 mm 2,2 km/h (1 Bft) N 355 ° 0 min 0,000 mm 0,0 UV-I 0 W/m² 4,0 °C 4,8 km/h (1 Bft)
06.11.2016 04:33 4,8 °C 4,9 °C 94 % 999,2 hPa 0,0 mm 0,7 km/h (0 Bft) N 355 ° 0 min 0,000 mm 0,0 UV-I 0 W/m² 3,9 °C 1,6 km/h (1 Bft)
06.11.2016 04:34 4,9 °C 4,9 °C 94 % 999,2 hPa 0,0 mm 0,7 km/h (0 Bft) N 355 ° 0 min 0,000 mm 0,0 UV-I 0 W/m² 4,0 °C 3,2 km/h (1 Bft)
06.11.2016 04:35 4,8 °C 4,9 °C 94 % 999,2 hPa 0,0 mm 1,5 km/h (1 Bft) N 355 ° 0 min 0,000 mm 0,0 UV-I 0 W/m² 3,9 °C 3,2 km/h (1 Bft)
06.11.2016 04:36 4,8 °C 4,9 °C 94 % 999,2 hPa 0,0 mm 2,0 km/h (1 Bft) N 355 ° 0 min 0,000 mm 0,0 UV-I 0 W/m² 3,9 °C 4,8 km/h (1 Bft)
06.11.2016 04:37 4,8 °C 4,9 °C 94 % 999,2 hPa 0,0 mm 0,5 km/h (0 Bft) N 355 ° 0 min 0,000 mm 0,0 UV-I 0 W/m² 3,9 °C 3,2 km/h (1 Bft)
06.11.2016 04:38 4,8 °C 4,9 °C 94 % 999,1 hPa 0,0 mm 2,6 km/h (1 Bft) N 355 ° 0 min 0,000 mm 0,0 UV-I 0 W/m² 3,9 °C 4,8 km/h (1 Bft)
06.11.2016 04:39 4,8 °C 4,9 °C 94 % 999,1 hPa 0,0 mm 2,0 km/h (1 Bft) N 355 ° 0 min 0,000 mm 0,0 UV-I 0 W/m² 3,9 °C 3,2 km/h (1 Bft)
06.11.2016 04:40 4,8 °C 4,9 °C 94 % 999,1 hPa 0,0 mm 2,7 km/h (1 Bft) N 355 ° 0 min 0,000 mm 0,0 UV-I 0 W/m² 3,9 °C 3,2 km/h (1 Bft)
06.11.2016 04:41 4,8 °C 4,8 °C 94 % 999,2 hPa 0,0 mm 1,7 km/h (1 Bft) N 355 ° 0 min 0,000 mm 0,0 UV-I 0 W/m² 3,9 °C 3,2 km/h (1 Bft)
06.11.2016 04:42 4,8 °C 4,8 °C 94 % 999,2 hPa 0,2 mm 1,1 km/h (1 Bft) N 355 ° 0 min 0,000 mm 0,0 UV-I 0 W/m² 3,9 °C 3,2 km/h (1 Bft)
06.11.2016 04:43 4,8 °C 4,8 °C 94 % 999,2 hPa 0,0 mm 1,6 km/h (1 Bft) N 355 ° 0 min 0,000 mm 0,0 UV-I 0 W/m² 3,9 °C 3,2 km/h (1 Bft)
06.11.2016 04:44 4,8 °C 4,8 °C 94 % 999,2 hPa 0,0 mm 0,6 km/h (0 Bft) N 355 ° 0 min 0,000 mm 0,0 UV-I 0 W/m² 3,9 °C 3,2 km/h (1 Bft)
06.11.2016 04:45 4,8 °C 4,8 °C 94 % 999,2 hPa 0,0 mm 2,2 km/h (1 Bft) N 355 ° 0 min 0,000 mm 0,0 UV-I 0 W/m² 3,9 °C 3,2 km/h (1 Bft)
06.11.2016 04:46 4,8 °C 4,8 °C 94 % 999,2 hPa 0,0 mm 1,5 km/h (1 Bft) N 355 ° 0 min 0,000 mm 0,0 UV-I 0 W/m² 3,9 °C 3,2 km/h (1 Bft)
06.11.2016 04:47 4,8 °C 4,8 °C 94 % 999,2 hPa 0,0 mm 0,8 km/h (0 Bft) N 355 ° 0 min 0,000 mm 0,0 UV-I 0 W/m² 3,9 °C 1,6 km/h (1 Bft)
06.11.2016 04:48 4,8 °C 4,8 °C 94 % 999,2 hPa 0,0 mm 0,9 km/h (0 Bft) N 355 ° 0 min 0,000 mm 0,0 UV-I 0 W/m² 3,9 °C 1,6 km/h (1 Bft)
06.11.2016 04:49 4,8 °C 4,8 °C 94 % 999,2 hPa 0,0 mm 0,6 km/h (0 Bft) N 355 ° 0 min 0,000 mm 0,0 UV-I 0 W/m² 3,9 °C 1,6 km/h (1 Bft)
06.11.2016 04:50 4,8 °C 4,8 °C 94 % 999,2 hPa 0,0 mm 1,4 km/h (1 Bft) N 355 ° 0 min 0,000 mm 0,0 UV-I 0 W/m² 3,9 °C 3,2 km/h (1 Bft)
06.11.2016 04:51 4,8 °C 4,8 °C 94 % 999,1 hPa 0,0 mm 0,3 km/h (0 Bft) N 360 ° 0 min 0,000 mm 0,0 UV-I 0 W/m² 3,9 °C 1,6 km/h (1 Bft)
06.11.2016 04:52 4,8 °C 4,8 °C 94 % 999,1 hPa 0,0 mm 2,4 km/h (1 Bft) N 11 ° 0 min 0,000 mm 0,0 UV-I 0 W/m² 3,9 °C 3,2 km/h (1 Bft)
06.11.2016 04:53 4,8 °C 4,8 °C 94 % 999,2 hPa 0,2 mm 2,1 km/h (1 Bft) N 11 ° 0 min 0,000 mm 0,0 UV-I 0 W/m² 3,9 °C 3,2 km/h (1 Bft)
06.11.2016 04:54 4,8 °C 4,8 °C 94 % 999,2 hPa 0,0 mm 1,1 km/h (1 Bft) N 11 ° 0 min 0,000 mm 0,0 UV-I 0 W/m² 3,9 °C 3,2 km/h (1 Bft)
06.11.2016 04:55 4,7 °C 4,8 °C 94 % 999,2 hPa 0,0 mm 0,3 km/h (0 Bft) N 11 ° 0 min 0,000 mm 0,0 UV-I 0 W/m² 3,8 °C 1,6 km/h (1 Bft)
06.11.2016 04:56 4,7 °C 4,8 °C 94 % 999,2 hPa 0,0 mm 1,4 km/h (1 Bft) N 11 ° 0 min 0,000 mm 0,0 UV-I 0 W/m² 3,8 °C 1,6 km/h (1 Bft)
06.11.2016 04:57 4,7 °C 4,8 °C 94 % 999,2 hPa 0,0 mm 1,7 km/h (1 Bft) N 11 ° 0 min 0,000 mm 0,0 UV-I 0 W/m² 3,8 °C 3,2 km/h (1 Bft)
06.11.2016 04:58 4,7 °C 4,7 °C 94 % 999,2 hPa 0,0 mm 1,4 km/h (1 Bft) N 11 ° 0 min 0,000 mm 0,0 UV-I 0 W/m² 3,8 °C 1,6 km/h (1 Bft)
06.11.2016 04:59 4,7 °C 4,7 °C 94 % 999,2 hPa 0,0 mm 0,3 km/h (0 Bft) N 11 ° 0 min 0,000 mm 0,0 UV-I 0 W/m² 3,8 °C 1,6 km/h (1 Bft)
06.11.2016 05:00 4,7 °C 4,7 °C 94 % 999,2 hPa 0,2 mm 0,4 km/h (0 Bft) N 11 ° 0 min 0,000 mm 0,0 UV-I 0 W/m² 3,8 °C 1,6 km/h (1 Bft)
06.11.2016 05:01 4,7 °C 4,7 °C 94 % 999,2 hPa 0,0 mm 1,3 km/h (1 Bft) N 11 ° 0 min 0,000 mm 0,0 UV-I 0 W/m² 3,8 °C 1,6 km/h (1 Bft)
06.11.2016 05:02 4,7 °C 4,7 °C 94 % 999,2 hPa 0,0 mm 1,7 km/h (1 Bft) N 11 ° 0 min 0,000 mm 0,0 UV-I 0 W/m² 3,8 °C 3,2 km/h (1 Bft)
06.11.2016 05:03 4,7 °C 4,7 °C 94 % 999,2 hPa 0,0 mm 1,5 km/h (1 Bft) N 11 ° 0 min 0,000 mm 0,0 UV-I 0 W/m² 3,8 °C 3,2 km/h (1 Bft)
06.11.2016 05:04 4,7 °C 4,7 °C 94 % 999,2 hPa 0,0 mm 1,3 km/h (1 Bft) N 11 ° 0 min 0,000 mm 0,0 UV-I 0 W/m² 3,8 °C 3,2 km/h (1 Bft)
06.11.2016 05:05 4,7 °C 4,7 °C 94 % 999,2 hPa 0,0 mm 1,3 km/h (1 Bft) N 11 ° 0 min 0,000 mm 0,0 UV-I 0 W/m² 3,8 °C 1,6 km/h (1 Bft)
06.11.2016 05:06 4,7 °C 4,7 °C 94 % 999,2 hPa 0,0 mm 0,7 km/h (0 Bft) N 11 ° 0 min 0,000 mm 0,0 UV-I 0 W/m² 3,8 °C 1,6 km/h (1 Bft)
06.11.2016 05:07 4,7 °C 4,7 °C 94 % 999,2 hPa 0,0 mm 2,0 km/h (1 Bft) N-NO 30 ° 0 min 0,000 mm 0,0 UV-I 0 W/m² 3,8 °C 4,8 km/h (1 Bft)
06.11.2016 05:08 4,7 °C 4,7 °C 94 % 999,3 hPa 0,0 mm 2,4 km/h (1 Bft) N-NO 31 ° 0 min 0,000 mm 0,0 UV-I 0 W/m² 3,8 °C 3,2 km/h (1 Bft)
06.11.2016 05:09 4,7 °C 4,7 °C 94 % 999,4 hPa 0,0 mm 0,5 km/h (0 Bft) N-NO 31 ° 0 min 0,000 mm 0,0 UV-I 0 W/m² 3,8 °C 1,6 km/h (1 Bft)
06.11.2016 05:10 4,7 °C 4,7 °C 94 % 999,3 hPa 0,2 mm 0,0 km/h (0 Bft) N-NO 31 ° 0 min 0,000 mm 0,0 UV-I 0 W/m² 3,8 °C 0,0 km/h (0 Bft)
06.11.2016 05:11 4,7 °C 4,7 °C 94 % 999,4 hPa 0,0 mm 0,0 km/h (0 Bft) N-NO 31 ° 0 min 0,000 mm 0,0 UV-I 0 W/m² 3,8 °C 0,0 km/h (0 Bft)
06.11.2016 05:12 4,7 °C 4,7 °C 94 % 999,4 hPa 0,0 mm 0,0 km/h (0 Bft) N-NO 31 ° 0 min 0,000 mm 0,0 UV-I 0 W/m² 3,8 °C 0,0 km/h (0 Bft)
06.11.2016 05:13 4,7 °C 4,7 °C 94 % 999,4 hPa 0,0 mm 0,0 km/h (0 Bft) N-NO 31 ° 0 min 0,000 mm 0,0 UV-I 0 W/m² 3,8 °C 0,0 km/h (0 Bft)
06.11.2016 05:14 4,7 °C 4,7 °C 94 % 999,4 hPa 0,0 mm 0,2 km/h (0 Bft) N-NO 31 ° 0 min 0,000 mm 0,0 UV-I 0 W/m² 3,8 °C 1,6 km/h (1 Bft)
06.11.2016 05:15 4,7 °C 4,7 °C 94 % 999,4 hPa 0,0 mm 1,6 km/h (1 Bft) N-NO 31 ° 0 min 0,000 mm 0,0 UV-I 0 W/m² 3,8 °C 3,2 km/h (1 Bft)
06.11.2016 05:16 4,7 °C 4,7 °C 94 % 999,4 hPa 0,0 mm 0,7 km/h (0 Bft) N-NO 31 ° 0 min 0,000 mm 0,0 UV-I 0 W/m² 3,8 °C 1,6 km/h (1 Bft)
06.11.2016 05:17 4,7 °C 4,7 °C 94 % 999,3 hPa 0,0 mm 0,5 km/h (0 Bft) N-NO 31 ° 0 min 0,000 mm 0,0 UV-I 0 W/m² 3,8 °C 1,6 km/h (1 Bft)
06.11.2016 05:18 4,7 °C 4,7 °C 94 % 999,4 hPa 0,0 mm 1,3 km/h (1 Bft) N-NO 31 ° 0 min 0,000 mm 0,0 UV-I 0 W/m² 3,8 °C 3,2 km/h (1 Bft)
06.11.2016 05:19 4,6 °C 4,7 °C 94 % 999,4 hPa 0,2 mm 0,1 km/h (0 Bft) N-NO 31 ° 0 min 0,000 mm 0,0 UV-I 0 W/m² 3,7 °C 1,6 km/h (1 Bft)
06.11.2016 05:20 4,6 °C 4,7 °C 94 % 999,3 hPa 0,0 mm 1,3 km/h (1 Bft) N-NO 31 ° 0 min 0,000 mm 0,0 UV-I 0 W/m² 3,7 °C 3,2 km/h (1 Bft)
06.11.2016 05:21 4,6 °C 4,7 °C 94 % 999,3 hPa 0,0 mm 2,4 km/h (1 Bft) N-NO 31 ° 0 min 0,000 mm 0,0 UV-I 0 W/m² 3,7 °C 3,2 km/h (1 Bft)
06.11.2016 05:22 4,6 °C 4,6 °C 94 % 999,3 hPa 0,0 mm 1,7 km/h (1 Bft) N-NO 31 ° 0 min 0,000 mm 0,0 UV-I 0 W/m² 3,7 °C 3,2 km/h (1 Bft)
06.11.2016 05:23 4,7 °C 4,7 °C 94 % 999,2 hPa 0,0 mm 1,7 km/h (1 Bft) NO 35 ° 0 min 0,000 mm 0,0 UV-I 0 W/m² 3,8 °C 3,2 km/h (1 Bft)
06.11.2016 05:24 4,6 °C 4,7 °C 94 % 999,2 hPa 0,0 mm 3,2 km/h (1 Bft) NO 42 ° 0 min 0,000 mm 0,0 UV-I 0 W/m² 3,7 °C 4,8 km/h (1 Bft)
06.11.2016 05:25 4,6 °C 4,6 °C 94 % 999,2 hPa 0,2 mm 3,4 km/h (1 Bft) NO 55 ° 0 min 0,000 mm 0,0 UV-I 0 W/m² 3,7 °C 4,8 km/h (1 Bft)
06.11.2016 05:26 4,6 °C 4,6 °C 94 % 999,1 hPa 0,0 mm 2,3 km/h (1 Bft) NO 54 ° 0 min 0,000 mm 0,0 UV-I 0 W/m² 3,7 °C 3,2 km/h (1 Bft)
06.11.2016 05:27 4,6 °C 4,6 °C 94 % 999,1 hPa 0,0 mm 2,6 km/h (1 Bft) N-NO 29 ° 0 min 0,000 mm 0,0 UV-I 0 W/m² 3,7 °C 4,8 km/h (1 Bft)
06.11.2016 05:28 4,6 °C 4,6 °C 94 % 999,1 hPa 0,0 mm 2,9 km/h (1 Bft) N-NO 29 ° 0 min 0,000 mm 0,0 UV-I 0 W/m² 3,7 °C 3,2 km/h (1 Bft)
06.11.2016 05:29 4,6 °C 4,6 °C 94 % 999,0 hPa 0,0 mm 1,8 km/h (1 Bft) N-NO 29 ° 0 min 0,000 mm 0,0 UV-I 0 W/m² 3,7 °C 3,2 km/h (1 Bft)
06.11.2016 05:30 4,6 °C 4,6 °C 94 % 999,0 hPa 0,0 mm 0,9 km/h (0 Bft) N-NO 29 ° 0 min 0,000 mm 0,0 UV-I 0 W/m² 3,7 °C 1,6 km/h (1 Bft)
06.11.2016 05:31 4,6 °C 4,6 °C 94 % 999,0 hPa 0,0 mm 0,1 km/h (0 Bft) N-NO 29 ° 0 min 0,000 mm 0,0 UV-I 0 W/m² 3,7 °C 1,6 km/h (1 Bft)
06.11.2016 05:32 4,6 °C 4,6 °C 94 % 999,0 hPa 0,0 mm 0,0 km/h (0 Bft) N-NO 29 ° 0 min 0,000 mm 0,0 UV-I 0 W/m² 3,7 °C 0,0 km/h (0 Bft)
06.11.2016 05:33 4,6 °C 4,6 °C 94 % 998,9 hPa 0,0 mm 0,0 km/h (0 Bft) N-NO 29 ° 0 min 0,000 mm 0,0 UV-I 0 W/m² 3,7 °C 0,0 km/h (0 Bft)
06.11.2016 05:34 4,6 °C 4,6 °C 94 % 998,9 hPa 0,0 mm 0,0 km/h (0 Bft) N-NO 29 ° 0 min 0,000 mm 0,0 UV-I 0 W/m² 3,7 °C 0,0 km/h (0 Bft)
06.11.2016 05:35 4,6 °C 4,6 °C 94 % 998,8 hPa 0,0 mm 0,0 km/h (0 Bft) N-NO 29 ° 0 min 0,000 mm 0,0 UV-I 0 W/m² 3,7 °C 0,0 km/h (0 Bft)
06.11.2016 05:36 4,6 °C 4,6 °C 94 % 998,9 hPa 0,0 mm 0,0 km/h (0 Bft) N-NO 29 ° 0 min 0,000 mm 0,0 UV-I 0 W/m² 3,7 °C 0,0 km/h (0 Bft)
06.11.2016 05:37 4,6 °C 4,6 °C 94 % 998,9 hPa 0,0 mm 0,0 km/h (0 Bft) N-NO 29 ° 0 min 0,000 mm 0,0 UV-I 0 W/m² 3,7 °C 0,0 km/h (0 Bft)
06.11.2016 05:38 4,6 °C 4,6 °C 94 % 999,0 hPa 0,0 mm 0,0 km/h (0 Bft) N-NO 29 ° 0 min 0,000 mm 0,0 UV-I 0 W/m² 3,7 °C 0,0 km/h (0 Bft)
06.11.2016 05:39 4,5 °C 4,6 °C 94 % 999,0 hPa 0,0 mm 0,0 km/h (0 Bft) N-NO 29 ° 0 min 0,000 mm 0,0 UV-I 0 W/m² 3,6 °C 0,0 km/h (0 Bft)
06.11.2016 05:40 4,6 °C 4,6 °C 94 % 999,0 hPa 0,0 mm 0,0 km/h (0 Bft) N-NO 29 ° 0 min 0,000 mm 0,0 UV-I 0 W/m² 3,7 °C 0,0 km/h (0 Bft)
06.11.2016 05:41 4,5 °C 4,6 °C 94 % 999,0 hPa 0,2 mm 0,0 km/h (0 Bft) N-NO 29 ° 0 min 0,000 mm 0,0 UV-I 0 W/m² 3,6 °C 0,0 km/h (0 Bft)
06.11.2016 05:42 4,5 °C 4,6 °C 94 % 999,1 hPa 0,0 mm 0,0 km/h (0 Bft) N-NO 29 ° 0 min 0,000 mm 0,0 UV-I 0 W/m² 3,6 °C 0,0 km/h (0 Bft)
06.11.2016 05:43 4,6 °C 4,6 °C 94 % 999,0 hPa 0,0 mm 0,0 km/h (0 Bft) N-NO 29 ° 0 min 0,000 mm 0,0 UV-I 0 W/m² 3,7 °C 0,0 km/h (0 Bft)
06.11.2016 05:44 4,6 °C 4,6 °C 94 % 999,0 hPa 0,0 mm 0,0 km/h (0 Bft) N-NO 29 ° 0 min 0,000 mm 0,0 UV-I 0 W/m² 3,7 °C 0,0 km/h (0 Bft)
06.11.2016 05:45 4,5 °C 4,6 °C 94 % 999,0 hPa 0,0 mm 0,0 km/h (0 Bft) N-NO 29 ° 0 min 0,000 mm 0,0 UV-I 0 W/m² 3,6 °C 0,0 km/h (0 Bft)
06.11.2016 05:46 4,5 °C 4,5 °C 94 % 999,0 hPa 0,0 mm 0,0 km/h (0 Bft) N-NO 29 ° 0 min 0,000 mm 0,0 UV-I 0 W/m² 3,6 °C 0,0 km/h (0 Bft)
06.11.2016 05:47 4,5 °C 4,5 °C 94 % 999,0 hPa 0,0 mm 0,0 km/h (0 Bft) N-NO 29 ° 0 min 0,000 mm 0,0 UV-I 0 W/m² 3,6 °C 0,0 km/h (0 Bft)
06.11.2016 05:48 4,5 °C 4,5 °C 94 % 999,0 hPa 0,0 mm 0,0 km/h (0 Bft) N-NO 29 ° 0 min 0,000 mm 0,0 UV-I 0 W/m² 3,6 °C 0,0 km/h (0 Bft)
06.11.2016 05:49 4,5 °C 4,5 °C 94 % 998,8 hPa 0,0 mm 0,0 km/h (0 Bft) N-NO 29 ° 0 min 0,000 mm 0,0 UV-I 0 W/m² 3,6 °C 0,0 km/h (0 Bft)
06.11.2016 05:50 4,5 °C 4,5 °C 94 % 998,8 hPa 0,0 mm 0,0 km/h (0 Bft) N-NO 29 ° 0 min 0,000 mm 0,0 UV-I 0 W/m² 3,6 °C 0,0 km/h (0 Bft)
06.11.2016 05:51 4,5 °C 4,5 °C 94 % 998,8 hPa 0,0 mm 0,0 km/h (0 Bft) N-NO 29 ° 0 min 0,000 mm 0,0 UV-I 0 W/m² 3,6 °C 0,0 km/h (0 Bft)
06.11.2016 05:52 4,5 °C 4,5 °C 94 % 998,8 hPa 0,0 mm 0,0 km/h (0 Bft) N-NO 29 ° 0 min 0,000 mm 0,0 UV-I 0 W/m² 3,6 °C 0,0 km/h (0 Bft)
06.11.2016 05:53 4,5 °C 4,5 °C 94 % 998,8 hPa 0,0 mm 0,0 km/h (0 Bft) N-NO 29 ° 0 min 0,000 mm 0,0 UV-I 0 W/m² 3,6 °C 0,0 km/h (0 Bft)
06.11.2016 05:54 4,4 °C 4,5 °C 94 % 998,7 hPa 0,0 mm 0,0 km/h (0 Bft) N-NO 29 ° 0 min 0,000 mm 0,0 UV-I 0 W/m² 3,5 °C 0,0 km/h (0 Bft)
06.11.2016 05:55 4,4 °C 4,4 °C 94 % 998,8 hPa 0,2 mm 0,0 km/h (0 Bft) N-NO 29 ° 0 min 0,000 mm 0,0 UV-I 0 W/m² 3,5 °C 0,0 km/h (0 Bft)
06.11.2016 05:56 4,4 °C 4,5 °C 94 % 998,8 hPa 0,0 mm 0,0 km/h (0 Bft) N-NO 29 ° 0 min 0,000 mm 0,0 UV-I 0 W/m² 3,5 °C 0,0 km/h (0 Bft)
06.11.2016 05:57 4,4 °C 4,4 °C 94 % 998,8 hPa 0,0 mm 0,0 km/h (0 Bft) N-NO 29 ° 0 min 0,000 mm 0,0 UV-I 0 W/m² 3,5 °C 0,0 km/h (0 Bft)
06.11.2016 05:58 4,4 °C 4,4 °C 94 % 998,9 hPa 0,0 mm 1,0 km/h (0 Bft) N-NO 29 ° 0 min 0,000 mm 0,0 UV-I 0 W/m² 3,5 °C 3,2 km/h (1 Bft)
06.11.2016 05:59 4,4 °C 4,4 °C 94 % 998,9 hPa 0,0 mm 2,7 km/h (1 Bft) N-NO 22 ° 0 min 0,000 mm 0,0 UV-I 0 W/m² 3,5 °C 3,2 km/h (1 Bft)
06.11.2016 06:00 4,4 °C 4,4 °C 94 % 998,9 hPa 0,0 mm 1,6 km/h (1 Bft) N-NO 22 ° 0 min 0,000 mm 0,0 UV-I 0 W/m² 3,5 °C 3,2 km/h (1 Bft)
06.11.2016 06:01 4,4 °C 4,4 °C 94 % 998,9 hPa 0,0 mm 1,2 km/h (1 Bft) N-NO 22 ° 0 min 0,000 mm 0,0 UV-I 0 W/m² 3,5 °C 3,2 km/h (1 Bft)
06.11.2016 06:02 4,4 °C 4,4 °C 94 % 998,8 hPa 0,0 mm 0,5 km/h (0 Bft) N-NO 22 ° 0 min 0,000 mm 0,0 UV-I 0 W/m² 3,5 °C 1,6 km/h (1 Bft)
06.11.2016 06:03 4,4 °C 4,4 °C 94 % 998,7 hPa 0,0 mm 0,2 km/h (0 Bft) N-NO 22 ° 0 min 0,000 mm 0,0 UV-I 0 W/m² 3,5 °C 1,6 km/h (1 Bft)
06.11.2016 06:04 4,4 °C 4,4 °C 94 % 998,7 hPa 0,0 mm 0,0 km/h (0 Bft) N-NO 22 ° 0 min 0,000 mm 0,0 UV-I 0 W/m² 3,5 °C 0,0 km/h (0 Bft)
06.11.2016 06:05 4,4 °C 4,4 °C 94 % 998,8 hPa 0,0 mm 0,8 km/h (0 Bft) N-NO 22 ° 0 min 0,000 mm 0,0 UV-I 0 W/m² 3,5 °C 3,2 km/h (1 Bft)
06.11.2016 06:06 4,4 °C 4,4 °C 94 % 998,9 hPa 0,0 mm 1,2 km/h (1 Bft) N-NO 22 ° 0 min 0,000 mm 0,0 UV-I 0 W/m² 3,5 °C 1,6 km/h (1 Bft)
06.11.2016 06:07 4,4 °C 4,4 °C 94 % 999,0 hPa 0,0 mm 1,3 km/h (1 Bft) N-NO 22 ° 0 min 0,000 mm 0,0 UV-I 0 W/m² 3,5 °C 1,6 km/h (1 Bft)
06.11.2016 06:08 4,4 °C 4,4 °C 94 % 999,0 hPa 0,0 mm 2,2 km/h (1 Bft) N-NO 22 ° 0 min 0,000 mm 0,0 UV-I 0 W/m² 3,5 °C 3,2 km/h (1 Bft)
06.11.2016 06:09 4,4 °C 4,4 °C 94 % 999,1 hPa 0,0 mm 0,3 km/h (0 Bft) N-NO 22 ° 0 min 0,000 mm 0,0 UV-I 0 W/m² 3,5 °C 1,6 km/h (1 Bft)
06.11.2016 06:10 4,4 °C 4,4 °C 94 % 999,1 hPa 0,0 mm 0,7 km/h (0 Bft) N-NO 22 ° 0 min 0,000 mm 0,0 UV-I 0 W/m² 3,5 °C 1,6 km/h (1 Bft)
06.11.2016 06:11 4,4 °C 4,4 °C 94 % 999,1 hPa 0,0 mm 0,0 km/h (0 Bft) N-NO 22 ° 0 min 0,000 mm 0,0 UV-I 0 W/m² 3,5 °C 0,0 km/h (0 Bft)
06.11.2016 06:12 4,3 °C 4,4 °C 94 % 999,0 hPa 0,0 mm 0,0 km/h (0 Bft) N-NO 22 ° 0 min 0,000 mm 0,0 UV-I 0 W/m² 3,4 °C 0,0 km/h (0 Bft)
06.11.2016 06:13 4,4 °C 4,4 °C 94 % 999,0 hPa 0,2 mm 0,1 km/h (0 Bft) N-NO 22 ° 0 min 0,000 mm 0,0 UV-I 0 W/m² 3,5 °C 1,6 km/h (1 Bft)
06.11.2016 06:14 4,4 °C 4,4 °C 94 % 998,9 hPa 0,0 mm 1,0 km/h (0 Bft) N-NO 22 ° 0 min 0,000 mm 0,0 UV-I 0 W/m² 3,5 °C 1,6 km/h (1 Bft)
06.11.2016 06:15 4,4 °C 4,4 °C 94 % 998,9 hPa 0,0 mm 1,7 km/h (1 Bft) N-NO 22 ° 0 min 0,000 mm 0,0 UV-I 0 W/m² 3,5 °C 3,2 km/h (1 Bft)
06.11.2016 06:16 4,4 °C 4,4 °C 94 % 998,9 hPa 0,0 mm 1,7 km/h (1 Bft) N-NO 20 ° 0 min 0,000 mm 0,0 UV-I 0 W/m² 3,5 °C 3,2 km/h (1 Bft)
06.11.2016 06:17 4,4 °C 4,4 °C 94 % 998,8 hPa 0,0 mm 1,9 km/h (1 Bft) N-NO 20 ° 0 min 0,000 mm 0,0 UV-I 0 W/m² 3,5 °C 3,2 km/h (1 Bft)
06.11.2016 06:18 4,3 °C 4,4 °C 94 % 998,8 hPa 0,2 mm 2,8 km/h (1 Bft) NW 304 ° 0 min 0,000 mm 0,0 UV-I 0 W/m² 3,4 °C 4,8 km/h (1 Bft)
06.11.2016 06:19 4,4 °C 4,4 °C 94 % 998,8 hPa 0,0 mm 4,9 km/h (1 Bft) N-NW 348 ° 0 min 0,000 mm 0,0 UV-I 0 W/m² 3,5 °C 6,4 km/h (2 Bft)
06.11.2016 06:20 4,3 °C 4,4 °C 94 % 998,9 hPa 0,0 mm 3,5 km/h (1 Bft) NW 315 ° 0 min 0,000 mm 0,0 UV-I 0 W/m² 3,4 °C 6,4 km/h (2 Bft)
06.11.2016 06:21 4,3 °C 4,4 °C 94 % 998,9 hPa 0,0 mm 2,5 km/h (1 Bft) NW 315 ° 0 min 0,000 mm 0,0 UV-I 0 W/m² 3,4 °C 3,2 km/h (1 Bft)
06.11.2016 06:22 4,4 °C 4,4 °C 94 % 998,9 hPa 0,0 mm 1,5 km/h (1 Bft) NW 315 ° 0 min 0,000 mm 0,0 UV-I 0 W/m² 3,5 °C 3,2 km/h (1 Bft)
06.11.2016 06:23 4,4 °C 4,4 °C 94 % 999,0 hPa 0,0 mm 0,2 km/h (0 Bft) NW 315 ° 0 min 0,000 mm 0,0 UV-I 0 W/m² 3,5 °C 1,6 km/h (1 Bft)
06.11.2016 06:24 4,3 °C 4,4 °C 94 % 999,0 hPa 0,0 mm 2,1 km/h (1 Bft) NW 315 ° 0 min 0,000 mm 0,0 UV-I 0 W/m² 3,4 °C 3,2 km/h (1 Bft)
06.11.2016 06:25 4,3 °C 4,4 °C 94 % 998,9 hPa 0,0 mm 3,1 km/h (1 Bft) NW 315 ° 0 min 0,000 mm 0,0 UV-I 0 W/m² 3,4 °C 3,2 km/h (1 Bft)
06.11.2016 06:26 4,3 °C 4,3 °C 94 % 998,9 hPa 0,0 mm 2,5 km/h (1 Bft) N-NW 330 ° 0 min 0,000 mm 0,0 UV-I 0 W/m² 3,4 °C 4,8 km/h (1 Bft)
06.11.2016 06:27 4,3 °C 4,3 °C 94 % 998,9 hPa 0,2 mm 2,1 km/h (1 Bft) N-NW 330 ° 0 min 0,000 mm 0,0 UV-I 0 W/m² 3,4 °C 3,2 km/h (1 Bft)
06.11.2016 06:28 4,3 °C 4,3 °C 94 % 998,9 hPa 0,0 mm 1,4 km/h (1 Bft) N-NW 330 ° 0 min 0,000 mm 0,0 UV-I 0 W/m² 3,4 °C 3,2 km/h (1 Bft)
06.11.2016 06:29 4,3 °C 4,3 °C 94 % 998,9 hPa 0,0 mm 1,5 km/h (1 Bft) N-NW 330 ° 0 min 0,000 mm 0,0 UV-I 0 W/m² 3,4 °C 3,2 km/h (1 Bft)
06.11.2016 06:30 4,3 °C 4,3 °C 94 % 999,0 hPa 0,0 mm 2,2 km/h (1 Bft) N-NW 330 ° 0 min 0,000 mm 0,0 UV-I 0 W/m² 3,4 °C 3,2 km/h (1 Bft)
06.11.2016 06:31 4,3 °C 4,3 °C 94 % 999,0 hPa 0,0 mm 2,7 km/h (1 Bft) N-NW 330 ° 0 min 0,000 mm 0,0 UV-I 0 W/m² 3,4 °C 3,2 km/h (1 Bft)
06.11.2016 06:32 4,3 °C 4,3 °C 94 % 999,0 hPa 0,0 mm 1,1 km/h (1 Bft) N-NW 330 ° 0 min 0,000 mm 0,0 UV-I 0 W/m² 3,4 °C 3,2 km/h (1 Bft)
06.11.2016 06:33 4,3 °C 4,3 °C 94 % 998,9 hPa 0,0 mm 1,8 km/h (1 Bft) N-NW 330 ° 0 min 0,000 mm 0,0 UV-I 0 W/m² 3,4 °C 3,2 km/h (1 Bft)
06.11.2016 06:34 4,3 °C 4,3 °C 94 % 998,9 hPa 0,2 mm 1,1 km/h (1 Bft) N-NW 330 ° 0 min 0,000 mm 0,0 UV-I 0 W/m² 3,4 °C 1,6 km/h (1 Bft)
06.11.2016 06:35 4,3 °C 4,3 °C 94 % 998,9 hPa 0,0 mm 1,5 km/h (1 Bft) N-NW 330 ° 0 min 0,000 mm 0,0 UV-I 0 W/m² 3,4 °C 3,2 km/h (1 Bft)
06.11.2016 06:36 4,3 °C 4,3 °C 94 % 998,9 hPa 0,0 mm 0,5 km/h (0 Bft) N-NW 330 ° 0 min 0,000 mm 0,0 UV-I 0 W/m² 3,4 °C 1,6 km/h (1 Bft)
06.11.2016 06:37 4,3 °C 4,3 °C 94 % 999,0 hPa 0,0 mm 0,5 km/h (0 Bft) N-NW 330 ° 0 min 0,000 mm 0,0 UV-I 0 W/m² 3,4 °C 1,6 km/h (1 Bft)
06.11.2016 06:38 4,3 °C 4,3 °C 94 % 999,0 hPa 0,0 mm 1,4 km/h (1 Bft) N-NW 330 ° 0 min 0,000 mm 0,0 UV-I 0 W/m² 3,4 °C 3,2 km/h (1 Bft)
06.11.2016 06:39 4,3 °C 4,3 °C 94 % 999,0 hPa 0,0 mm 0,4 km/h (0 Bft) N-NW 330 ° 0 min 0,000 mm 0,0 UV-I 0 W/m² 3,4 °C 1,6 km/h (1 Bft)
06.11.2016 06:40 4,3 °C 4,3 °C 94 % 999,0 hPa 0,2 mm 1,0 km/h (0 Bft) N-NW 330 ° 0 min 0,000 mm 0,0 UV-I 0 W/m² 3,4 °C 3,2 km/h (1 Bft)
06.11.2016 06:41 4,3 °C 4,3 °C 94 % 998,9 hPa 0,0 mm 1,1 km/h (1 Bft) N-NW 330 ° 0 min 0,000 mm 0,0 UV-I 0 W/m² 3,4 °C 1,6 km/h (1 Bft)
06.11.2016 06:42 4,3 °C 4,3 °C 94 % 998,8 hPa 0,0 mm 1,7 km/h (1 Bft) N-NW 330 ° 0 min 0,000 mm 0,0 UV-I 0 W/m² 3,4 °C 3,2 km/h (1 Bft)
06.11.2016 06:43 4,3 °C 4,3 °C 94 % 998,8 hPa 0,0 mm 2,9 km/h (1 Bft) N-NW 330 ° 0 min 0,000 mm 0,0 UV-I 0 W/m² 3,4 °C 4,8 km/h (1 Bft)
06.11.2016 06:44 4,3 °C 4,3 °C 94 % 998,8 hPa 0,0 mm 1,9 km/h (1 Bft) N-NW 330 ° 0 min 0,000 mm 0,0 UV-I 0 W/m² 3,4 °C 3,2 km/h (1 Bft)
06.11.2016 06:45 4,3 °C 4,3 °C 94 % 998,8 hPa 0,2 mm 2,3 km/h (1 Bft) N-NW 330 ° 0 min 0,000 mm 0,0 UV-I 0 W/m² 3,4 °C 3,2 km/h (1 Bft)
06.11.2016 06:46 4,3 °C 4,3 °C 94 % 998,8 hPa 0,0 mm 0,8 km/h (0 Bft) N-NW 330 ° 0 min 0,000 mm 0,0 UV-I 0 W/m² 3,4 °C 1,6 km/h (1 Bft)
06.11.2016 06:47 4,3 °C 4,3 °C 94 % 998,8 hPa 0,0 mm 3,1 km/h (1 Bft) N 355 ° 0 min 0,000 mm 0,0 UV-I 0 W/m² 3,4 °C 4,8 km/h (1 Bft)
06.11.2016 06:48 4,3 °C 4,3 °C 94 % 998,8 hPa 0,0 mm 2,7 km/h (1 Bft) N 355 ° 0 min 0,000 mm 0,0 UV-I 0 W/m² 3,4 °C 4,8 km/h (1 Bft)
06.11.2016 06:49 4,3 °C 4,3 °C 94 % 998,8 hPa 0,0 mm 0,6 km/h (0 Bft) N 355 ° 0 min 0,000 mm 0,0 UV-I 0 W/m² 3,4 °C 1,6 km/h (1 Bft)
06.11.2016 06:50 4,3 °C 4,3 °C 94 % 998,9 hPa 0,0 mm 1,8 km/h (1 Bft) N 355 ° 0 min 0,000 mm 0,0 UV-I 0 W/m² 3,4 °C 3,2 km/h (1 Bft)
06.11.2016 06:51 4,3 °C 4,3 °C 94 % 998,9 hPa 0,0 mm 0,6 km/h (0 Bft) N 355 ° 0 min 0,000 mm 0,0 UV-I 0 W/m² 3,4 °C 1,6 km/h (1 Bft)
06.11.2016 06:52 4,3 °C 4,3 °C 94 % 998,9 hPa 0,0 mm 0,3 km/h (0 Bft) N 355 ° 0 min 0,000 mm 0,0 UV-I 0 W/m² 3,4 °C 1,6 km/h (1 Bft)
06.11.2016 06:53 4,3 °C 4,3 °C 94 % 998,9 hPa 0,2 mm 1,9 km/h (1 Bft) N 355 ° 0 min 0,000 mm 0,0 UV-I 0 W/m² 3,4 °C 3,2 km/h (1 Bft)
06.11.2016 06:54 4,3 °C 4,3 °C 94 % 998,9 hPa 0,0 mm 1,5 km/h (1 Bft) N 355 ° 0 min 0,000 mm 0,0 UV-I 0 W/m² 3,4 °C 3,2 km/h (1 Bft)
06.11.2016 06:55 4,3 °C 4,3 °C 94 % 999,0 hPa 0,0 mm 1,2 km/h (1 Bft) N 355 ° 0 min 0,000 mm 0,0 UV-I 0 W/m² 3,4 °C 3,2 km/h (1 Bft)
06.11.2016 06:56 4,2 °C 4,3 °C 94 % 999,0 hPa 0,0 mm 0,0 km/h (0 Bft) N 355 ° 0 min 0,000 mm 0,0 UV-I 0 W/m² 3,3 °C 0,0 km/h (0 Bft)
06.11.2016 06:57 4,2 °C 4,3 °C 94 % 999,1 hPa 0,0 mm 2,7 km/h (1 Bft) NW 321 ° 0 min 0,000 mm 0,0 UV-I 0 W/m² 3,3 °C 4,8 km/h (1 Bft)
06.11.2016 06:58 4,2 °C 4,3 °C 94 % 999,1 hPa 0,0 mm 3,6 km/h (1 Bft) NW 318 ° 0 min 0,000 mm 0,0 UV-I 0 W/m² 3,3 °C 4,8 km/h (1 Bft)
06.11.2016 06:59 4,2 °C 4,2 °C 94 % 999,1 hPa 0,0 mm 2,7 km/h (1 Bft) NW 318 ° 0 min 0,000 mm 0,0 UV-I 0 W/m² 3,3 °C 3,2 km/h (1 Bft)
06.11.2016 07:00 4,2 °C 4,2 °C 94 % 999,1 hPa 0,0 mm 0,9 km/h (0 Bft) NW 318 ° 0 min 0,000 mm 0,0 UV-I 0 W/m² 3,3 °C 1,6 km/h (1 Bft)
06.11.2016 07:01 4,2 °C 4,2 °C 94 % 999,2 hPa 0,0 mm 0,2 km/h (0 Bft) NW 318 ° 0 min 0,000 mm 0,0 UV-I 0 W/m² 3,3 °C 1,6 km/h (1 Bft)
06.11.2016 07:02 4,2 °C 4,2 °C 94 % 999,3 hPa 0,2 mm 0,4 km/h (0 Bft) NW 318 ° 0 min 0,000 mm 0,0 UV-I 0 W/m² 3,3 °C 1,6 km/h (1 Bft)
06.11.2016 07:03 4,2 °C 4,2 °C 94 % 999,3 hPa 0,0 mm 0,0 km/h (0 Bft) NW 318 ° 0 min 0,000 mm 0,0 UV-I 0 W/m² 3,3 °C 0,0 km/h (0 Bft)
06.11.2016 07:04 4,2 °C 4,2 °C 94 % 999,4 hPa 0,0 mm 0,0 km/h (0 Bft) NW 318 ° 0 min 0,000 mm 0,0 UV-I 0 W/m² 3,3 °C 0,0 km/h (0 Bft)
06.11.2016 07:05 4,2 °C 4,2 °C 94 % 999,4 hPa 0,0 mm 0,0 km/h (0 Bft) NW 318 ° 0 min 0,000 mm 0,0 UV-I 0 W/m² 3,3 °C 0,0 km/h (0 Bft)
06.11.2016 07:06 4,2 °C 4,2 °C 94 % 999,5 hPa 0,0 mm 1,7 km/h (1 Bft) NW 318 ° 0 min 0,000 mm 0,0 UV-I 0 W/m² 3,3 °C 3,2 km/h (1 Bft)
06.11.2016 07:07 4,2 °C 4,2 °C 94 % 999,5 hPa 0,2 mm 4,0 km/h (1 Bft) NW 317 ° 0 min 0,000 mm 0,0 UV-I 0 W/m² 3,3 °C 4,8 km/h (1 Bft)
06.11.2016 07:08 4,2 °C 4,2 °C 94 % 999,5 hPa 0,0 mm 3,2 km/h (1 Bft) NW 317 ° 0 min 0,000 mm 0,0 UV-I 0 W/m² 3,3 °C 3,2 km/h (1 Bft)
06.11.2016 07:09 4,2 °C 4,2 °C 94 % 999,5 hPa 0,0 mm 4,8 km/h (1 Bft) W-NW 300 ° 0 min 0,000 mm 0,0 UV-I 0 W/m² 3,3 °C 8,0 km/h (2 Bft)
06.11.2016 07:10 4,2 °C 4,2 °C 94 % 999,5 hPa 0,0 mm 6,2 km/h (2 Bft) NW 310 ° 0 min 0,000 mm 0,0 UV-I 0 W/m² 3,3 °C 8,0 km/h (2 Bft)
06.11.2016 07:11 4,2 °C 4,2 °C 94 % 999,5 hPa 0,0 mm 6,4 km/h (2 Bft) W-NW 292 ° 0 min 0,000 mm 0,0 UV-I 0 W/m² 3,3 °C 8,0 km/h (2 Bft)
06.11.2016 07:12 4,2 °C 4,2 °C 94 % 999,5 hPa 0,0 mm 6,2 km/h (2 Bft) NW 319 ° 0 min 0,000 mm 0,0 UV-I 0 W/m² 3,3 °C 8,0 km/h (2 Bft)
06.11.2016 07:13 4,2 °C 4,2 °C 94 % 999,5 hPa 0,0 mm 6,7 km/h (2 Bft) NW 309 ° 0 min 0,000 mm 0,0 UV-I 0 W/m² 3,3 °C 9,7 km/h (2 Bft)
06.11.2016 07:14 4,1 °C 4,2 °C 94 % 999,6 hPa 0,2 mm 7,4 km/h (2 Bft) NW 308 ° 0 min 0,000 mm 0,0 UV-I 0 W/m² 3,2 °C 11,3 km/h (2 Bft)
06.11.2016 07:15 4,1 °C 4,2 °C 94 % 999,5 hPa 0,0 mm 6,4 km/h (2 Bft) NW 308 ° 0 min 0,000 mm 0,0 UV-I 0 W/m² 3,2 °C 9,7 km/h (2 Bft)
06.11.2016 07:16 4,1 °C 4,1 °C 94 % 999,5 hPa 0,0 mm 5,1 km/h (1 Bft) NW 309 ° 0 min 0,000 mm 0,0 UV-I 0 W/m² 3,2 °C 6,4 km/h (2 Bft)
06.11.2016 07:17 4,1 °C 4,1 °C 94 % 999,4 hPa 0,0 mm 3,9 km/h (1 Bft) NW 312 ° 0 min 0,000 mm 0,0 UV-I 0 W/m² 3,2 °C 4,8 km/h (1 Bft)
06.11.2016 07:18 4,1 °C 4,1 °C 94 % 999,5 hPa 0,0 mm 4,1 km/h (1 Bft) NW 313 ° 0 min 0,000 mm 0,0 UV-I 0 W/m² 3,2 °C 4,8 km/h (1 Bft)
06.11.2016 07:19 4,1 °C 4,1 °C 94 % 999,5 hPa 0,0 mm 4,5 km/h (1 Bft) NW 313 ° 0 min 0,000 mm 0,0 UV-I 0 W/m² 3,2 °C 6,4 km/h (2 Bft)
06.11.2016 07:20 4,0 °C 4,1 °C 94 % 999,4 hPa 0,0 mm 3,3 km/h (1 Bft) W-NW 294 ° 0 min 0,000 mm 0,0 UV-I 0 W/m² 3,1 °C 4,8 km/h (1 Bft)
06.11.2016 07:21 4,0 °C 4,0 °C 94 % 999,4 hPa 0,2 mm 3,7 km/h (1 Bft) NW 313 ° 0 min 0,000 mm 0,0 UV-I 0 W/m² 3,1 °C 4,8 km/h (1 Bft)
06.11.2016 07:22 4,0 °C 4,0 °C 94 % 999,5 hPa 0,0 mm 2,6 km/h (1 Bft) NW 311 ° 0 min 0,000 mm 0,0 UV-I 0 W/m² 3,1 °C 3,2 km/h (1 Bft)
06.11.2016 07:23 4,0 °C 4,0 °C 94 % 999,5 hPa 0,0 mm 2,1 km/h (1 Bft) NW 311 ° 0 min 0,000 mm 0,0 UV-I 0 W/m² 3,1 °C 3,2 km/h (1 Bft)
06.11.2016 07:24 3,9 °C 4,0 °C 94 % 999,5 hPa 0,2 mm 3,6 km/h (1 Bft) NW 318 ° 0 min 0,000 mm 0,0 UV-I 0 W/m² 3,0 °C 4,8 km/h (1 Bft)
06.11.2016 07:25 3,9 °C 3,9 °C 94 % 999,5 hPa 0,0 mm 1,6 km/h (1 Bft) NW 318 ° 0 min 0,000 mm 0,0 UV-I 0 W/m² 3,0 °C 3,2 km/h (1 Bft)
06.11.2016 07:26 3,9 °C 3,9 °C 94 % 999,7 hPa 0,0 mm 2,9 km/h (1 Bft) NW 317 ° 0 min 0,000 mm 0,0 UV-I 0 W/m² 3,0 °C 3,2 km/h (1 Bft)
06.11.2016 07:27 3,9 °C 3,9 °C 93 % 999,7 hPa 0,0 mm 3,4 km/h (1 Bft) NW 311 ° 0 min 0,000 mm 0,0 UV-I 0 W/m² 2,9 °C 4,8 km/h (1 Bft)
06.11.2016 07:28 3,9 °C 3,9 °C 93 % 999,7 hPa 0,2 mm 3,1 km/h (1 Bft) W-NW 290 ° 0 min 0,000 mm 0,0 UV-I 0 W/m² 2,9 °C 4,8 km/h (1 Bft)
06.11.2016 07:29 3,9 °C 3,9 °C 93 % 999,8 hPa 0,0 mm 2,2 km/h (1 Bft) W-NW 289 ° 0 min 0,000 mm 0,0 UV-I 0 W/m² 2,9 °C 4,8 km/h (1 Bft)
06.11.2016 07:30 3,9 °C 3,9 °C 93 % 999,8 hPa 0,0 mm 3,1 km/h (1 Bft) NW 307 ° 0 min 0,000 mm 0,0 UV-I 0 W/m² 2,9 °C 4,8 km/h (1 Bft)
06.11.2016 07:31 3,9 °C 3,9 °C 93 % 999,8 hPa 0,0 mm 2,7 km/h (1 Bft) NW 307 ° 0 min 0,000 mm 0,0 UV-I 0 W/m² 2,9 °C 4,8 km/h (1 Bft)
06.11.2016 07:32 3,8 °C 3,9 °C 93 % 999,8 hPa 0,0 mm 2,2 km/h (1 Bft) W-NW 285 ° 0 min 0,000 mm 0,0 UV-I 0 W/m² 2,8 °C 4,8 km/h (1 Bft)
06.11.2016 07:33 3,8 °C 3,8 °C 93 % 999,8 hPa 0,2 mm 2,2 km/h (1 Bft) W-NW 285 ° 0 min 0,000 mm 0,0 UV-I 0 W/m² 2,8 °C 3,2 km/h (1 Bft)
06.11.2016 07:34 3,9 °C 3,9 °C 94 % 999,8 hPa 0,0 mm 3,8 km/h (1 Bft) W-SW 256 ° 0 min 0,000 mm 0,0 UV-I 0 W/m² 3,0 °C 4,8 km/h (1 Bft)
06.11.2016 07:35 3,8 °C 3,9 °C 94 % 999,8 hPa 0,0 mm 5,0 km/h (1 Bft) W-NW 296 ° 0 min 0,000 mm 0,0 UV-I 5 W/m² 2,9 °C 6,4 km/h (2 Bft)
06.11.2016 07:36 3,8 °C 3,8 °C 94 % 999,9 hPa 0,0 mm 5,5 km/h (1 Bft) W-NW 296 ° 0 min 0,000 mm 0,0 UV-I 5 W/m² 2,9 °C 8,0 km/h (2 Bft)
06.11.2016 07:37 3,8 °C 3,8 °C 94 % 1000,0 hPa 0,0 mm 8,4 km/h (2 Bft) W 262 ° 0 min 0,000 mm 0,0 UV-I 5 W/m² 2,9 °C 11,3 km/h (2 Bft)
06.11.2016 07:38 3,8 °C 3,8 °C 93 % 1000,0 hPa 0,2 mm 8,8 km/h (2 Bft) W-SW 249 ° 0 min 0,000 mm 0,0 UV-I 5 W/m² 2,8 °C 14,5 km/h (3 Bft)
06.11.2016 07:39 3,7 °C 3,8 °C 93 % 1000,0 hPa 0,0 mm 5,4 km/h (1 Bft) W-NW 284 ° 0 min 0,000 mm 0,0 UV-I 5 W/m² 2,7 °C 9,7 km/h (2 Bft)
06.11.2016 07:40 3,7 °C 3,8 °C 93 % 1000,1 hPa 0,0 mm 5,4 km/h (1 Bft) W 269 ° 0 min 0,000 mm 0,0 UV-I 5 W/m² 2,7 °C 11,3 km/h (2 Bft)
06.11.2016 07:41 3,7 °C 3,7 °C 93 % 1000,1 hPa 0,0 mm 6,4 km/h (2 Bft) W-SW 254 ° 0 min 0,000 mm 0,0 UV-I 5 W/m² 2,7 °C 9,7 km/h (2 Bft)
06.11.2016 07:42 3,7 °C 3,7 °C 93 % 1000,1 hPa 0,0 mm 6,6 km/h (2 Bft) W-SW 238 ° 0 min 0,000 mm 0,0 UV-I 5 W/m² 2,7 °C 11,3 km/h (2 Bft)
06.11.2016 07:43 3,6 °C 3,7 °C 93 % 1000,1 hPa 0,2 mm 8,0 km/h (2 Bft) W 263 ° 0 min 0,000 mm 0,0 UV-I 5 W/m² 2,6 °C 12,9 km/h (3 Bft)
06.11.2016 07:44 3,6 °C 3,6 °C 92 % 1000,2 hPa 0,0 mm 5,9 km/h (2 Bft) W-SW 249 ° 0 min 0,000 mm 0,0 UV-I 5 W/m² 2,4 °C 12,9 km/h (3 Bft)
06.11.2016 07:45 3,6 °C 3,6 °C 92 % 1000,2 hPa 0,0 mm 8,3 km/h (2 Bft) W-NW 285 ° 0 min 0,000 mm 0,0 UV-I 5 W/m² 2,4 °C 12,9 km/h (3 Bft)
06.11.2016 07:46 3,5 °C 3,6 °C 92 % 1000,3 hPa 0,0 mm 10,3 km/h (2 Bft) W-NW 282 ° 0 min 0,000 mm 0,0 UV-I 5 W/m² 2,3 °C 14,5 km/h (3 Bft)
06.11.2016 07:47 3,5 °C 3,5 °C 92 % 1000,3 hPa 0,0 mm 8,8 km/h (2 Bft) W-SW 252 ° 0 min 0,000 mm 0,0 UV-I 5 W/m² 2,3 °C 11,3 km/h (2 Bft)
06.11.2016 07:48 3,4 °C 3,5 °C 92 % 1000,3 hPa 0,2 mm 7,6 km/h (2 Bft) W 269 ° 0 min 0,000 mm 0,0 UV-I 5 W/m² 2,2 °C 11,3 km/h (2 Bft)
06.11.2016 07:49 3,4 °C 3,4 °C 92 % 1000,4 hPa 0,0 mm 6,8 km/h (2 Bft) W 277 ° 0 min 0,000 mm 0,0 UV-I 5 W/m² 2,2 °C 14,5 km/h (3 Bft)
06.11.2016 07:50 3,3 °C 3,4 °C 92 % 1000,4 hPa 0,0 mm 7,0 km/h (2 Bft) NW 315 ° 0 min 0,000 mm 0,0 UV-I 7 W/m² 2,1 °C 9,7 km/h (2 Bft)
06.11.2016 07:51 3,3 °C 3,3 °C 92 % 1000,4 hPa 0,0 mm 5,3 km/h (1 Bft) W 273 ° 0 min 0,000 mm 0,0 UV-I 7 W/m² 2,1 °C 8,0 km/h (2 Bft)
06.11.2016 07:52 3,3 °C 3,3 °C 92 % 1000,4 hPa 0,2 mm 4,8 km/h (1 Bft) W 279 ° 0 min 0,000 mm 0,0 UV-I 7 W/m² 2,1 °C 6,4 km/h (2 Bft)
06.11.2016 07:53 3,3 °C 3,3 °C 92 % 1000,4 hPa 0,0 mm 3,8 km/h (1 Bft) W 276 ° 0 min 0,000 mm 0,0 UV-I 7 W/m² 2,1 °C 6,4 km/h (2 Bft)
06.11.2016 07:54 3,3 °C 3,3 °C 92 % 1000,4 hPa 0,0 mm 5,7 km/h (1 Bft) W-NW 302 ° 0 min 0,000 mm 0,0 UV-I 9 W/m² 2,1 °C 11,3 km/h (2 Bft)
06.11.2016 07:55 3,2 °C 3,3 °C 92 % 1000,5 hPa 0,0 mm 4,4 km/h (1 Bft) NW 315 ° 0 min 0,000 mm 0,0 UV-I 9 W/m² 2,0 °C 9,7 km/h (2 Bft)
06.11.2016 07:56 3,2 °C 3,2 °C 92 % 1000,4 hPa 0,0 mm 4,0 km/h (1 Bft) NW 317 ° 0 min 0,000 mm 0,0 UV-I 11 W/m² 2,0 °C 6,4 km/h (2 Bft)
06.11.2016 07:57 3,2 °C 3,2 °C 92 % 1000,4 hPa 0,0 mm 3,4 km/h (1 Bft) W-NW 290 ° 0 min 0,000 mm 0,0 UV-I 12 W/m² 2,0 °C 4,8 km/h (1 Bft)
06.11.2016 07:58 3,2 °C 3,2 °C 92 % 1000,5 hPa 0,2 mm 6,7 km/h (2 Bft) W 268 ° 0 min 0,000 mm 0,0 UV-I 12 W/m² 2,0 °C 14,5 km/h (3 Bft)
06.11.2016 07:59 3,2 °C 3,2 °C 92 % 1000,5 hPa 0,0 mm 5,5 km/h (1 Bft) W-NW 295 ° 0 min 0,000 mm 0,0 UV-I 12 W/m² 2,0 °C 11,3 km/h (2 Bft)
06.11.2016 08:00 3,1 °C 3,2 °C 92 % 1000,5 hPa 0,0 mm 6,4 km/h (2 Bft) W 275 ° 0 min 0,000 mm 0,0 UV-I 12 W/m² 1,9 °C 11,3 km/h (2 Bft)
06.11.2016 08:01 3,1 °C 3,1 °C 92 % 1000,5 hPa 0,0 mm 4,8 km/h (1 Bft) W-NW 298 ° 0 min 0,000 mm 0,0 UV-I 11 W/m² 1,9 °C 9,7 km/h (2 Bft)
06.11.2016 08:02 3,1 °C 3,1 °C 92 % 1000,5 hPa 0,2 mm 4,6 km/h (1 Bft) W-NW 298 ° 0 min 0,000 mm 0,0 UV-I 12 W/m² 1,9 °C 6,4 km/h (2 Bft)
06.11.2016 08:03 3,1 °C 3,1 °C 92 % 1000,5 hPa 0,0 mm 4,2 km/h (1 Bft) W-NW 294 ° 0 min 0,000 mm 0,0 UV-I 11 W/m² 1,9 °C 6,4 km/h (2 Bft)
06.11.2016 08:04 3,0 °C 3,1 °C 92 % 1000,6 hPa 0,0 mm 4,5 km/h (1 Bft) W-SW 251 ° 0 min 0,000 mm 0,0 UV-I 11 W/m² 1,8 °C 6,4 km/h (2 Bft)
06.11.2016 08:05 2,9 °C 3,0 °C 92 % 1000,7 hPa 0,0 mm 5,7 km/h (1 Bft) NW 305 ° 0 min 0,000 mm 0,0 UV-I 12 W/m² 1,7 °C 6,4 km/h (2 Bft)
06.11.2016 08:06 2,9 °C 3,0 °C 92 % 1000,7 hPa 0,0 mm 6,1 km/h (2 Bft) W 277 ° 0 min 0,000 mm 0,0 UV-I 12 W/m² 1,7 °C 11,3 km/h (2 Bft)
06.11.2016 08:07 2,9 °C 2,9 °C 92 % 1000,7 hPa 0,2 mm 8,8 km/h (2 Bft) W 261 ° 0 min 0,000 mm 0,0 UV-I 12 W/m² 1,7 °C 11,3 km/h (2 Bft)
06.11.2016 08:08 2,9 °C 2,9 °C 92 % 1000,7 hPa 0,0 mm 8,5 km/h (2 Bft) W-NW 289 ° 0 min 0,000 mm 0,0 UV-I 14 W/m² 1,7 °C 14,5 km/h (3 Bft)
06.11.2016 08:09 2,9 °C 2,9 °C 92 % 1000,7 hPa 0,0 mm 7,8 km/h (2 Bft) NW 315 ° 0 min 0,000 mm 0,0 UV-I 14 W/m² 1,7 °C 11,3 km/h (2 Bft)
06.11.2016 08:10 2,8 °C 2,9 °C 92 % 1000,7 hPa 0,0 mm 6,8 km/h (2 Bft) NW 324 ° 0 min 0,000 mm 0,0 UV-I 16 W/m² 1,6 °C 11,3 km/h (2 Bft)
06.11.2016 08:11 2,8 °C 2,8 °C 92 % 1000,7 hPa 0,2 mm 4,5 km/h (1 Bft) NW 323 ° 0 min 0,000 mm 0,0 UV-I 16 W/m² 1,6 °C 8,0 km/h (2 Bft)
06.11.2016 08:12 2,8 °C 2,8 °C 92 % 1000,7 hPa 0,0 mm 4,5 km/h (1 Bft) W 267 ° 0 min 0,000 mm 0,0 UV-I 18 W/m² 1,6 °C 9,7 km/h (2 Bft)
06.11.2016 08:13 2,8 °C 2,8 °C 92 % 1000,7 hPa 0,0 mm 5,4 km/h (1 Bft) W 275 ° 0 min 0,000 mm 0,0 UV-I 19 W/m² 1,6 °C 9,7 km/h (2 Bft)
06.11.2016 08:14 2,7 °C 2,8 °C 92 % 1000,7 hPa 0,0 mm 9,9 km/h (2 Bft) W-NW 293 ° 0 min 0,000 mm 0,0 UV-I 21 W/m² 1,5 °C 14,5 km/h (3 Bft)
06.11.2016 08:15 2,7 °C 2,7 °C 92 % 1000,7 hPa 0,0 mm 5,8 km/h (2 Bft) W 275 ° 0 min 0,000 mm 0,0 UV-I 21 W/m² 1,5 °C 8,0 km/h (2 Bft)
06.11.2016 08:16 2,7 °C 2,7 °C 92 % 1000,7 hPa 0,2 mm 7,1 km/h (2 Bft) NW 312 ° 0 min 0,000 mm 0,0 UV-I 19 W/m² 1,5 °C 9,7 km/h (2 Bft)
06.11.2016 08:17 2,6 °C 2,7 °C 92 % 1000,7 hPa 0,0 mm 4,8 km/h (1 Bft) W 270 ° 0 min 0,000 mm 0,0 UV-I 19 W/m² 1,4 °C 6,4 km/h (2 Bft)
06.11.2016 08:18 2,6 °C 2,6 °C 92 % 1000,7 hPa 0,0 mm 7,5 km/h (2 Bft) W 273 ° 0 min 0,000 mm 0,0 UV-I 19 W/m² 1,4 °C 11,3 km/h (2 Bft)
06.11.2016 08:19 2,6 °C 2,6 °C 92 % 1000,7 hPa 0,2 mm 4,3 km/h (1 Bft) W-NW 301 ° 0 min 0,000 mm 0,0 UV-I 18 W/m² 1,4 °C 4,8 km/h (1 Bft)
06.11.2016 08:20 2,5 °C 2,6 °C 92 % 1000,8 hPa 0,0 mm 3,7 km/h (1 Bft) W-NW 288 ° 0 min 0,000 mm 0,0 UV-I 16 W/m² 1,3 °C 6,4 km/h (2 Bft)
06.11.2016 08:21 2,4 °C 2,5 °C 92 % 1000,8 hPa 0,0 mm 2,5 km/h (1 Bft) W-NW 294 ° 0 min 0,000 mm 0,0 UV-I 16 W/m² 1,2 °C 4,8 km/h (1 Bft)
06.11.2016 08:22 2,4 °C 2,4 °C 92 % 1000,8 hPa 0,0 mm 3,2 km/h (1 Bft) W 272 ° 0 min 0,000 mm 0,0 UV-I 16 W/m² 1,2 °C 4,8 km/h (1 Bft)
06.11.2016 08:23 2,3 °C 2,4 °C 92 % 1000,8 hPa 0,2 mm 3,0 km/h (1 Bft) NW 306 ° 0 min 0,000 mm 0,0 UV-I 14 W/m² 1,1 °C 4,8 km/h (1 Bft)
06.11.2016 08:24 2,3 °C 2,4 °C 92 % 1000,8 hPa 0,0 mm 4,5 km/h (1 Bft) W-NW 300 ° 0 min 0,000 mm 0,0 UV-I 14 W/m² 1,1 °C 6,4 km/h (2 Bft)
06.11.2016 08:25 2,3 °C 2,3 °C 92 % 1000,8 hPa 0,0 mm 3,2 km/h (1 Bft) W-NW 300 ° 0 min 0,000 mm 0,0 UV-I 16 W/m² 1,1 °C 4,8 km/h (1 Bft)
06.11.2016 08:26 2,3 °C 2,3 °C 92 % 1000,8 hPa 0,0 mm 1,7 km/h (1 Bft) W-NW 299 ° 0 min 0,000 mm 0,0 UV-I 14 W/m² 1,1 °C 3,2 km/h (1 Bft)
06.11.2016 08:27 2,3 °C 2,3 °C 92 % 1000,8 hPa 0,0 mm 2,0 km/h (1 Bft) W 262 ° 0 min 0,000 mm 0,0 UV-I 16 W/m² 1,1 °C 4,8 km/h (1 Bft)
06.11.2016 08:28 2,3 °C 2,3 °C 92 % 1000,8 hPa 0,2 mm 4,2 km/h (1 Bft) W-NW 293 ° 0 min 0,000 mm 0,0 UV-I 16 W/m² 1,1 °C 6,4 km/h (2 Bft)
06.11.2016 08:29 2,2 °C 2,3 °C 92 % 1000,8 hPa 0,0 mm 4,3 km/h (1 Bft) W-NW 284 ° 0 min 0,000 mm 0,0 UV-I 16 W/m² 1,0 °C 9,7 km/h (2 Bft)
06.11.2016 08:30 2,2 °C 2,2 °C 91 % 1000,8 hPa 0,0 mm 3,0 km/h (1 Bft) W 265 ° 0 min 0,000 mm 0,0 UV-I 16 W/m² 0,9 °C 4,8 km/h (1 Bft)
06.11.2016 08:31 2,2 °C 2,2 °C 91 % 1000,8 hPa 0,0 mm 4,8 km/h (1 Bft) W 265 ° 0 min 0,000 mm 0,0 UV-I 18 W/m² 0,9 °C 6,4 km/h (2 Bft)
06.11.2016 08:32 2,1 °C 2,2 °C 91 % 1000,8 hPa 0,0 mm 3,0 km/h (1 Bft) W 270 ° 0 min 0,000 mm 0,0 UV-I 18 W/m² 0,8 °C 4,8 km/h (1 Bft)
06.11.2016 08:33 2,1 °C 2,1 °C 91 % 1000,8 hPa 0,0 mm 2,4 km/h (1 Bft) W-NW 299 ° 0 min 0,000 mm 0,0 UV-I 19 W/m² 0,8 °C 3,2 km/h (1 Bft)
06.11.2016 08:34 2,1 °C 2,1 °C 91 % 1000,8 hPa 0,0 mm 3,2 km/h (1 Bft) W-NW 291 ° 0 min 0,000 mm 0,0 UV-I 19 W/m² 0,8 °C 4,8 km/h (1 Bft)
06.11.2016 08:35 2,0 °C 2,1 °C 91 % 1000,8 hPa 0,0 mm 2,0 km/h (1 Bft) W 273 ° 0 min 0,000 mm 0,0 UV-I 19 W/m² 0,7 °C 4,8 km/h (1 Bft)
06.11.2016 08:36 1,9 °C 2,1 °C 91 % 1000,8 hPa 0,0 mm 3,4 km/h (1 Bft) W 275 ° 0 min 0,000 mm 0,0 UV-I 21 W/m² 0,6 °C 4,8 km/h (1 Bft)
06.11.2016 08:37 1,9 °C 1,9 °C 91 % 1000,8 hPa 0,0 mm 2,0 km/h (1 Bft) W 275 ° 0 min 0,000 mm 0,0 UV-I 19 W/m² 0,6 °C 4,8 km/h (1 Bft)
06.11.2016 08:38 1,9 °C 1,9 °C 91 % 1000,8 hPa 0,0 mm 1,8 km/h (1 Bft) W 275 ° 0 min 0,000 mm 0,0 UV-I 19 W/m² 0,6 °C 3,2 km/h (1 Bft)
06.11.2016 08:39 1,9 °C 1,9 °C 91 % 1000,9 hPa 0,0 mm 3,0 km/h (1 Bft) W 269 ° 0 min 0,000 mm 0,0 UV-I 19 W/m² 0,6 °C 4,8 km/h (1 Bft)
06.11.2016 08:40 1,8 °C 1,9 °C 91 % 1000,9 hPa 0,0 mm 2,1 km/h (1 Bft) W 269 ° 0 min 0,000 mm 0,0 UV-I 19 W/m² 0,5 °C 3,2 km/h (1 Bft)
06.11.2016 08:41 1,8 °C 1,8 °C 91 % 1000,9 hPa 0,0 mm 2,9 km/h (1 Bft) W 269 ° 0 min 0,000 mm 0,0 UV-I 18 W/m² 0,5 °C 3,2 km/h (1 Bft)
06.11.2016 08:42 1,8 °C 1,8 °C 91 % 1000,9 hPa 0,0 mm 3,1 km/h (1 Bft) W 269 ° 0 min 0,000 mm 0,0 UV-I 18 W/m² 0,5 °C 4,8 km/h (1 Bft)
06.11.2016 08:43 1,8 °C 1,8 °C 91 % 1001,0 hPa 0,0 mm 3,1 km/h (1 Bft) W-SW 242 ° 0 min 0,000 mm 0,0 UV-I 16 W/m² 0,5 °C 4,8 km/h (1 Bft)
06.11.2016 08:44 1,7 °C 1,8 °C 91 % 1001,0 hPa 0,0 mm 2,9 km/h (1 Bft) W-SW 242 ° 0 min 0,000 mm 0,0 UV-I 16 W/m² 0,4 °C 4,8 km/h (1 Bft)
06.11.2016 08:45 1,7 °C 1,8 °C 91 % 1001,1 hPa 0,0 mm 1,6 km/h (1 Bft) W-SW 242 ° 0 min 0,000 mm 0,0 UV-I 14 W/m² 0,4 °C 3,2 km/h (1 Bft)
06.11.2016 08:46 1,7 °C 1,7 °C 91 % 1001,2 hPa 0,0 mm 3,4 km/h (1 Bft) W-SW 248 ° 0 min 0,000 mm 0,0 UV-I 12 W/m² 0,4 °C 4,8 km/h (1 Bft)
06.11.2016 08:47 1,7 °C 1,7 °C 91 % 1001,2 hPa 0,0 mm 3,6 km/h (1 Bft) W-SW 242 ° 0 min 0,000 mm 0,0 UV-I 12 W/m² 0,4 °C 4,8 km/h (1 Bft)
06.11.2016 08:48 1,7 °C 1,7 °C 91 % 1001,2 hPa 0,0 mm 3,1 km/h (1 Bft) W-SW 242 ° 0 min 0,000 mm 0,0 UV-I 12 W/m² 0,4 °C 4,8 km/h (1 Bft)
06.11.2016 08:49 1,6 °C 1,7 °C 91 % 1001,2 hPa 0,0 mm 2,1 km/h (1 Bft) W-SW 242 ° 0 min 0,000 mm 0,0 UV-I 12 W/m² 0,3 °C 3,2 km/h (1 Bft)
06.11.2016 08:50 1,6 °C 1,6 °C 91 % 1001,2 hPa 0,0 mm 2,2 km/h (1 Bft) W-SW 242 ° 0 min 0,000 mm 0,0 UV-I 11 W/m² 0,3 °C 3,2 km/h (1 Bft)
06.11.2016 08:51 1,6 °C 1,6 °C 91 % 1001,1 hPa 0,0 mm 1,7 km/h (1 Bft) W-SW 242 ° 0 min 0,000 mm 0,0 UV-I 12 W/m² 0,3 °C 3,2 km/h (1 Bft)
06.11.2016 08:52 1,6 °C 1,6 °C 91 % 1000,8 hPa 0,0 mm 1,7 km/h (1 Bft) W-SW 242 ° 0 min 0,000 mm 0,0 UV-I 12 W/m² 0,3 °C 3,2 km/h (1 Bft)
06.11.2016 08:53 1,5 °C 1,6 °C 91 % 1000,8 hPa 0,0 mm 0,1 km/h (0 Bft) W-SW 242 ° 0 min 0,000 mm 0,0 UV-I 12 W/m² 0,2 °C 1,6 km/h (1 Bft)
06.11.2016 08:54 1,4 °C 1,5 °C 91 % 1000,6 hPa 0,0 mm 0,0 km/h (0 Bft) W-SW 242 ° 0 min 0,000 mm 0,0 UV-I 12 W/m² 0,1 °C 0,0 km/h (0 Bft)
06.11.2016 08:55 1,4 °C 1,5 °C 91 % 1000,6 hPa 0,0 mm 0,0 km/h (0 Bft) W-SW 242 ° 0 min 0,000 mm 0,0 UV-I 12 W/m² 0,1 °C 0,0 km/h (0 Bft)
06.11.2016 08:56 1,4 °C 1,4 °C 91 % 1000,7 hPa 0,0 mm 1,8 km/h (1 Bft) W-SW 242 ° 0 min 0,000 mm 0,0 UV-I 12 W/m² 0,1 °C 3,2 km/h (1 Bft)
06.11.2016 08:57 1,4 °C 1,4 °C 91 % 1000,8 hPa 0,0 mm 2,2 km/h (1 Bft) W-SW 242 ° 0 min 0,000 mm 0,0 UV-I 12 W/m² 0,1 °C 3,2 km/h (1 Bft)
06.11.2016 08:58 1,3 °C 1,4 °C 91 % 1000,9 hPa 0,0 mm 1,4 km/h (1 Bft) W-SW 242 ° 0 min 0,000 mm 0,0 UV-I 11 W/m² -0,0 °C 3,2 km/h (1 Bft)
06.11.2016 08:59 1,3 °C 1,3 °C 92 % 1000,9 hPa 0,0 mm 1,5 km/h (1 Bft) W-SW 244 ° 0 min 0,000 mm 0,0 UV-I 11 W/m² 0,1 °C 3,2 km/h (1 Bft)
06.11.2016 09:00 1,3 °C 1,3 °C 92 % 1000,9 hPa 0,0 mm 1,1 km/h (1 Bft) W-SW 244 ° 0 min 0,000 mm 0,0 UV-I 12 W/m² 0,1 °C 1,6 km/h (1 Bft)
06.11.2016 09:01 1,3 °C 1,3 °C 92 % 1000,9 hPa 0,0 mm 1,9 km/h (1 Bft) W-SW 244 ° 0 min 0,000 mm 0,0 UV-I 12 W/m² 0,1 °C 4,8 km/h (1 Bft)
06.11.2016 09:02 1,2 °C 1,3 °C 91 % 1000,9 hPa 0,0 mm 1,6 km/h (1 Bft) W-SW 244 ° 0 min 0,000 mm 0,0 UV-I 12 W/m² -0,1 °C 3,2 km/h (1 Bft)
06.11.2016 09:03 1,2 °C 1,2 °C 92 % 1000,9 hPa 0,0 mm 1,9 km/h (1 Bft) W-SW 244 ° 0 min 0,000 mm 0,0 UV-I 12 W/m² 0,0 °C 3,2 km/h (1 Bft)
06.11.2016 09:04 1,2 °C 1,2 °C 92 % 1000,9 hPa 0,0 mm 3,4 km/h (1 Bft) W-SW 244 ° 0 min 0,000 mm 0,0 UV-I 12 W/m² 0,0 °C 4,8 km/h (1 Bft)
06.11.2016 09:05 1,1 °C 1,2 °C 92 % 1000,9 hPa 0,0 mm 2,6 km/h (1 Bft) W-SW 244 ° 0 min 0,000 mm 0,0 UV-I 12 W/m² -0,1 °C 3,2 km/h (1 Bft)
06.11.2016 09:06 1,1 °C 1,1 °C 92 % 1000,9 hPa 0,0 mm 2,8 km/h (1 Bft) W-SW 244 ° 0 min 0,000 mm 0,0 UV-I 12 W/m² -0,1 °C 4,8 km/h (1 Bft)
06.11.2016 09:07 1,1 °C 1,1 °C 92 % 1000,9 hPa 0,0 mm 1,7 km/h (1 Bft) W-SW 244 ° 0 min 0,000 mm 0,0 UV-I 11 W/m² -0,1 °C 3,2 km/h (1 Bft)
06.11.2016 09:08 1,1 °C 1,1 °C 92 % 1001,0 hPa 0,0 mm 1,6 km/h (1 Bft) W-SW 244 ° 0 min 0,000 mm 0,0 UV-I 11 W/m² -0,1 °C 3,2 km/h (1 Bft)
06.11.2016 09:09 1,1 °C 1,1 °C 92 % 1001,0 hPa 0,0 mm 1,0 km/h (0 Bft) W-SW 244 ° 0 min 0,000 mm 0,0 UV-I 11 W/m² -0,1 °C 1,6 km/h (1 Bft)
06.11.2016 09:10 1,1 °C 1,1 °C 92 % 1001,0 hPa 0,0 mm 1,3 km/h (1 Bft) W-SW 244 ° 0 min 0,000 mm 0,0 UV-I 11 W/m² -0,1 °C 3,2 km/h (1 Bft)
06.11.2016 09:11 1,0 °C 1,1 °C 92 % 1001,0 hPa 0,0 mm 1,1 km/h (1 Bft) W-SW 244 ° 0 min 0,000 mm 0,0 UV-I 11 W/m² -0,2 °C 1,6 km/h (1 Bft)
06.11.2016 09:12 1,0 °C 1,0 °C 92 % 1000,9 hPa 0,0 mm 0,5 km/h (0 Bft) W-SW 244 ° 0 min 0,000 mm 0,0 UV-I 14 W/m² -0,2 °C 1,6 km/h (1 Bft)
06.11.2016 09:13 1,0 °C 1,0 °C 92 % 1000,9 hPa 0,0 mm 1,5 km/h (1 Bft) W-SW 244 ° 0 min 0,000 mm 0,0 UV-I 14 W/m² -0,2 °C 1,6 km/h (1 Bft)
06.11.2016 09:14 1,0 °C 1,0 °C 92 % 1000,9 hPa 0,0 mm 0,1 km/h (0 Bft) W-SW 244 ° 0 min 0,000 mm 0,0 UV-I 18 W/m² -0,2 °C 1,6 km/h (1 Bft)
06.11.2016 09:15 0,9 °C 1,0 °C 92 % 1000,9 hPa 0,0 mm 0,0 km/h (0 Bft) W-SW 244 ° 0 min 0,000 mm 0,0 UV-I 18 W/m² -0,2 °C 0,0 km/h (0 Bft)
06.11.2016 09:16 0,9 °C 1,0 °C 92 % 1000,9 hPa 0,0 mm 0,0 km/h (0 Bft) W-SW 244 ° 0 min 0,000 mm 0,0 UV-I 19 W/m² -0,2 °C 0,0 km/h (0 Bft)
06.11.2016 09:17 0,9 °C 1,0 °C 92 % 1001,0 hPa 0,0 mm 0,0 km/h (0 Bft) W-SW 244 ° 0 min 0,000 mm 0,0 UV-I 21 W/m² -0,2 °C 0,0 km/h (0 Bft)
06.11.2016 09:18 0,9 °C 0,9 °C 92 % 1001,0 hPa 0,0 mm 0,0 km/h (0 Bft) W-SW 244 ° 0 min 0,000 mm 0,0 UV-I 21 W/m² -0,2 °C 0,0 km/h (0 Bft)
06.11.2016 09:19 0,9 °C 1,0 °C 92 % 1001,0 hPa 0,0 mm 0,0 km/h (0 Bft) W-SW 244 ° 0 min 0,000 mm 0,0 UV-I 23 W/m² -0,2 °C 0,0 km/h (0 Bft)
06.11.2016 09:20 0,9 °C 0,9 °C 93 % 1001,0 hPa 0,0 mm 0,1 km/h (0 Bft) W-SW 244 ° 0 min 0,000 mm 0,0 UV-I 23 W/m² -0,1 °C 1,6 km/h (1 Bft)
06.11.2016 09:21 0,9 °C 0,9 °C 93 % 1001,0 hPa 0,0 mm 0,6 km/h (0 Bft) W-SW 244 ° 0 min 0,000 mm 0,0 UV-I 23 W/m² -0,1 °C 1,6 km/h (1 Bft)
06.11.2016 09:22 0,9 °C 0,9 °C 93 % 1001,0 hPa 0,0 mm 1,6 km/h (1 Bft) W-SW 244 ° 0 min 0,000 mm 0,0 UV-I 23 W/m² -0,1 °C 3,2 km/h (1 Bft)
06.11.2016 09:23 0,9 °C 0,9 °C 92 % 1001,0 hPa 0,0 mm 0,6 km/h (0 Bft) W-SW 244 ° 0 min 0,000 mm 0,0 UV-I 23 W/m² -0,2 °C 1,6 km/h (1 Bft)
06.11.2016 09:24 0,9 °C 0,9 °C 92 % 1001,1 hPa 0,0 mm 0,0 km/h (0 Bft) W-SW 244 ° 0 min 0,000 mm 0,0 UV-I 21 W/m² -0,2 °C 0,0 km/h (0 Bft)
06.11.2016 09:25 0,9 °C 0,9 °C 93 % 1001,0 hPa 0,0 mm 0,2 km/h (0 Bft) W-SW 244 ° 0 min 0,000 mm 0,0 UV-I 21 W/m² -0,1 °C 1,6 km/h (1 Bft)
06.11.2016 09:26 0,9 °C 0,9 °C 93 % 1001,1 hPa 0,0 mm 0,6 km/h (0 Bft) W-SW 244 ° 0 min 0,000 mm 0,0 UV-I 19 W/m² -0,1 °C 1,6 km/h (1 Bft)
06.11.2016 09:27 0,8 °C 0,9 °C 93 % 1001,1 hPa 0,0 mm 0,0 km/h (0 Bft) W-SW 244 ° 0 min 0,000 mm 0,0 UV-I 19 W/m² -0,2 °C 0,0 km/h (0 Bft)
06.11.2016 09:28 0,8 °C 0,8 °C 93 % 1001,1 hPa 0,0 mm 0,0 km/h (0 Bft) W-SW 244 ° 0 min 0,000 mm 0,0 UV-I 19 W/m² -0,2 °C 0,0 km/h (0 Bft)
06.11.2016 09:29 0,8 °C 0,8 °C 93 % 1001,0 hPa 0,0 mm 0,2 km/h (0 Bft) W-SW 244 ° 0 min 0,000 mm 0,0 UV-I 19 W/m² -0,2 °C 1,6 km/h (1 Bft)
06.11.2016 09:30 0,8 °C 0,8 °C 93 % 1001,2 hPa 0,0 mm 1,7 km/h (1 Bft) W-SW 244 ° 0 min 0,000 mm 0,0 UV-I 18 W/m² -0,2 °C 3,2 km/h (1 Bft)
06.11.2016 09:31 0,8 °C 0,8 °C 93 % 1001,2 hPa 0,0 mm 1,9 km/h (1 Bft) W-SW 244 ° 0 min 0,000 mm 0,0 UV-I 18 W/m² -0,2 °C 3,2 km/h (1 Bft)
06.11.2016 09:32 0,8 °C 0,8 °C 93 % 1001,1 hPa 0,0 mm 1,1 km/h (1 Bft) W-SW 244 ° 0 min 0,000 mm 0,0 UV-I 18 W/m² -0,2 °C 1,6 km/h (1 Bft)
06.11.2016 09:33 0,8 °C 0,8 °C 93 % 1001,1 hPa 0,0 mm 0,8 km/h (0 Bft) SW 231 ° 0 min 0,000 mm 0,0 UV-I 18 W/m² -0,2 °C 3,2 km/h (1 Bft)
06.11.2016 09:34 0,8 °C 0,8 °C 93 % 1001,1 hPa 0,0 mm 2,2 km/h (1 Bft) SW 231 ° 0 min 0,000 mm 0,0 UV-I 16 W/m² -0,2 °C 4,8 km/h (1 Bft)
06.11.2016 09:35 0,8 °C 0,8 °C 93 % 1001,1 hPa 0,0 mm 1,9 km/h (1 Bft) SW 231 ° 0 min 0,000 mm 0,0 UV-I 16 W/m² -0,2 °C 4,8 km/h (1 Bft)
06.11.2016 09:36 0,8 °C 0,8 °C 93 % 1001,0 hPa 0,0 mm 0,5 km/h (0 Bft) SW 231 ° 0 min 0,000 mm 0,0 UV-I 16 W/m² -0,2 °C 1,6 km/h (1 Bft)
06.11.2016 09:37 0,8 °C 0,8 °C 93 % 1001,1 hPa 0,0 mm 0,7 km/h (0 Bft) SW 229 ° 0 min 0,000 mm 0,0 UV-I 16 W/m² -0,2 °C 1,6 km/h (1 Bft)
06.11.2016 09:38 0,8 °C 0,8 °C 93 % 1001,1 hPa 0,0 mm 1,1 km/h (1 Bft) S-SW 195 ° 0 min 0,000 mm 0,0 UV-I 16 W/m² -0,2 °C 3,2 km/h (1 Bft)
06.11.2016 09:39 0,8 °C 0,8 °C 93 % 1001,1 hPa 0,0 mm 2,0 km/h (1 Bft) S-SW 200 ° 0 min 0,000 mm 0,0 UV-I 14 W/m² -0,2 °C 3,2 km/h (1 Bft)
06.11.2016 09:40 0,8 °C 0,8 °C 93 % 1001,1 hPa 0,0 mm 2,0 km/h (1 Bft) S-SW 200 ° 0 min 0,000 mm 0,0 UV-I 14 W/m² -0,2 °C 3,2 km/h (1 Bft)
06.11.2016 09:41 0,8 °C 0,8 °C 93 % 1001,1 hPa 0,0 mm 3,1 km/h (1 Bft) W-SW 240 ° 0 min 0,000 mm 0,0 UV-I 14 W/m² -0,2 °C 4,8 km/h (1 Bft)
06.11.2016 09:42 0,7 °C 0,8 °C 93 % 1001,1 hPa 0,0 mm 3,2 km/h (1 Bft) S-SW 205 ° 0 min 0,000 mm 0,0 UV-I 12 W/m² -0,3 °C 4,8 km/h (1 Bft)
06.11.2016 09:43 0,8 °C 0,8 °C 93 % 1001,1 hPa 0,0 mm 2,2 km/h (1 Bft) S-SW 204 ° 0 min 0,000 mm 0,0 UV-I 12 W/m² -0,2 °C 3,2 km/h (1 Bft)
06.11.2016 09:44 0,8 °C 0,8 °C 93 % 1001,2 hPa 0,0 mm 1,3 km/h (1 Bft) S-SW 204 ° 0 min 0,000 mm 0,0 UV-I 12 W/m² -0,2 °C 1,6 km/h (1 Bft)
06.11.2016 09:45 0,8 °C 0,8 °C 93 % 1001,1 hPa 0,0 mm 2,3 km/h (1 Bft) S 177 ° 0 min 0,000 mm 0,0 UV-I 12 W/m² -0,2 °C 3,2 km/h (1 Bft)
06.11.2016 09:46 0,8 °C 0,8 °C 93 % 1001,1 hPa 0,0 mm 1,4 km/h (1 Bft) S 177 ° 0 min 0,000 mm 0,0 UV-I 11 W/m² -0,2 °C 3,2 km/h (1 Bft)
06.11.2016 09:47 0,7 °C 0,8 °C 93 % 1001,2 hPa 0,0 mm 1,6 km/h (1 Bft) S 177 ° 0 min 0,000 mm 0,0 UV-I 11 W/m² -0,3 °C 3,2 km/h (1 Bft)
06.11.2016 09:48 0,7 °C 0,8 °C 93 % 1001,2 hPa 0,0 mm 1,3 km/h (1 Bft) S 177 ° 0 min 0,000 mm 0,0 UV-I 11 W/m² -0,3 °C 1,6 km/h (1 Bft)
06.11.2016 09:49 0,7 °C 0,8 °C 93 % 1001,2 hPa 0,0 mm 0,9 km/h (0 Bft) S 177 ° 0 min 0,000 mm 0,0 UV-I 11 W/m² -0,3 °C 1,6 km/h (1 Bft)
06.11.2016 09:50 0,7 °C 0,7 °C 93 % 1001,3 hPa 0,0 mm 1,5 km/h (1 Bft) S 177 ° 0 min 0,000 mm 0,0 UV-I 9 W/m² -0,3 °C 3,2 km/h (1 Bft)
06.11.2016 09:51 0,7 °C 0,7 °C 93 % 1001,3 hPa 0,0 mm 2,0 km/h (1 Bft) S 177 ° 0 min 0,000 mm 0,0 UV-I 9 W/m² -0,3 °C 3,2 km/h (1 Bft)
06.11.2016 09:52 0,7 °C 0,7 °C 94 % 1001,4 hPa 0,0 mm 2,0 km/h (1 Bft) S 178 ° 0 min 0,000 mm 0,0 UV-I 9 W/m² -0,2 °C 3,2 km/h (1 Bft)
06.11.2016 09:53 0,7 °C 0,7 °C 94 % 1001,3 hPa 0,0 mm 1,8 km/h (1 Bft) S 178 ° 0 min 0,000 mm 0,0 UV-I 9 W/m² -0,2 °C 3,2 km/h (1 Bft)
06.11.2016 09:54 0,7 °C 0,7 °C 94 % 1001,3 hPa 0,0 mm 1,9 km/h (1 Bft) S 178 ° 0 min 0,000 mm 0,0 UV-I 9 W/m² -0,2 °C 3,2 km/h (1 Bft)
06.11.2016 09:55 0,7 °C 0,7 °C 94 % 1001,2 hPa 0,0 mm 0,5 km/h (0 Bft) S 178 ° 0 min 0,000 mm 0,0 UV-I 11 W/m² -0,2 °C 1,6 km/h (1 Bft)
06.11.2016 09:56 0,7 °C 0,7 °C 94 % 1001,3 hPa 0,0 mm 0,0 km/h (0 Bft) S 178 ° 0 min 0,000 mm 0,0 UV-I 11 W/m² -0,2 °C 0,0 km/h (0 Bft)
06.11.2016 09:57 0,7 °C 0,7 °C 94 % 1001,4 hPa 0,0 mm 0,3 km/h (0 Bft) S 178 ° 0 min 0,000 mm 0,0 UV-I 11 W/m² -0,2 °C 1,6 km/h (1 Bft)
06.11.2016 09:58 0,7 °C 0,7 °C 94 % 1001,4 hPa 0,0 mm 1,0 km/h (0 Bft) S 179 ° 0 min 0,000 mm 0,0 UV-I 11 W/m² -0,2 °C 1,6 km/h (1 Bft)
06.11.2016 09:59 0,7 °C 0,7 °C 94 % 1001,3 hPa 0,0 mm 1,0 km/h (0 Bft) S 179 ° 0 min 0,000 mm 0,0 UV-I 9 W/m² -0,2 °C 1,6 km/h (1 Bft)
06.11.2016 10:00 0,7 °C 0,7 °C 94 % 1001,3 hPa 0,0 mm 0,1 km/h (0 Bft) S 179 ° 0 min 0,000 mm 0,0 UV-I 9 W/m² -0,2 °C 1,6 km/h (1 Bft)
06.11.2016 10:01 0,7 °C 0,7 °C 94 % 1001,2 hPa 0,0 mm 0,3 km/h (0 Bft) S 179 ° 0 min 0,000 mm 0,0 UV-I 9 W/m² -0,2 °C 1,6 km/h (1 Bft)
06.11.2016 10:02 0,7 °C 0,7 °C 94 % 1001,2 hPa 0,0 mm 1,9 km/h (1 Bft) S 180 ° 0 min 0,000 mm 0,0 UV-I 9 W/m² -0,2 °C 3,2 km/h (1 Bft)
06.11.2016 10:03 0,7 °C 0,7 °C 94 % 1001,3 hPa 0,0 mm 1,2 km/h (1 Bft) W-SW 257 ° 0 min 0,000 mm 0,0 UV-I 9 W/m² -0,2 °C 3,2 km/h (1 Bft)
06.11.2016 10:04 0,7 °C 0,7 °C 94 % 1001,3 hPa 0,0 mm 2,1 km/h (1 Bft) W-SW 250 ° 0 min 0,000 mm 0,0 UV-I 9 W/m² -0,2 °C 3,2 km/h (1 Bft)
06.11.2016 10:05 0,7 °C 0,7 °C 94 % 1001,2 hPa 0,0 mm 0,2 km/h (0 Bft) W-SW 250 ° 0 min 0,000 mm 0,0 UV-I 9 W/m² -0,2 °C 1,6 km/h (1 Bft)
06.11.2016 10:06 0,7 °C 0,7 °C 94 % 1001,2 hPa 0,0 mm 0,0 km/h (0 Bft) W-SW 250 ° 0 min 0,000 mm 0,0 UV-I 11 W/m² -0,2 °C 0,0 km/h (0 Bft)
06.11.2016 10:07 0,7 °C 0,7 °C 94 % 1001,2 hPa 0,0 mm 0,0 km/h (0 Bft) W-SW 250 ° 0 min 0,000 mm 0,0 UV-I 11 W/m² -0,2 °C 0,0 km/h (0 Bft)
06.11.2016 10:08 0,7 °C 0,7 °C 94 % 1001,4 hPa 0,0 mm 0,1 km/h (0 Bft) W-SW 250 ° 0 min 0,000 mm 0,0 UV-I 11 W/m² -0,2 °C 1,6 km/h (1 Bft)
06.11.2016 10:09 0,7 °C 0,7 °C 94 % 1001,5 hPa 0,0 mm 0,5 km/h (0 Bft) W-SW 250 ° 0 min 0,000 mm 0,0 UV-I 11 W/m² -0,2 °C 1,6 km/h (1 Bft)
06.11.2016 10:10 0,7 °C 0,7 °C 94 % 1001,5 hPa 0,0 mm 0,8 km/h (0 Bft) W-SW 250 ° 0 min 0,000 mm 0,0 UV-I 11 W/m² -0,2 °C 1,6 km/h (1 Bft)
06.11.2016 10:11 0,7 °C 0,7 °C 94 % 1001,4 hPa 0,0 mm 0,6 km/h (0 Bft) W-SW 250 ° 0 min 0,000 mm 0,0 UV-I 11 W/m² -0,2 °C 1,6 km/h (1 Bft)
06.11.2016 10:12 0,7 °C 0,7 °C 94 % 1001,3 hPa 0,0 mm 0,0 km/h (0 Bft) W-SW 250 ° 0 min 0,000 mm 0,0 UV-I 12 W/m² -0,2 °C 0,0 km/h (0 Bft)
06.11.2016 10:13 0,7 °C 0,7 °C 94 % 1001,3 hPa 0,0 mm 0,0 km/h (0 Bft) W-SW 250 ° 0 min 0,000 mm 0,0 UV-I 12 W/m² -0,2 °C 0,0 km/h (0 Bft)
06.11.2016 10:14 0,7 °C 0,7 °C 94 % 1001,2 hPa 0,0 mm 0,3 km/h (0 Bft) W-SW 250 ° 0 min 0,000 mm 0,0 UV-I 14 W/m² -0,2 °C 1,6 km/h (1 Bft)
06.11.2016 10:15 0,7 °C 0,7 °C 94 % 1001,3 hPa 0,0 mm 0,1 km/h (0 Bft) W-SW 250 ° 0 min 0,000 mm 0,0 UV-I 14 W/m² -0,2 °C 1,6 km/h (1 Bft)
06.11.2016 10:16 0,7 °C 0,7 °C 94 % 1001,2 hPa 0,0 mm 0,0 km/h (0 Bft) W-SW 250 ° 0 min 0,000 mm 0,0 UV-I 14 W/m² -0,2 °C 0,0 km/h (0 Bft)
06.11.2016 10:17 0,7 °C 0,7 °C 94 % 1001,2 hPa 0,0 mm 0,0 km/h (0 Bft) W-SW 250 ° 0 min 0,000 mm 0,0 UV-I 14 W/m² -0,2 °C 0,0 km/h (0 Bft)
06.11.2016 10:18 0,7 °C 0,7 °C 94 % 1001,3 hPa 0,0 mm 0,6 km/h (0 Bft) W-SW 250 ° 0 min 0,000 mm 0,0 UV-I 14 W/m² -0,2 °C 1,6 km/h (1 Bft)
06.11.2016 10:19 0,7 °C 0,7 °C 94 % 1001,2 hPa 0,0 mm 0,0 km/h (0 Bft) W-SW 250 ° 0 min 0,000 mm 0,0 UV-I 16 W/m² -0,2 °C 0,0 km/h (0 Bft)
06.11.2016 10:20 0,7 °C 0,7 °C 94 % 1001,2 hPa 0,0 mm 0,0 km/h (0 Bft) W-SW 250 ° 0 min 0,000 mm 0,0 UV-I 16 W/m² -0,2 °C 0,0 km/h (0 Bft)
06.11.2016 10:21 0,6 °C 0,7 °C 94 % 1001,3 hPa 0,0 mm 0,0 km/h (0 Bft) W-SW 250 ° 0 min 0,000 mm 0,0 UV-I 16 W/m² -0,3 °C 0,0 km/h (0 Bft)
06.11.2016 10:22 0,7 °C 0,7 °C 94 % 1001,3 hPa 0,0 mm 0,0 km/h (0 Bft) W-SW 250 ° 0 min 0,000 mm 0,0 UV-I 16 W/m² -0,2 °C 0,0 km/h (0 Bft)
06.11.2016 10:23 0,7 °C 0,7 °C 94 % 1001,4 hPa 0,0 mm 0,0 km/h (0 Bft) W-SW 250 ° 0 min 0,000 mm 0,0 UV-I 16 W/m² -0,2 °C 0,0 km/h (0 Bft)
06.11.2016 10:24 0,7 °C 0,7 °C 94 % 1001,3 hPa 0,0 mm 0,0 km/h (0 Bft) W-SW 250 ° 0 min 0,000 mm 0,0 UV-I 14 W/m² -0,2 °C 0,0 km/h (0 Bft)
06.11.2016 10:25 0,7 °C 0,7 °C 94 % 1001,3 hPa 0,0 mm 0,0 km/h (0 Bft) W-SW 250 ° 0 min 0,000 mm 0,0 UV-I 14 W/m² -0,2 °C 0,0 km/h (0 Bft)
06.11.2016 10:26 0,7 °C 0,7 °C 94 % 1001,2 hPa 0,0 mm 0,0 km/h (0 Bft) W-SW 250 ° 0 min 0,000 mm 0,0 UV-I 14 W/m² -0,2 °C 0,0 km/h (0 Bft)
06.11.2016 10:27 0,7 °C 0,7 °C 94 % 1001,2 hPa 0,0 mm 0,0 km/h (0 Bft) W-SW 250 ° 0 min 0,000 mm 0,0 UV-I 12 W/m² -0,2 °C 0,0 km/h (0 Bft)
06.11.2016 10:28 0,7 °C 0,7 °C 94 % 1001,2 hPa 0,0 mm 0,0 km/h (0 Bft) W-SW 250 ° 0 min 0,000 mm 0,0 UV-I 12 W/m² -0,2 °C 0,0 km/h (0 Bft)
06.11.2016 10:29 0,7 °C 0,7 °C 94 % 1001,3 hPa 0,0 mm 0,0 km/h (0 Bft) W-SW 250 ° 0 min 0,000 mm 0,0 UV-I 12 W/m² -0,2 °C 0,0 km/h (0 Bft)
06.11.2016 10:30 0,7 °C 0,7 °C 94 % 1001,2 hPa 0,0 mm 0,0 km/h (0 Bft) W-SW 250 ° 0 min 0,000 mm 0,0 UV-I 12 W/m² -0,2 °C 0,0 km/h (0 Bft)
06.11.2016 10:31 0,7 °C 0,7 °C 94 % 1001,2 hPa 0,0 mm 0,0 km/h (0 Bft) W-SW 250 ° 0 min 0,000 mm 0,0 UV-I 11 W/m² -0,2 °C 0,0 km/h (0 Bft)
06.11.2016 10:32 0,7 °C 0,7 °C 94 % 1001,2 hPa 0,0 mm 0,0 km/h (0 Bft) W-SW 250 ° 0 min 0,000 mm 0,0 UV-I 11 W/m² -0,2 °C 0,0 km/h (0 Bft)
06.11.2016 10:33 0,7 °C 0,7 °C 94 % 1001,2 hPa 0,0 mm 0,0 km/h (0 Bft) W-SW 250 ° 0 min 0,000 mm 0,0 UV-I 11 W/m² -0,2 °C 0,0 km/h (0 Bft)
06.11.2016 10:34 0,7 °C 0,7 °C 94 % 1001,2 hPa 0,0 mm 0,0 km/h (0 Bft) W-SW 250 ° 0 min 0,000 mm 0,0 UV-I 9 W/m² -0,2 °C 0,0 km/h (0 Bft)
06.11.2016 10:35 0,7 °C 0,7 °C 94 % 1001,1 hPa 0,0 mm 0,0 km/h (0 Bft) W-SW 250 ° 0 min 0,000 mm 0,0 UV-I 9 W/m² -0,2 °C 0,0 km/h (0 Bft)
06.11.2016 10:36 0,7 °C 0,7 °C 94 % 1001,0 hPa 0,0 mm 0,0 km/h (0 Bft) W-SW 250 ° 0 min 0,000 mm 0,0 UV-I 9 W/m² -0,2 °C 0,0 km/h (0 Bft)
06.11.2016 10:37 0,7 °C 0,7 °C 94 % 1001,0 hPa 0,0 mm 0,0 km/h (0 Bft) W-SW 250 ° 0 min 0,000 mm 0,0 UV-I 9 W/m² -0,2 °C 0,0 km/h (0 Bft)
06.11.2016 10:38 0,7 °C 0,7 °C 94 % 1001,0 hPa 0,0 mm 0,0 km/h (0 Bft) W-SW 250 ° 0 min 0,000 mm 0,0 UV-I 11 W/m² -0,2 °C 0,0 km/h (0 Bft)
06.11.2016 10:39 0,7 °C 0,7 °C 94 % 1001,0 hPa 0,0 mm 0,0 km/h (0 Bft) W-SW 250 ° 0 min 0,000 mm 0,0 UV-I 11 W/m² -0,2 °C 0,0 km/h (0 Bft)
06.11.2016 10:40 0,7 °C 0,7 °C 94 % 1001,1 hPa 0,0 mm 0,0 km/h (0 Bft) W-SW 250 ° 0 min 0,000 mm 0,0 UV-I 11 W/m² -0,2 °C 0,0 km/h (0 Bft)
06.11.2016 10:41 0,7 °C 0,7 °C 94 % 1001,2 hPa 0,0 mm 0,0 km/h (0 Bft) W-SW 250 ° 0 min 0,000 mm 0,0 UV-I 11 W/m² -0,2 °C 0,0 km/h (0 Bft)
06.11.2016 10:42 0,7 °C 0,7 °C 94 % 1001,2 hPa 0,0 mm 0,0 km/h (0 Bft) W-SW 250 ° 0 min 0,000 mm 0,0 UV-I 12 W/m² -0,2 °C 0,0 km/h (0 Bft)
06.11.2016 10:43 0,7 °C 0,7 °C 94 % 1001,2 hPa 0,0 mm 0,0 km/h (0 Bft) W-SW 250 ° 0 min 0,000 mm 0,0 UV-I 12 W/m² -0,2 °C 0,0 km/h (0 Bft)
06.11.2016 10:44 0,7 °C 0,7 °C 94 % 1001,3 hPa 0,0 mm 0,0 km/h (0 Bft) W-SW 250 ° 0 min 0,000 mm 0,0 UV-I 12 W/m² -0,2 °C 0,0 km/h (0 Bft)
06.11.2016 10:45 0,7 °C 0,7 °C 94 % 1001,3 hPa 0,0 mm 0,0 km/h (0 Bft) W-SW 250 ° 0 min 0,000 mm 0,0 UV-I 12 W/m² -0,2 °C 0,0 km/h (0 Bft)
06.11.2016 10:46 0,7 °C 0,7 °C 94 % 1001,2 hPa 0,0 mm 0,0 km/h (0 Bft) W-SW 250 ° 0 min 0,000 mm 0,0 UV-I 12 W/m² -0,2 °C 0,0 km/h (0 Bft)
06.11.2016 10:47 0,7 °C 0,7 °C 94 % 1001,1 hPa 0,0 mm 0,0 km/h (0 Bft) W-SW 250 ° 0 min 0,000 mm 0,0 UV-I 12 W/m² -0,2 °C 0,0 km/h (0 Bft)
06.11.2016 10:48 0,7 °C 0,7 °C 94 % 1001,1 hPa 0,0 mm 0,0 km/h (0 Bft) W-SW 250 ° 0 min 0,000 mm 0,0 UV-I 14 W/m² -0,2 °C 0,0 km/h (0 Bft)
06.11.2016 10:49 0,7 °C 0,7 °C 94 % 1001,1 hPa 0,0 mm 0,0 km/h (0 Bft) W-SW 250 ° 0 min 0,000 mm 0,0 UV-I 14 W/m² -0,2 °C 0,0 km/h (0 Bft)
06.11.2016 10:50 0,7 °C 0,7 °C 94 % 1001,1 hPa 0,0 mm 0,0 km/h (0 Bft) W-SW 250 ° 0 min 0,000 mm 0,0 UV-I 14 W/m² -0,2 °C 0,0 km/h (0 Bft)
06.11.2016 10:51 0,7 °C 0,7 °C 94 % 1001,1 hPa 0,0 mm 0,0 km/h (0 Bft) W-SW 250 ° 0 min 0,000 mm 0,0 UV-I 14 W/m² -0,2 °C 0,0 km/h (0 Bft)
06.11.2016 10:52 0,7 °C 0,7 °C 94 % 1001,1 hPa 0,0 mm 0,0 km/h (0 Bft) W-SW 250 ° 0 min 0,000 mm 0,0 UV-I 16 W/m² -0,2 °C 0,0 km/h (0 Bft)
06.11.2016 10:53 0,7 °C 0,7 °C 94 % 1001,2 hPa 0,0 mm 0,0 km/h (0 Bft) W-SW 250 ° 0 min 0,000 mm 0,0 UV-I 16 W/m² -0,2 °C 0,0 km/h (0 Bft)
06.11.2016 10:54 0,7 °C 0,7 °C 94 % 1001,2 hPa 0,0 mm 0,0 km/h (0 Bft) W-SW 250 ° 0 min 0,000 mm 0,0 UV-I 16 W/m² -0,2 °C 0,0 km/h (0 Bft)
06.11.2016 10:55 0,7 °C 0,7 °C 94 % 1001,1 hPa 0,0 mm 0,0 km/h (0 Bft) W-SW 250 ° 0 min 0,000 mm 0,0 UV-I 16 W/m² -0,2 °C 0,0 km/h (0 Bft)
06.11.2016 10:56 0,7 °C 0,7 °C 94 % 1001,1 hPa 0,0 mm 0,0 km/h (0 Bft) W-SW 250 ° 0 min 0,000 mm 0,0 UV-I 16 W/m² -0,2 °C 0,0 km/h (0 Bft)
06.11.2016 10:57 0,7 °C 0,7 °C 94 % 1001,0 hPa 0,0 mm 0,0 km/h (0 Bft) W-SW 250 ° 0 min 0,000 mm 0,0 UV-I 18 W/m² -0,2 °C 0,0 km/h (0 Bft)
06.11.2016 10:58 0,7 °C 0,8 °C 94 % 1001,0 hPa 0,0 mm 0,0 km/h (0 Bft) W-SW 250 ° 0 min 0,000 mm 0,0 UV-I 18 W/m² -0,2 °C 0,0 km/h (0 Bft)
06.11.2016 10:59 0,7 °C 0,8 °C 94 % 1001,0 hPa 0,0 mm 0,0 km/h (0 Bft) W-SW 250 ° 0 min 0,000 mm 0,0 UV-I 18 W/m² -0,2 °C 0,0 km/h (0 Bft)
06.11.2016 11:00 0,8 °C 0,8 °C 94 % 1001,0 hPa 0,0 mm 0,0 km/h (0 Bft) W-SW 250 ° 0 min 0,000 mm 0,0 UV-I 18 W/m² -0,1 °C 0,0 km/h (0 Bft)
06.11.2016 11:01 0,8 °C 0,8 °C 94 % 1001,0 hPa 0,0 mm 0,0 km/h (0 Bft) W-SW 250 ° 0 min 0,000 mm 0,0 UV-I 18 W/m² -0,1 °C 0,0 km/h (0 Bft)
06.11.2016 11:02 0,8 °C 0,8 °C 94 % 1001,0 hPa 0,0 mm 0,0 km/h (0 Bft) W-SW 250 ° 0 min 0,000 mm 0,0 UV-I 18 W/m² -0,1 °C 0,0 km/h (0 Bft)
06.11.2016 11:03 0,8 °C 0,8 °C 94 % 1001,0 hPa 0,0 mm 0,0 km/h (0 Bft) W-SW 250 ° 0 min 0,000 mm 0,0 UV-I 18 W/m² -0,1 °C 0,0 km/h (0 Bft)
06.11.2016 11:04 0,8 °C 0,8 °C 94 % 1001,0 hPa 0,0 mm 0,0 km/h (0 Bft) W-SW 250 ° 0 min 0,000 mm 0,0 UV-I 18 W/m² -0,1 °C 0,0 km/h (0 Bft)
06.11.2016 11:05 0,8 °C 0,8 °C 94 % 1001,0 hPa 0,0 mm 0,0 km/h (0 Bft) W-SW 250 ° 0 min 0,000 mm 0,0 UV-I 16 W/m² -0,1 °C 0,0 km/h (0 Bft)
06.11.2016 11:06 0,8 °C 0,8 °C 94 % 1001,0 hPa 0,0 mm 0,0 km/h (0 Bft) W-SW 250 ° 0 min 0,000 mm 0,0 UV-I 16 W/m² -0,1 °C 0,0 km/h (0 Bft)
06.11.2016 11:07 0,8 °C 0,8 °C 94 % 1001,1 hPa 0,0 mm 0,0 km/h (0 Bft) W-SW 250 ° 0 min 0,000 mm 0,0 UV-I 16 W/m² -0,1 °C 0,0 km/h (0 Bft)
06.11.2016 11:08 0,8 °C 0,8 °C 94 % 1001,0 hPa 0,0 mm 0,0 km/h (0 Bft) W-SW 250 ° 0 min 0,000 mm 0,0 UV-I 16 W/m² -0,1 °C 0,0 km/h (0 Bft)
06.11.2016 11:09 0,8 °C 0,8 °C 94 % 1001,0 hPa 0,0 mm 0,0 km/h (0 Bft) W-SW 250 ° 0 min 0,000 mm 0,0 UV-I 16 W/m² -0,1 °C 0,0 km/h (0 Bft)
06.11.2016 11:10 0,8 °C 0,8 °C 94 % 1001,0 hPa 0,0 mm 0,0 km/h (0 Bft) W-SW 250 ° 0 min 0,000 mm 0,0 UV-I 16 W/m² -0,1 °C 0,0 km/h (0 Bft)
06.11.2016 11:11 0,7 °C 0,8 °C 94 % 1000,9 hPa 0,0 mm 0,0 km/h (0 Bft) W-SW 250 ° 0 min 0,000 mm 0,0 UV-I 16 W/m² -0,2 °C 0,0 km/h (0 Bft)
06.11.2016 11:12 0,8 °C 0,8 °C 94 % 1000,9 hPa 0,0 mm 0,0 km/h (0 Bft) W-SW 250 ° 0 min 0,000 mm 0,0 UV-I 18 W/m² -0,1 °C 0,0 km/h (0 Bft)
06.11.2016 11:13 0,8 °C 0,8 °C 94 % 1000,9 hPa 0,0 mm 0,0 km/h (0 Bft) W-SW 250 ° 0 min 0,000 mm 0,0 UV-I 18 W/m² -0,1 °C 0,0 km/h (0 Bft)
06.11.2016 11:14 0,8 °C 0,8 °C 94 % 1000,9 hPa 0,0 mm 0,0 km/h (0 Bft) W-SW 250 ° 0 min 0,000 mm 0,0 UV-I 19 W/m² -0,1 °C 0,0 km/h (0 Bft)
06.11.2016 11:15 0,8 °C 0,8 °C 94 % 1000,9 hPa 0,0 mm 0,0 km/h (0 Bft) W-SW 250 ° 0 min 0,000 mm 0,0 UV-I 19 W/m² -0,1 °C 0,0 km/h (0 Bft)
06.11.2016 11:16 0,8 °C 0,8 °C 94 % 1001,0 hPa 0,0 mm 0,0 km/h (0 Bft) W-SW 250 ° 0 min 0,000 mm 0,0 UV-I 19 W/m² -0,1 °C 0,0 km/h (0 Bft)
06.11.2016 11:17 0,8 °C 0,8 °C 94 % 1001,0 hPa 0,0 mm 0,0 km/h (0 Bft) W-SW 250 ° 0 min 0,000 mm 0,0 UV-I 19 W/m² -0,1 °C 0,0 km/h (0 Bft)
06.11.2016 11:18 0,8 °C 0,8 °C 94 % 1001,0 hPa 0,0 mm 0,0 km/h (0 Bft) W-SW 250 ° 0 min 0,000 mm 0,0 UV-I 18 W/m² -0,1 °C 0,0 km/h (0 Bft)
06.11.2016 11:19 0,8 °C 0,8 °C 94 % 1001,0 hPa 0,0 mm 0,0 km/h (0 Bft) W-SW 250 ° 0 min 0,000 mm 0,0 UV-I 18 W/m² -0,1 °C 0,0 km/h (0 Bft)
06.11.2016 11:20 0,8 °C 0,8 °C 94 % 1000,9 hPa 0,0 mm 0,0 km/h (0 Bft) W-SW 250 ° 0 min 0,000 mm 0,0 UV-I 16 W/m² -0,1 °C 0,0 km/h (0 Bft)
06.11.2016 11:21 0,8 °C 0,8 °C 94 % 1001,0 hPa 0,0 mm 0,0 km/h (0 Bft) W-SW 250 ° 0 min 0,000 mm 0,0 UV-I 14 W/m² -0,1 °C 0,0 km/h (0 Bft)
06.11.2016 11:22 0,8 °C 0,8 °C 94 % 1001,0 hPa 0,0 mm 0,0 km/h (0 Bft) W-SW 250 ° 0 min 0,000 mm 0,0 UV-I 14 W/m² -0,1 °C 0,0 km/h (0 Bft)
06.11.2016 11:23 0,8 °C 0,8 °C 94 % 1001,0 hPa 0,0 mm 0,0 km/h (0 Bft) W-SW 250 ° 0 min 0,000 mm 0,0 UV-I 14 W/m² -0,1 °C 0,0 km/h (0 Bft)
06.11.2016 11:24 0,8 °C 0,8 °C 94 % 1001,1 hPa 0,0 mm 0,0 km/h (0 Bft) W-SW 250 ° 0 min 0,000 mm 0,0 UV-I 14 W/m² -0,1 °C 0,0 km/h (0 Bft)
06.11.2016 11:25 0,8 °C 0,8 °C 94 % 1001,1 hPa 0,0 mm 0,0 km/h (0 Bft) W-SW 250 ° 0 min 0,000 mm 0,0 UV-I 14 W/m² -0,1 °C 0,0 km/h (0 Bft)
06.11.2016 11:26 0,8 °C 0,8 °C 94 % 1001,1 hPa 0,0 mm 0,0 km/h (0 Bft) W-SW 250 ° 0 min 0,000 mm 0,0 UV-I 14 W/m² -0,1 °C 0,0 km/h (0 Bft)
06.11.2016 11:27 0,8 °C 0,8 °C 94 % 1001,1 hPa 0,0 mm 0,0 km/h (0 Bft) W-SW 250 ° 0 min 0,000 mm 0,0 UV-I 14 W/m² -0,1 °C 0,0 km/h (0 Bft)
06.11.2016 11:28 0,8 °C 0,8 °C 94 % 1001,0 hPa 0,0 mm 0,0 km/h (0 Bft) W-SW 250 ° 0 min 0,000 mm 0,0 UV-I 14 W/m² -0,1 °C 0,0 km/h (0 Bft)
06.11.2016 11:29 0,8 °C 0,8 °C 94 % 1001,1 hPa 0,0 mm 0,0 km/h (0 Bft) W-SW 250 ° 0 min 0,000 mm 0,0 UV-I 16 W/m² -0,1 °C 0,0 km/h (0 Bft)
06.11.2016 11:30 0,8 °C 0,8 °C 94 % 1001,1 hPa 0,0 mm 0,0 km/h (0 Bft) W-SW 250 ° 0 min 0,000 mm 0,0 UV-I 16 W/m² -0,1 °C 0,0 km/h (0 Bft)
06.11.2016 11:31 0,8 °C 0,8 °C 94 % 1001,0 hPa 0,0 mm 0,0 km/h (0 Bft) W-SW 250 ° 0 min 0,000 mm 0,0 UV-I 16 W/m² -0,1 °C 0,0 km/h (0 Bft)
06.11.2016 11:32 0,8 °C 0,8 °C 94 % 1001,0 hPa 0,0 mm 0,0 km/h (0 Bft) W-SW 250 ° 0 min 0,000 mm 0,0 UV-I 16 W/m² -0,1 °C 0,0 km/h (0 Bft)
06.11.2016 11:33 0,8 °C 0,8 °C 94 % 1001,0 hPa 0,0 mm 0,0 km/h (0 Bft) W-SW 250 ° 0 min 0,000 mm 0,0 UV-I 14 W/m² -0,1 °C 0,0 km/h (0 Bft)
06.11.2016 11:34 0,8 °C 0,8 °C 94 % 1001,1 hPa 0,0 mm 0,0 km/h (0 Bft) W-SW 250 ° 0 min 0,000 mm 0,0 UV-I 16 W/m² -0,1 °C 0,0 km/h (0 Bft)
06.11.2016 11:35 0,8 °C 0,8 °C 94 % 1001,0 hPa 0,0 mm 0,1 km/h (0 Bft) W-SW 250 ° 0 min 0,000 mm 0,0 UV-I 16 W/m² -0,1 °C 1,6 km/h (1 Bft)
06.11.2016 11:36 0,8 °C 0,8 °C 94 % 1001,0 hPa 0,0 mm 0,0 km/h (0 Bft) W-SW 250 ° 0 min 0,000 mm 0,0 UV-I 18 W/m² -0,1 °C 0,0 km/h (0 Bft)
06.11.2016 11:37 0,8 °C 0,8 °C 94 % 1001,0 hPa 0,0 mm 0,0 km/h (0 Bft) W-SW 250 ° 0 min 0,000 mm 0,0 UV-I 18 W/m² -0,1 °C 0,0 km/h (0 Bft)
06.11.2016 11:38 0,8 °C 0,8 °C 94 % 1001,0 hPa 0,0 mm 0,0 km/h (0 Bft) W-SW 250 ° 0 min 0,000 mm 0,0 UV-I 18 W/m² -0,1 °C 0,0 km/h (0 Bft)
06.11.2016 11:39 0,8 °C 0,8 °C 94 % 1001,0 hPa 0,0 mm 0,0 km/h (0 Bft) W-SW 250 ° 0 min 0,000 mm 0,0 UV-I 19 W/m² -0,1 °C 0,0 km/h (0 Bft)
06.11.2016 11:40 0,8 °C 0,8 °C 94 % 1001,0 hPa 0,0 mm 0,0 km/h (0 Bft) W-SW 250 ° 0 min 0,000 mm 0,0 UV-I 21 W/m² -0,1 °C 0,0 km/h (0 Bft)
06.11.2016 11:41 0,8 °C 0,8 °C 94 % 1000,9 hPa 0,0 mm 0,0 km/h (0 Bft) W-SW 250 ° 0 min 0,000 mm 0,0 UV-I 21 W/m² -0,1 °C 0,0 km/h (0 Bft)
06.11.2016 11:42 0,9 °C 0,9 °C 94 % 1001,0 hPa 0,0 mm 0,0 km/h (0 Bft) W-SW 250 ° 0 min 0,000 mm 0,0 UV-I 21 W/m² 0,0 °C 0,0 km/h (0 Bft)
06.11.2016 11:43 0,9 °C 0,9 °C 94 % 1001,0 hPa 0,0 mm 0,0 km/h (0 Bft) W-SW 250 ° 0 min 0,000 mm 0,0 UV-I 21 W/m² 0,0 °C 0,0 km/h (0 Bft)
06.11.2016 11:44 0,9 °C 0,9 °C 94 % 1001,0 hPa 0,0 mm 0,0 km/h (0 Bft) W-SW 250 ° 0 min 0,000 mm 0,0 UV-I 21 W/m² 0,0 °C 0,0 km/h (0 Bft)
06.11.2016 11:45 0,9 °C 0,9 °C 94 % 1001,1 hPa 0,0 mm 0,0 km/h (0 Bft) W-SW 250 ° 0 min 0,000 mm 0,0 UV-I 18 W/m² 0,0 °C 0,0 km/h (0 Bft)
06.11.2016 11:46 0,9 °C 0,9 °C 94 % 1001,1 hPa 0,0 mm 0,0 km/h (0 Bft) W-SW 250 ° 0 min 0,000 mm 0,0 UV-I 18 W/m² 0,0 °C 0,0 km/h (0 Bft)
06.11.2016 11:47 0,9 °C 0,9 °C 94 % 1001,1 hPa 0,0 mm 0,0 km/h (0 Bft) W-SW 250 ° 0 min 0,000 mm 0,0 UV-I 19 W/m² 0,0 °C 0,0 km/h (0 Bft)
06.11.2016 11:48 0,9 °C 0,9 °C 94 % 1001,1 hPa 0,0 mm 0,0 km/h (0 Bft) W-SW 250 ° 0 min 0,000 mm 0,0 UV-I 19 W/m² 0,0 °C 0,0 km/h (0 Bft)
06.11.2016 11:49 1,0 °C 1,0 °C 94 % 1001,0 hPa 0,0 mm 0,0 km/h (0 Bft) W-SW 250 ° 0 min 0,000 mm 0,0 UV-I 21 W/m² 0,1 °C 0,0 km/h (0 Bft)
06.11.2016 11:50 0,9 °C 1,0 °C 94 % 1001,0 hPa 0,0 mm 0,0 km/h (0 Bft) W-SW 250 ° 0 min 0,000 mm 0,0 UV-I 21 W/m² 0,0 °C 0,0 km/h (0 Bft)
06.11.2016 11:51 0,9 °C 0,9 °C 94 % 1001,0 hPa 0,0 mm 0,0 km/h (0 Bft) W-SW 250 ° 0 min 0,000 mm 0,0 UV-I 23 W/m² 0,0 °C 0,0 km/h (0 Bft)
06.11.2016 11:52 1,0 °C 1,0 °C 94 % 1001,0 hPa 0,0 mm 0,0 km/h (0 Bft) W-SW 250 ° 0 min 0,000 mm 0,0 UV-I 23 W/m² 0,1 °C 0,0 km/h (0 Bft)
06.11.2016 11:53 1,0 °C 1,0 °C 94 % 1001,0 hPa 0,0 mm 0,0 km/h (0 Bft) W-SW 250 ° 0 min 0,000 mm 0,0 UV-I 23 W/m² 0,1 °C 0,0 km/h (0 Bft)
06.11.2016 11:54 1,0 °C 1,0 °C 94 % 1001,0 hPa 0,0 mm 0,0 km/h (0 Bft) W-SW 250 ° 0 min 0,000 mm 0,0 UV-I 21 W/m² 0,1 °C 0,0 km/h (0 Bft)
06.11.2016 11:55 1,0 °C 1,0 °C 94 % 1001,0 hPa 0,0 mm 0,9 km/h (0 Bft) W-SW 250 ° 0 min 0,000 mm 0,0 UV-I 23 W/m² 0,1 °C 3,2 km/h (1 Bft)
06.11.2016 11:56 1,0 °C 1,0 °C 94 % 1001,1 hPa 0,0 mm 0,7 km/h (0 Bft) W-SW 250 ° 0 min 0,000 mm 0,0 UV-I 23 W/m² 0,1 °C 1,6 km/h (1 Bft)
06.11.2016 11:57 1,0 °C 1,1 °C 94 % 1001,1 hPa 0,0 mm 0,0 km/h (0 Bft) W-SW 250 ° 0 min 0,000 mm 0,0 UV-I 21 W/m² 0,1 °C 0,0 km/h (0 Bft)
06.11.2016 11:58 1,0 °C 1,1 °C 94 % 1001,0 hPa 0,0 mm 0,0 km/h (0 Bft) W-SW 250 ° 0 min 0,000 mm 0,0 UV-I 19 W/m² 0,1 °C 0,0 km/h (0 Bft)
06.11.2016 11:59 1,1 °C 1,1 °C 94 % 1001,0 hPa 0,0 mm 0,0 km/h (0 Bft) W-SW 250 ° 0 min 0,000 mm 0,0 UV-I 19 W/m² 0,2 °C 0,0 km/h (0 Bft)
06.11.2016 12:00 1,1 °C 1,1 °C 94 % 1001,1 hPa 0,0 mm 0,1 km/h (0 Bft) W-SW 250 ° 0 min 0,000 mm 0,0 UV-I 18 W/m² 0,2 °C 1,6 km/h (1 Bft)
06.11.2016 12:01 1,1 °C 1,1 °C 94 % 1001,2 hPa 0,0 mm 0,0 km/h (0 Bft) W-SW 250 ° 0 min 0,000 mm 0,0 UV-I 18 W/m² 0,2 °C 0,0 km/h (0 Bft)
06.11.2016 12:02 1,1 °C 1,1 °C 94 % 1001,2 hPa 0,0 mm 0,0 km/h (0 Bft) W-SW 250 ° 0 min 0,000 mm 0,0 UV-I 16 W/m² 0,2 °C 0,0 km/h (0 Bft)
06.11.2016 12:03 1,1 °C 1,1 °C 94 % 1001,1 hPa 0,0 mm 0,0 km/h (0 Bft) W-SW 250 ° 0 min 0,000 mm 0,0 UV-I 16 W/m² 0,2 °C 0,0 km/h (0 Bft)
06.11.2016 12:04 1,1 °C 1,1 °C 94 % 1001,1 hPa 0,0 mm 0,0 km/h (0 Bft) W-SW 250 ° 0 min 0,000 mm 0,0 UV-I 16 W/m² 0,2 °C 0,0 km/h (0 Bft)
06.11.2016 12:05 1,1 °C 1,1 °C 94 % 1001,2 hPa 0,0 mm 0,0 km/h (0 Bft) W-SW 250 ° 0 min 0,000 mm 0,0 UV-I 18 W/m² 0,2 °C 0,0 km/h (0 Bft)
06.11.2016 12:06 1,1 °C 1,1 °C 94 % 1001,1 hPa 0,0 mm 0,0 km/h (0 Bft) W-SW 250 ° 0 min 0,000 mm 0,0 UV-I 18 W/m² 0,2 °C 0,0 km/h (0 Bft)
06.11.2016 12:07 1,1 °C 1,1 °C 94 % 1001,1 hPa 0,0 mm 0,0 km/h (0 Bft) W-SW 250 ° 0 min 0,000 mm 0,0 UV-I 18 W/m² 0,2 °C 0,0 km/h (0 Bft)
06.11.2016 12:08 1,1 °C 1,1 °C 94 % 1001,0 hPa 0,0 mm 0,0 km/h (0 Bft) W-SW 250 ° 0 min 0,000 mm 0,0 UV-I 16 W/m² 0,2 °C 0,0 km/h (0 Bft)
06.11.2016 12:09 1,1 °C 1,1 °C 94 % 1001,0 hPa 0,0 mm 0,0 km/h (0 Bft) W-SW 250 ° 0 min 0,000 mm 0,0 UV-I 18 W/m² 0,2 °C 0,0 km/h (0 Bft)
06.11.2016 12:10 1,1 °C 1,1 °C 94 % 1001,0 hPa 0,0 mm 0,0 km/h (0 Bft) W-SW 250 ° 0 min 0,000 mm 0,0 UV-I 18 W/m² 0,2 °C 0,0 km/h (0 Bft)
06.11.2016 12:11 1,1 °C 1,1 °C 94 % 1001,0 hPa 0,0 mm 0,0 km/h (0 Bft) W-SW 250 ° 0 min 0,000 mm 0,0 UV-I 19 W/m² 0,2 °C 0,0 km/h (0 Bft)
06.11.2016 12:12 1,1 °C 1,1 °C 94 % 1001,1 hPa 0,0 mm 0,7 km/h (0 Bft) W-SW 250 ° 0 min 0,000 mm 0,0 UV-I 19 W/m² 0,2 °C 1,6 km/h (1 Bft)
06.11.2016 12:13 1,1 °C 1,1 °C 94 % 1001,0 hPa 0,0 mm 1,5 km/h (1 Bft) W-SW 250 ° 0 min 0,000 mm 0,0 UV-I 18 W/m² 0,2 °C 1,6 km/h (1 Bft)
06.11.2016 12:14 1,1 °C 1,1 °C 94 % 1001,1 hPa 0,0 mm 1,8 km/h (1 Bft) W-SW 250 ° 0 min 0,000 mm 0,0 UV-I 18 W/m² 0,2 °C 3,2 km/h (1 Bft)
06.11.2016 12:15 1,1 °C 1,1 °C 94 % 1001,1 hPa 0,0 mm 1,7 km/h (1 Bft) W-SW 250 ° 0 min 0,000 mm 0,0 UV-I 18 W/m² 0,2 °C 3,2 km/h (1 Bft)
06.11.2016 12:16 1,1 °C 1,1 °C 94 % 1001,2 hPa 0,0 mm 0,0 km/h (0 Bft) W-SW 250 ° 0 min 0,000 mm 0,0 UV-I 18 W/m² 0,2 °C 0,0 km/h (0 Bft)
06.11.2016 12:17 1,1 °C 1,1 °C 93 % 1001,2 hPa 0,0 mm 0,8 km/h (0 Bft) W-SW 250 ° 0 min 0,000 mm 0,0 UV-I 18 W/m² 0,1 °C 3,2 km/h (1 Bft)
06.11.2016 12:18 1,1 °C 1,1 °C 93 % 1001,2 hPa 0,0 mm 0,6 km/h (0 Bft) W-SW 250 ° 0 min 0,000 mm 0,0 UV-I 18 W/m² 0,1 °C 3,2 km/h (1 Bft)
06.11.2016 12:19 1,1 °C 1,1 °C 93 % 1001,2 hPa 0,0 mm 1,3 km/h (1 Bft) W-SW 250 ° 0 min 0,000 mm 0,0 UV-I 18 W/m² 0,1 °C 3,2 km/h (1 Bft)
06.11.2016 12:20 1,0 °C 1,1 °C 93 % 1001,2 hPa 0,0 mm 0,2 km/h (0 Bft) W-SW 250 ° 0 min 0,000 mm 0,0 UV-I 16 W/m² -0,0 °C 1,6 km/h (1 Bft)
06.11.2016 12:21 1,1 °C 1,1 °C 93 % 1001,1 hPa 0,0 mm 0,2 km/h (0 Bft) W-SW 250 ° 0 min 0,000 mm 0,0 UV-I 18 W/m² 0,1 °C 1,6 km/h (1 Bft)
06.11.2016 12:22 1,0 °C 1,1 °C 93 % 1001,1 hPa 0,0 mm 0,0 km/h (0 Bft) W-SW 250 ° 0 min 0,000 mm 0,0 UV-I 19 W/m² -0,0 °C 0,0 km/h (0 Bft)
06.11.2016 12:23 1,0 °C 1,1 °C 93 % 1001,1 hPa 0,0 mm 0,5 km/h (0 Bft) W-SW 250 ° 0 min 0,000 mm 0,0 UV-I 19 W/m² -0,0 °C 1,6 km/h (1 Bft)
06.11.2016 12:24 1,0 °C 1,0 °C 94 % 1001,1 hPa 0,0 mm 0,5 km/h (0 Bft) W-SW 250 ° 0 min 0,000 mm 0,0 UV-I 19 W/m² 0,1 °C 1,6 km/h (1 Bft)
06.11.2016 12:25 1,0 °C 1,1 °C 94 % 1001,1 hPa 0,2 mm 1,1 km/h (1 Bft) SW 230 ° 0 min 0,000 mm 0,0 UV-I 19 W/m² 0,1 °C 3,2 km/h (1 Bft)
06.11.2016 12:26 1,0 °C 1,0 °C 94 % 1001,2 hPa 0,0 mm 1,0 km/h (0 Bft) SW 230 ° 0 min 0,000 mm 0,0 UV-I 19 W/m² 0,1 °C 3,2 km/h (1 Bft)
06.11.2016 12:27 1,0 °C 1,0 °C 94 % 1001,2 hPa 0,0 mm 1,3 km/h (1 Bft) SW 223 ° 0 min 0,000 mm 0,0 UV-I 21 W/m² 0,1 °C 3,2 km/h (1 Bft)
06.11.2016 12:28 1,0 °C 1,0 °C 94 % 1001,2 hPa 0,0 mm 2,8 km/h (1 Bft) SW 214 ° 0 min 0,000 mm 0,0 UV-I 21 W/m² 0,1 °C 4,8 km/h (1 Bft)
06.11.2016 12:29 1,0 °C 1,0 °C 94 % 1001,3 hPa 0,0 mm 1,9 km/h (1 Bft) SW 214 ° 0 min 0,000 mm 0,0 UV-I 21 W/m² 0,1 °C 3,2 km/h (1 Bft)
06.11.2016 12:30 1,0 °C 1,0 °C 94 % 1001,3 hPa 0,0 mm 2,4 km/h (1 Bft) SW 214 ° 0 min 0,000 mm 0,0 UV-I 19 W/m² 0,1 °C 3,2 km/h (1 Bft)
06.11.2016 12:31 0,9 °C 1,0 °C 94 % 1001,3 hPa 0,0 mm 3,1 km/h (1 Bft) SW 214 ° 0 min 0,000 mm 0,0 UV-I 19 W/m² 0,0 °C 4,8 km/h (1 Bft)
06.11.2016 12:32 0,9 °C 1,0 °C 94 % 1001,3 hPa 0,0 mm 1,9 km/h (1 Bft) SW 223 ° 0 min 0,000 mm 0,0 UV-I 16 W/m² 0,0 °C 4,8 km/h (1 Bft)
06.11.2016 12:33 0,9 °C 1,0 °C 94 % 1001,2 hPa 0,2 mm 2,3 km/h (1 Bft) SW 221 ° 0 min 0,000 mm 0,0 UV-I 14 W/m² 0,0 °C 3,2 km/h (1 Bft)
06.11.2016 12:34 0,9 °C 1,0 °C 94 % 1001,2 hPa 0,0 mm 2,7 km/h (1 Bft) SW 219 ° 0 min 0,000 mm 0,0 UV-I 14 W/m² 0,0 °C 3,2 km/h (1 Bft)
06.11.2016 12:35 0,9 °C 1,0 °C 94 % 1001,2 hPa 0,0 mm 2,9 km/h (1 Bft) S-SW 211 ° 0 min 0,000 mm 0,0 UV-I 14 W/m² 0,0 °C 4,8 km/h (1 Bft)
06.11.2016 12:36 1,0 °C 1,0 °C 94 % 1001,3 hPa 0,0 mm 3,0 km/h (1 Bft) S 177 ° 0 min 0,000 mm 0,0 UV-I 16 W/m² 0,1 °C 4,8 km/h (1 Bft)
06.11.2016 12:37 0,9 °C 1,0 °C 94 % 1001,4 hPa 0,0 mm 2,9 km/h (1 Bft) S 177 ° 0 min 0,000 mm 0,0 UV-I 18 W/m² 0,0 °C 6,4 km/h (2 Bft)
06.11.2016 12:38 0,9 °C 0,9 °C 94 % 1001,4 hPa 0,0 mm 4,0 km/h (1 Bft) S 171 ° 0 min 0,000 mm 0,0 UV-I 19 W/m² 0,0 °C 6,4 km/h (2 Bft)
06.11.2016 12:39 0,9 °C 0,9 °C 94 % 1001,4 hPa 0,0 mm 3,6 km/h (1 Bft) S 171 ° 0 min 0,000 mm 0,0 UV-I 18 W/m² 0,0 °C 6,4 km/h (2 Bft)
06.11.2016 12:40 0,9 °C 0,9 °C 94 % 1001,5 hPa 0,0 mm 1,1 km/h (1 Bft) S 171 ° 0 min 0,000 mm 0,0 UV-I 18 W/m² 0,0 °C 3,2 km/h (1 Bft)
06.11.2016 12:41 0,9 °C 0,9 °C 94 % 1001,5 hPa 0,0 mm 2,9 km/h (1 Bft) S 171 ° 0 min 0,000 mm 0,0 UV-I 16 W/m² 0,0 °C 6,4 km/h (2 Bft)
06.11.2016 12:42 0,9 °C 0,9 °C 94 % 1001,4 hPa 0,0 mm 2,9 km/h (1 Bft) S 171 ° 0 min 0,000 mm 0,0 UV-I 16 W/m² 0,0 °C 6,4 km/h (2 Bft)
06.11.2016 12:43 0,9 °C 0,9 °C 94 % 1001,5 hPa 0,0 mm 2,9 km/h (1 Bft) S 171 ° 0 min 0,000 mm 0,0 UV-I 14 W/m² 0,0 °C 6,4 km/h (2 Bft)
06.11.2016 12:44 0,9 °C 0,9 °C 94 % 1001,5 hPa 0,0 mm 1,3 km/h (1 Bft) S 171 ° 0 min 0,000 mm 0,0 UV-I 14 W/m² 0,0 °C 1,6 km/h (1 Bft)
06.11.2016 12:45 0,9 °C 0,9 °C 94 % 1001,5 hPa 0,0 mm 0,9 km/h (0 Bft) S 171 ° 0 min 0,000 mm 0,0 UV-I 14 W/m² 0,0 °C 3,2 km/h (1 Bft)
06.11.2016 12:46 0,9 °C 0,9 °C 94 % 1001,5 hPa 0,2 mm 0,3 km/h (0 Bft) S 171 ° 0 min 0,000 mm 0,0 UV-I 14 W/m² 0,0 °C 1,6 km/h (1 Bft)
06.11.2016 12:47 0,9 °C 0,9 °C 94 % 1001,5 hPa 0,0 mm 1,1 km/h (1 Bft) S 171 ° 0 min 0,000 mm 0,0 UV-I 16 W/m² 0,0 °C 3,2 km/h (1 Bft)
06.11.2016 12:48 0,9 °C 0,9 °C 94 % 1001,5 hPa 0,0 mm 1,5 km/h (1 Bft) S 171 ° 0 min 0,000 mm 0,0 UV-I 18 W/m² 0,0 °C 3,2 km/h (1 Bft)
06.11.2016 12:49 0,9 °C 0,9 °C 94 % 1001,5 hPa 0,0 mm 3,0 km/h (1 Bft) S 171 ° 0 min 0,000 mm 0,0 UV-I 18 W/m² 0,0 °C 6,4 km/h (2 Bft)
06.11.2016 12:50 0,9 °C 0,9 °C 94 % 1001,5 hPa 0,0 mm 0,2 km/h (0 Bft) S 171 ° 0 min 0,000 mm 0,0 UV-I 18 W/m² 0,0 °C 1,6 km/h (1 Bft)
06.11.2016 12:51 0,9 °C 0,9 °C 94 % 1001,5 hPa 0,0 mm 1,0 km/h (0 Bft) S 171 ° 0 min 0,000 mm 0,0 UV-I 16 W/m² 0,0 °C 1,6 km/h (1 Bft)
06.11.2016 12:52 0,9 °C 0,9 °C 94 % 1001,5 hPa 0,0 mm 0,8 km/h (0 Bft) S 171 ° 0 min 0,000 mm 0,0 UV-I 16 W/m² 0,0 °C 1,6 km/h (1 Bft)
06.11.2016 12:53 0,9 °C 0,9 °C 94 % 1001,5 hPa 0,0 mm 1,5 km/h (1 Bft) S-SW 208 ° 0 min 0,000 mm 0,0 UV-I 16 W/m² 0,0 °C 3,2 km/h (1 Bft)
06.11.2016 12:54 0,9 °C 0,9 °C 94 % 1001,5 hPa 0,0 mm 0,8 km/h (0 Bft) S-SW 208 ° 0 min 0,000 mm 0,0 UV-I 16 W/m² 0,0 °C 1,6 km/h (1 Bft)
06.11.2016 12:55 0,9 °C 0,9 °C 94 % 1001,7 hPa 0,0 mm 1,0 km/h (0 Bft) S-SW 208 ° 0 min 0,000 mm 0,0 UV-I 18 W/m² 0,0 °C 1,6 km/h (1 Bft)
06.11.2016 12:56 0,9 °C 0,9 °C 94 % 1001,6 hPa 0,0 mm 1,6 km/h (1 Bft) S-SW 208 ° 0 min 0,000 mm 0,0 UV-I 18 W/m² 0,0 °C 3,2 km/h (1 Bft)
06.11.2016 12:57 0,9 °C 0,9 °C 94 % 1001,6 hPa 0,0 mm 1,7 km/h (1 Bft) S-SW 208 ° 0 min 0,000 mm 0,0 UV-I 18 W/m² 0,0 °C 3,2 km/h (1 Bft)
06.11.2016 12:58 0,9 °C 0,9 °C 94 % 1001,7 hPa 0,0 mm 1,1 km/h (1 Bft) S-SW 208 ° 0 min 0,000 mm 0,0 UV-I 16 W/m² 0,0 °C 1,6 km/h (1 Bft)
06.11.2016 12:59 0,9 °C 0,9 °C 94 % 1001,7 hPa 0,0 mm 1,0 km/h (0 Bft) S-SW 208 ° 0 min 0,000 mm 0,0 UV-I 16 W/m² 0,0 °C 1,6 km/h (1 Bft)
06.11.2016 13:00 0,9 °C 0,9 °C 94 % 1001,7 hPa 0,0 mm 1,3 km/h (1 Bft) S-SW 208 ° 0 min 0,000 mm 0,0 UV-I 16 W/m² 0,0 °C 1,6 km/h (1 Bft)
06.11.2016 13:01 0,9 °C 0,9 °C 94 % 1001,7 hPa 0,2 mm 0,1 km/h (0 Bft) S-SW 208 ° 0 min 0,000 mm 0,0 UV-I 16 W/m² 0,0 °C 1,6 km/h (1 Bft)
06.11.2016 13:02 0,9 °C 0,9 °C 94 % 1001,6 hPa 0,0 mm 0,1 km/h (0 Bft) S-SW 208 ° 0 min 0,000 mm 0,0 UV-I 18 W/m² 0,0 °C 1,6 km/h (1 Bft)
06.11.2016 13:03 0,9 °C 0,9 °C 94 % 1001,5 hPa 0,0 mm 1,9 km/h (1 Bft) S-SW 208 ° 0 min 0,000 mm 0,0 UV-I 18 W/m² 0,0 °C 3,2 km/h (1 Bft)
06.11.2016 13:04 0,9 °C 0,9 °C 94 % 1001,4 hPa 0,0 mm 1,9 km/h (1 Bft) S-SW 208 ° 0 min 0,000 mm 0,0 UV-I 16 W/m² 0,0 °C 3,2 km/h (1 Bft)
06.11.2016 13:05 0,9 °C 0,9 °C 94 % 1001,4 hPa 0,0 mm 1,0 km/h (0 Bft) S-SW 208 ° 0 min 0,000 mm 0,0 UV-I 16 W/m² 0,0 °C 1,6 km/h (1 Bft)
06.11.2016 13:06 0,9 °C 0,9 °C 94 % 1001,4 hPa 0,0 mm 0,1 km/h (0 Bft) S-SW 208 ° 0 min 0,000 mm 0,0 UV-I 14 W/m² 0,0 °C 1,6 km/h (1 Bft)
06.11.2016 13:07 0,9 °C 0,9 °C 94 % 1001,3 hPa 0,0 mm 0,0 km/h (0 Bft) S-SW 208 ° 0 min 0,000 mm 0,0 UV-I 18 W/m² 0,0 °C 0,0 km/h (0 Bft)
06.11.2016 13:08 0,9 °C 0,9 °C 94 % 1001,5 hPa 0,0 mm 0,0 km/h (0 Bft) S-SW 208 ° 0 min 0,000 mm 0,0 UV-I 18 W/m² 0,0 °C 0,0 km/h (0 Bft)
06.11.2016 13:09 0,9 °C 0,9 °C 94 % 1001,5 hPa 0,0 mm 0,1 km/h (0 Bft) S-SW 208 ° 0 min 0,000 mm 0,0 UV-I 18 W/m² 0,0 °C 1,6 km/h (1 Bft)
06.11.2016 13:10 0,9 °C 0,9 °C 94 % 1001,4 hPa 0,0 mm 0,0 km/h (0 Bft) S-SW 208 ° 0 min 0,000 mm 0,0 UV-I 19 W/m² 0,0 °C 0,0 km/h (0 Bft)
06.11.2016 13:11 0,9 °C 0,9 °C 94 % 1001,4 hPa 0,0 mm 0,0 km/h (0 Bft) S-SW 208 ° 0 min 0,000 mm 0,0 UV-I 18 W/m² 0,0 °C 0,0 km/h (0 Bft)
06.11.2016 13:12 0,9 °C 0,9 °C 94 % 1001,4 hPa 0,0 mm 0,0 km/h (0 Bft) S-SW 208 ° 0 min 0,000 mm 0,0 UV-I 18 W/m² 0,0 °C 0,0 km/h (0 Bft)
06.11.2016 13:13 0,9 °C 0,9 °C 94 % 1001,3 hPa 0,0 mm 0,5 km/h (0 Bft) S-SW 208 ° 0 min 0,000 mm 0,0 UV-I 18 W/m² 0,0 °C 1,6 km/h (1 Bft)
06.11.2016 13:14 0,9 °C 0,9 °C 94 % 1001,4 hPa 0,0 mm 1,5 km/h (1 Bft) S-SW 208 ° 0 min 0,000 mm 0,0 UV-I 18 W/m² 0,0 °C 3,2 km/h (1 Bft)
06.11.2016 13:15 0,9 °C 0,9 °C 94 % 1001,4 hPa 0,0 mm 2,0 km/h (1 Bft) S-SW 208 ° 0 min 0,000 mm 0,0 UV-I 18 W/m² 0,0 °C 3,2 km/h (1 Bft)
06.11.2016 13:16 0,9 °C 0,9 °C 94 % 1001,4 hPa 0,0 mm 1,6 km/h (1 Bft) S-SW 208 ° 0 min 0,000 mm 0,0 UV-I 18 W/m² 0,0 °C 3,2 km/h (1 Bft)
06.11.2016 13:17 0,9 °C 0,9 °C 94 % 1001,5 hPa 0,0 mm 0,6 km/h (0 Bft) S-SW 208 ° 0 min 0,000 mm 0,0 UV-I 18 W/m² 0,0 °C 3,2 km/h (1 Bft)
06.11.2016 13:18 0,9 °C 0,9 °C 94 % 1001,5 hPa 0,2 mm 1,3 km/h (1 Bft) S-SW 208 ° 0 min 0,000 mm 0,0 UV-I 19 W/m² 0,0 °C 3,2 km/h (1 Bft)
06.11.2016 13:19 0,9 °C 0,9 °C 94 % 1001,5 hPa 0,0 mm 0,4 km/h (0 Bft) S-SW 208 ° 0 min 0,000 mm 0,0 UV-I 21 W/m² 0,0 °C 1,6 km/h (1 Bft)
06.11.2016 13:20 0,9 °C 0,9 °C 94 % 1001,5 hPa 0,0 mm 0,0 km/h (0 Bft) S-SW 208 ° 0 min 0,000 mm 0,0 UV-I 23 W/m² 0,0 °C 0,0 km/h (0 Bft)
06.11.2016 13:21 1,0 °C 1,0 °C 94 % 1001,4 hPa 0,0 mm 0,0 km/h (0 Bft) S-SW 208 ° 0 min 0,000 mm 0,0 UV-I 25 W/m² 0,1 °C 0,0 km/h (0 Bft)
06.11.2016 13:22 1,0 °C 1,0 °C 94 % 1001,4 hPa 0,0 mm 0,2 km/h (0 Bft) S-SW 208 ° 0 min 0,000 mm 0,0 UV-I 28 W/m² 0,1 °C 1,6 km/h (1 Bft)
06.11.2016 13:23 1,0 °C 1,0 °C 94 % 1001,4 hPa 0,0 mm 1,7 km/h (1 Bft) S-SW 207 ° 0 min 0,000 mm 0,0 UV-I 32 W/m² 0,1 °C 3,2 km/h (1 Bft)
06.11.2016 13:24 1,0 °C 1,1 °C 94 % 1001,3 hPa 0,0 mm 1,0 km/h (0 Bft) S-SW 207 ° 0 min 0,000 mm 0,0 UV-I 33 W/m² 0,1 °C 1,6 km/h (1 Bft)
06.11.2016 13:25 1,1 °C 1,1 °C 94 % 1001,3 hPa 0,0 mm 0,0 km/h (0 Bft) S-SW 207 ° 0 min 0,000 mm 0,0 UV-I 35 W/m² 0,2 °C 0,0 km/h (0 Bft)
06.11.2016 13:26 1,1 °C 1,1 °C 94 % 1001,4 hPa 0,0 mm 0,0 km/h (0 Bft) S-SW 207 ° 0 min 0,000 mm 0,0 UV-I 33 W/m² 0,2 °C 0,0 km/h (0 Bft)
06.11.2016 13:27 1,1 °C 1,1 °C 94 % 1001,3 hPa 0,0 mm 0,0 km/h (0 Bft) S-SW 207 ° 0 min 0,000 mm 0,0 UV-I 33 W/m² 0,2 °C 0,0 km/h (0 Bft)
06.11.2016 13:28 1,1 °C 1,1 °C 94 % 1001,3 hPa 0,0 mm 0,0 km/h (0 Bft) S-SW 207 ° 0 min 0,000 mm 0,0 UV-I 32 W/m² 0,2 °C 0,0 km/h (0 Bft)
06.11.2016 13:29 1,1 °C 1,1 °C 94 % 1001,2 hPa 0,0 mm 0,0 km/h (0 Bft) S-SW 207 ° 0 min 0,000 mm 0,0 UV-I 30 W/m² 0,2 °C 0,0 km/h (0 Bft)
06.11.2016 13:30 1,1 °C 1,1 °C 94 % 1001,2 hPa 0,2 mm 0,0 km/h (0 Bft) S-SW 207 ° 0 min 0,000 mm 0,0 UV-I 25 W/m² 0,2 °C 0,0 km/h (0 Bft)
06.11.2016 13:31 1,1 °C 1,1 °C 94 % 1001,3 hPa 0,0 mm 0,0 km/h (0 Bft) S-SW 207 ° 0 min 0,000 mm 0,0 UV-I 23 W/m² 0,2 °C 0,0 km/h (0 Bft)
06.11.2016 13:32 1,1 °C 1,1 °C 94 % 1001,3 hPa 0,0 mm 0,0 km/h (0 Bft) S-SW 207 ° 0 min 0,000 mm 0,0 UV-I 21 W/m² 0,2 °C 0,0 km/h (0 Bft)
06.11.2016 13:33 1,1 °C 1,1 °C 94 % 1001,3 hPa 0,0 mm 0,0 km/h (0 Bft) S-SW 207 ° 0 min 0,000 mm 0,0 UV-I 19 W/m² 0,2 °C 0,0 km/h (0 Bft)
06.11.2016 13:34 1,1 °C 1,1 °C 94 % 1001,3 hPa 0,0 mm 0,0 km/h (0 Bft) S-SW 207 ° 0 min 0,000 mm 0,0 UV-I 18 W/m² 0,2 °C 0,0 km/h (0 Bft)
06.11.2016 13:35 1,1 °C 1,2 °C 94 % 1001,3 hPa 0,0 mm 0,2 km/h (0 Bft) S-SW 207 ° 0 min 0,000 mm 0,0 UV-I 16 W/m² 0,2 °C 1,6 km/h (1 Bft)
06.11.2016 13:36 1,1 °C 1,2 °C 94 % 1001,3 hPa 0,0 mm 0,9 km/h (0 Bft) S-SW 207 ° 0 min 0,000 mm 0,0 UV-I 18 W/m² 0,2 °C 1,6 km/h (1 Bft)
06.11.2016 13:37 1,2 °C 1,2 °C 94 % 1001,3 hPa 0,0 mm 1,2 km/h (1 Bft) S-SW 207 ° 0 min 0,000 mm 0,0 UV-I 19 W/m² 0,3 °C 1,6 km/h (1 Bft)
06.11.2016 13:38 1,2 °C 1,2 °C 94 % 1001,3 hPa 0,0 mm 2,0 km/h (1 Bft) S-SW 208 ° 0 min 0,000 mm 0,0 UV-I 21 W/m² 0,3 °C 3,2 km/h (1 Bft)
06.11.2016 13:39 1,1 °C 1,2 °C 94 % 1001,3 hPa 0,0 mm 1,7 km/h (1 Bft) S-SW 208 ° 0 min 0,000 mm 0,0 UV-I 21 W/m² 0,2 °C 3,2 km/h (1 Bft)
06.11.2016 13:40 1,1 °C 1,1 °C 94 % 1001,2 hPa 0,0 mm 0,4 km/h (0 Bft) S-SW 208 ° 0 min 0,000 mm 0,0 UV-I 21 W/m² 0,2 °C 1,6 km/h (1 Bft)
06.11.2016 13:41 1,1 °C 1,1 °C 94 % 1001,1 hPa 0,2 mm 0,0 km/h (0 Bft) S-SW 208 ° 0 min 0,000 mm 0,0 UV-I 21 W/m² 0,2 °C 0,0 km/h (0 Bft)
06.11.2016 13:42 1,1 °C 1,1 °C 94 % 1001,0 hPa 0,0 mm 0,0 km/h (0 Bft) S-SW 208 ° 0 min 0,000 mm 0,0 UV-I 21 W/m² 0,2 °C 0,0 km/h (0 Bft)
06.11.2016 13:43 1,1 °C 1,1 °C 94 % 1001,0 hPa 0,0 mm 0,1 km/h (0 Bft) S-SW 208 ° 0 min 0,000 mm 0,0 UV-I 21 W/m² 0,2 °C 1,6 km/h (1 Bft)
06.11.2016 13:44 1,1 °C 1,1 °C 94 % 1001,0 hPa 0,0 mm 0,1 km/h (0 Bft) S-SW 208 ° 0 min 0,000 mm 0,0 UV-I 19 W/m² 0,2 °C 1,6 km/h (1 Bft)
06.11.2016 13:45 1,1 °C 1,1 °C 94 % 1001,0 hPa 0,0 mm 0,0 km/h (0 Bft) S-SW 208 ° 0 min 0,000 mm 0,0 UV-I 19 W/m² 0,2 °C 0,0 km/h (0 Bft)
06.11.2016 13:46 1,1 °C 1,1 °C 93 % 1001,0 hPa 0,0 mm 0,0 km/h (0 Bft) S-SW 208 ° 0 min 0,000 mm 0,0 UV-I 19 W/m² 0,1 °C 0,0 km/h (0 Bft)
06.11.2016 13:47 1,1 °C 1,1 °C 94 % 1000,9 hPa 0,0 mm 0,1 km/h (0 Bft) S-SW 208 ° 0 min 0,000 mm 0,0 UV-I 18 W/m² 0,2 °C 1,6 km/h (1 Bft)
06.11.2016 13:48 1,1 °C 1,1 °C 93 % 1000,9 hPa 0,0 mm 0,0 km/h (0 Bft) S-SW 208 ° 0 min 0,000 mm 0,0 UV-I 18 W/m² 0,1 °C 0,0 km/h (0 Bft)
06.11.2016 13:49 1,1 °C 1,1 °C 93 % 1001,0 hPa 0,0 mm 0,0 km/h (0 Bft) S-SW 208 ° 0 min 0,000 mm 0,0 UV-I 18 W/m² 0,1 °C 0,0 km/h (0 Bft)
06.11.2016 13:50 1,1 °C 1,1 °C 93 % 1000,9 hPa 0,0 mm 0,0 km/h (0 Bft) S-SW 208 ° 0 min 0,000 mm 0,0 UV-I 16 W/m² 0,1 °C 0,0 km/h (0 Bft)
06.11.2016 13:51 1,1 °C 1,1 °C 93 % 1000,9 hPa 0,0 mm 0,0 km/h (0 Bft) S-SW 208 ° 0 min 0,000 mm 0,0 UV-I 16 W/m² 0,1 °C 0,0 km/h (0 Bft)
06.11.2016 13:52 1,1 °C 1,1 °C 93 % 1000,9 hPa 0,0 mm 0,0 km/h (0 Bft) S-SW 208 ° 0 min 0,000 mm 0,0 UV-I 16 W/m² 0,1 °C 0,0 km/h (0 Bft)
06.11.2016 13:53 1,1 °C 1,1 °C 93 % 1000,9 hPa 0,0 mm 0,0 km/h (0 Bft) S-SW 208 ° 0 min 0,000 mm 0,0 UV-I 16 W/m² 0,1 °C 0,0 km/h (0 Bft)
06.11.2016 13:54 1,1 °C 1,1 °C 93 % 1000,9 hPa 0,0 mm 0,4 km/h (0 Bft) S-SW 192 ° 0 min 0,000 mm 0,0 UV-I 16 W/m² 0,1 °C 1,6 km/h (1 Bft)
06.11.2016 13:55 1,1 °C 1,1 °C 93 % 1000,9 hPa 0,0 mm 0,8 km/h (0 Bft) S-SW 192 ° 0 min 0,000 mm 0,0 UV-I 14 W/m² 0,1 °C 1,6 km/h (1 Bft)
06.11.2016 13:56 1,1 °C 1,1 °C 93 % 1001,0 hPa 0,0 mm 0,5 km/h (0 Bft) S-SW 192 ° 0 min 0,000 mm 0,0 UV-I 14 W/m² 0,1 °C 1,6 km/h (1 Bft)
06.11.2016 13:57 1,1 °C 1,1 °C 93 % 1001,0 hPa 0,0 mm 0,9 km/h (0 Bft) S-SW 192 ° 0 min 0,000 mm 0,0 UV-I 14 W/m² 0,1 °C 3,2 km/h (1 Bft)
06.11.2016 13:58 1,1 °C 1,1 °C 93 % 1001,0 hPa 0,0 mm 2,3 km/h (1 Bft) S 175 ° 0 min 0,000 mm 0,0 UV-I 12 W/m² 0,1 °C 4,8 km/h (1 Bft)
06.11.2016 13:59 1,1 °C 1,1 °C 93 % 1001,0 hPa 0,0 mm 1,1 km/h (1 Bft) S 176 ° 0 min 0,000 mm 0,0 UV-I 12 W/m² 0,1 °C 3,2 km/h (1 Bft)
06.11.2016 14:00 1,1 °C 1,1 °C 93 % 1001,0 hPa 0,2 mm 0,1 km/h (0 Bft) S 176 ° 0 min 0,000 mm 0,0 UV-I 12 W/m² 0,1 °C 1,6 km/h (1 Bft)
06.11.2016 14:01 1,1 °C 1,1 °C 93 % 1001,0 hPa 0,0 mm 0,1 km/h (0 Bft) S 176 ° 0 min 0,000 mm 0,0 UV-I 12 W/m² 0,1 °C 1,6 km/h (1 Bft)
06.11.2016 14:02 1,0 °C 1,1 °C 93 % 1000,9 hPa 0,0 mm 1,0 km/h (0 Bft) S 176 ° 0 min 0,000 mm 0,0 UV-I 12 W/m² -0,0 °C 1,6 km/h (1 Bft)
06.11.2016 14:03 1,1 °C 1,1 °C 93 % 1001,0 hPa 0,0 mm 1,6 km/h (1 Bft) S-SW 206 ° 0 min 0,000 mm 0,0 UV-I 12 W/m² 0,1 °C 3,2 km/h (1 Bft)
06.11.2016 14:04 1,0 °C 1,1 °C 93 % 1001,0 hPa 0,0 mm 1,4 km/h (1 Bft) S-SW 206 ° 0 min 0,000 mm 0,0 UV-I 12 W/m² -0,0 °C 3,2 km/h (1 Bft)
06.11.2016 14:05 1,0 °C 1,0 °C 93 % 1001,0 hPa 0,0 mm 2,0 km/h (1 Bft) SW 217 ° 0 min 0,000 mm 0,0 UV-I 12 W/m² -0,0 °C 3,2 km/h (1 Bft)
06.11.2016 14:06 1,0 °C 1,0 °C 93 % 1000,9 hPa 0,0 mm 2,4 km/h (1 Bft) SW 217 ° 0 min 0,000 mm 0,0 UV-I 12 W/m² -0,0 °C 3,2 km/h (1 Bft)
06.11.2016 14:07 1,0 °C 1,0 °C 93 % 1001,0 hPa 0,0 mm 1,7 km/h (1 Bft) SW 217 ° 0 min 0,000 mm 0,0 UV-I 11 W/m² -0,0 °C 3,2 km/h (1 Bft)
06.11.2016 14:08 1,0 °C 1,0 °C 93 % 1000,9 hPa 0,0 mm 1,0 km/h (0 Bft) SW 217 ° 0 min 0,000 mm 0,0 UV-I 11 W/m² -0,0 °C 3,2 km/h (1 Bft)
06.11.2016 14:09 1,0 °C 1,0 °C 93 % 1000,9 hPa 0,0 mm 2,5 km/h (1 Bft) SW 217 ° 0 min 0,000 mm 0,0 UV-I 11 W/m² -0,0 °C 3,2 km/h (1 Bft)
06.11.2016 14:10 1,0 °C 1,0 °C 93 % 1000,9 hPa 0,0 mm 2,9 km/h (1 Bft) SW 223 ° 0 min 0,000 mm 0,0 UV-I 11 W/m² -0,0 °C 4,8 km/h (1 Bft)
06.11.2016 14:11 0,9 °C 1,0 °C 93 % 1001,0 hPa 0,0 mm 3,7 km/h (1 Bft) W-SW 253 ° 0 min 0,000 mm 0,0 UV-I 9 W/m² -0,1 °C 4,8 km/h (1 Bft)
06.11.2016 14:12 0,9 °C 1,0 °C 93 % 1001,0 hPa 0,0 mm 4,1 km/h (1 Bft) W-SW 245 ° 0 min 0,000 mm 0,0 UV-I 11 W/m² -0,1 °C 4,8 km/h (1 Bft)
06.11.2016 14:13 0,9 °C 0,9 °C 93 % 1001,0 hPa 0,0 mm 1,3 km/h (1 Bft) W-SW 245 ° 0 min 0,000 mm 0,0 UV-I 11 W/m² -0,1 °C 3,2 km/h (1 Bft)
06.11.2016 14:14 0,9 °C 0,9 °C 93 % 1001,0 hPa 0,0 mm 1,9 km/h (1 Bft) SW 230 ° 0 min 0,000 mm 0,0 UV-I 11 W/m² -0,1 °C 3,2 km/h (1 Bft)
06.11.2016 14:15 0,9 °C 0,9 °C 93 % 1001,1 hPa 0,0 mm 2,8 km/h (1 Bft) SW 218 ° 0 min 0,000 mm 0,0 UV-I 11 W/m² -0,1 °C 4,8 km/h (1 Bft)
06.11.2016 14:16 0,9 °C 0,9 °C 93 % 1001,1 hPa 0,0 mm 4,4 km/h (1 Bft) S 188 ° 0 min 0,000 mm 0,0 UV-I 11 W/m² -0,1 °C 8,0 km/h (2 Bft)
06.11.2016 14:17 0,9 °C 0,9 °C 93 % 1001,2 hPa 0,0 mm 2,3 km/h (1 Bft) S 190 ° 0 min 0,000 mm 0,0 UV-I 11 W/m² -0,1 °C 4,8 km/h (1 Bft)
06.11.2016 14:18 0,8 °C 0,9 °C 93 % 1001,2 hPa 0,0 mm 2,1 km/h (1 Bft) S 190 ° 0 min 0,000 mm 0,0 UV-I 11 W/m² -0,2 °C 3,2 km/h (1 Bft)
06.11.2016 14:19 0,8 °C 0,8 °C 94 % 1001,2 hPa 0,0 mm 3,0 km/h (1 Bft) S-SW 194 ° 0 min 0,000 mm 0,0 UV-I 11 W/m² -0,1 °C 3,2 km/h (1 Bft)
06.11.2016 14:20 0,8 °C 0,8 °C 93 % 1001,2 hPa 0,0 mm 2,8 km/h (1 Bft) S-SW 202 ° 0 min 0,000 mm 0,0 UV-I 11 W/m² -0,2 °C 4,8 km/h (1 Bft)
06.11.2016 14:21 0,8 °C 0,8 °C 93 % 1001,2 hPa 0,0 mm 2,0 km/h (1 Bft) S-SW 202 ° 0 min 0,000 mm 0,0 UV-I 11 W/m² -0,2 °C 3,2 km/h (1 Bft)
06.11.2016 14:22 0,8 °C 0,8 °C 93 % 1001,2 hPa 0,0 mm 1,4 km/h (1 Bft) S-SW 202 ° 0 min 0,000 mm 0,0 UV-I 11 W/m² -0,2 °C 3,2 km/h (1 Bft)
06.11.2016 14:23 0,8 °C 0,8 °C 93 % 1001,3 hPa 0,0 mm 3,0 km/h (1 Bft) S 189 ° 0 min 0,000 mm 0,0 UV-I 9 W/m² -0,2 °C 4,8 km/h (1 Bft)
06.11.2016 14:24 0,8 °C 0,8 °C 93 % 1001,3 hPa 0,0 mm 2,3 km/h (1 Bft) S 189 ° 0 min 0,000 mm 0,0 UV-I 9 W/m² -0,2 °C 4,8 km/h (1 Bft)
06.11.2016 14:25 0,8 °C 0,8 °C 94 % 1001,3 hPa 0,0 mm 2,3 km/h (1 Bft) S 190 ° 0 min 0,000 mm 0,0 UV-I 9 W/m² -0,1 °C 4,8 km/h (1 Bft)
06.11.2016 14:26 0,8 °C 0,8 °C 94 % 1001,4 hPa 0,0 mm 3,1 km/h (1 Bft) S-SW 202 ° 0 min 0,000 mm 0,0 UV-I 9 W/m² -0,1 °C 6,4 km/h (2 Bft)
06.11.2016 14:27 0,8 °C 0,8 °C 94 % 1001,3 hPa 0,0 mm 3,2 km/h (1 Bft) S-SW 198 ° 0 min 0,000 mm 0,0 UV-I 9 W/m² -0,1 °C 4,8 km/h (1 Bft)
06.11.2016 14:28 0,8 °C 0,8 °C 94 % 1001,4 hPa 0,2 mm 3,3 km/h (1 Bft) S-SW 198 ° 0 min 0,000 mm 0,0 UV-I 11 W/m² -0,1 °C 4,8 km/h (1 Bft)
06.11.2016 14:29 0,8 °C 0,8 °C 94 % 1001,4 hPa 0,0 mm 4,5 km/h (1 Bft) SW 215 ° 0 min 0,000 mm 0,0 UV-I 9 W/m² -0,1 °C 8,0 km/h (2 Bft)
06.11.2016 14:30 0,8 °C 0,8 °C 94 % 1001,5 hPa 0,0 mm 2,3 km/h (1 Bft) S-SW 192 ° 0 min 0,000 mm 0,0 UV-I 9 W/m² -0,1 °C 4,8 km/h (1 Bft)
06.11.2016 14:31 0,8 °C 0,8 °C 94 % 1001,5 hPa 0,0 mm 3,1 km/h (1 Bft) S 184 ° 0 min 0,000 mm 0,0 UV-I 9 W/m² -0,1 °C 8,0 km/h (2 Bft)
06.11.2016 14:32 0,8 °C 0,8 °C 94 % 1001,5 hPa 0,0 mm 2,0 km/h (1 Bft) S 190 ° 0 min 0,000 mm 0,0 UV-I 9 W/m² -0,1 °C 3,2 km/h (1 Bft)
06.11.2016 14:33 0,8 °C 0,8 °C 94 % 1001,5 hPa 0,0 mm 2,0 km/h (1 Bft) S 191 ° 0 min 0,000 mm 0,0 UV-I 9 W/m² -0,1 °C 3,2 km/h (1 Bft)
06.11.2016 14:34 0,8 °C 0,8 °C 94 % 1001,5 hPa 0,0 mm 3,7 km/h (1 Bft) S-SW 204 ° 0 min 0,000 mm 0,0 UV-I 9 W/m² -0,1 °C 6,4 km/h (2 Bft)
06.11.2016 14:35 0,8 °C 0,8 °C 94 % 1001,4 hPa 0,0 mm 3,2 km/h (1 Bft) S 187 ° 0 min 0,000 mm 0,0 UV-I 9 W/m² -0,1 °C 4,8 km/h (1 Bft)
06.11.2016 14:36 0,8 °C 0,8 °C 94 % 1001,5 hPa 0,0 mm 3,8 km/h (1 Bft) S-SW 197 ° 0 min 0,000 mm 0,0 UV-I 11 W/m² -0,1 °C 4,8 km/h (1 Bft)
06.11.2016 14:37 0,8 °C 0,8 °C 94 % 1001,5 hPa 0,0 mm 1,8 km/h (1 Bft) S-SW 197 ° 0 min 0,000 mm 0,0 UV-I 11 W/m² -0,1 °C 3,2 km/h (1 Bft)
06.11.2016 14:38 0,8 °C 0,8 °C 94 % 1001,5 hPa 0,0 mm 3,9 km/h (1 Bft) S 190 ° 0 min 0,000 mm 0,0 UV-I 11 W/m² -0,1 °C 6,4 km/h (2 Bft)
06.11.2016 14:39 0,8 °C 0,8 °C 94 % 1001,5 hPa 0,0 mm 5,7 km/h (1 Bft) S-SW 192 ° 0 min 0,000 mm 0,0 UV-I 11 W/m² -0,1 °C 9,7 km/h (2 Bft)
06.11.2016 14:40 0,8 °C 0,8 °C 94 % 1001,5 hPa 0,0 mm 3,6 km/h (1 Bft) S-SW 199 ° 0 min 0,000 mm 0,0 UV-I 9 W/m² -0,1 °C 4,8 km/h (1 Bft)
06.11.2016 14:41 0,8 °C 0,8 °C 94 % 1001,5 hPa 0,0 mm 0,5 km/h (0 Bft) S-SW 199 ° 0 min 0,000 mm 0,0 UV-I 9 W/m² -0,1 °C 3,2 km/h (1 Bft)
06.11.2016 14:42 0,8 °C 0,8 °C 94 % 1001,4 hPa 0,0 mm 0,5 km/h (0 Bft) S-SW 199 ° 0 min 0,000 mm 0,0 UV-I 9 W/m² -0,1 °C 1,6 km/h (1 Bft)
06.11.2016 14:43 0,8 °C 0,8 °C 94 % 1001,4 hPa 0,2 mm 1,5 km/h (1 Bft) S 179 ° 0 min 0,000 mm 0,0 UV-I 9 W/m² -0,1 °C 4,8 km/h (1 Bft)
06.11.2016 14:44 0,8 °C 0,8 °C 94 % 1001,4 hPa 0,0 mm 1,4 km/h (1 Bft) S 179 ° 0 min 0,000 mm 0,0 UV-I 9 W/m² -0,1 °C 3,2 km/h (1 Bft)
06.11.2016 14:45 0,8 °C 0,8 °C 94 % 1001,3 hPa 0,0 mm 0,7 km/h (0 Bft) S 180 ° 0 min 0,000 mm 0,0 UV-I 11 W/m² -0,1 °C 3,2 km/h (1 Bft)
06.11.2016 14:46 0,8 °C 0,8 °C 94 % 1001,3 hPa 0,0 mm 1,0 km/h (0 Bft) S 180 ° 0 min 0,000 mm 0,0 UV-I 11 W/m² -0,1 °C 1,6 km/h (1 Bft)
06.11.2016 14:47 0,8 °C 0,8 °C 94 % 1001,3 hPa 0,0 mm 0,3 km/h (0 Bft) S 180 ° 0 min 0,000 mm 0,0 UV-I 12 W/m² -0,1 °C 1,6 km/h (1 Bft)
06.11.2016 14:48 0,8 °C 0,8 °C 94 % 1001,2 hPa 0,0 mm 0,1 km/h (0 Bft) S 180 ° 0 min 0,000 mm 0,0 UV-I 12 W/m² -0,1 °C 1,6 km/h (1 Bft)
06.11.2016 14:49 0,8 °C 0,8 °C 94 % 1001,2 hPa 0,0 mm 0,7 km/h (0 Bft) S 180 ° 0 min 0,000 mm 0,0 UV-I 12 W/m² -0,1 °C 1,6 km/h (1 Bft)
06.11.2016 14:50 0,8 °C 0,9 °C 94 % 1001,2 hPa 0,0 mm 0,0 km/h (0 Bft) S 180 ° 0 min 0,000 mm 0,0 UV-I 14 W/m² -0,1 °C 0,0 km/h (0 Bft)
06.11.2016 14:51 0,8 °C 0,9 °C 94 % 1001,2 hPa 0,0 mm 0,3 km/h (0 Bft) S 180 ° 0 min 0,000 mm 0,0 UV-I 14 W/m² -0,1 °C 1,6 km/h (1 Bft)
06.11.2016 14:52 0,8 °C 0,9 °C 94 % 1001,2 hPa 0,0 mm 0,1 km/h (0 Bft) S 180 ° 0 min 0,000 mm 0,0 UV-I 12 W/m² -0,1 °C 1,6 km/h (1 Bft)
06.11.2016 14:53 0,8 °C 0,9 °C 94 % 1001,3 hPa 0,0 mm 2,5 km/h (1 Bft) SW 220 ° 0 min 0,000 mm 0,0 UV-I 12 W/m² -0,1 °C 4,8 km/h (1 Bft)
06.11.2016 14:54 0,9 °C 0,9 °C 94 % 1001,3 hPa 0,0 mm 1,1 km/h (1 Bft) SW 220 ° 0 min 0,000 mm 0,0 UV-I 12 W/m² 0,0 °C 3,2 km/h (1 Bft)
06.11.2016 14:55 0,9 °C 0,9 °C 94 % 1001,3 hPa 0,0 mm 1,0 km/h (0 Bft) SW 220 ° 0 min 0,000 mm 0,0 UV-I 11 W/m² 0,0 °C 1,6 km/h (1 Bft)
06.11.2016 14:56 0,9 °C 0,9 °C 94 % 1001,2 hPa 0,0 mm 0,2 km/h (0 Bft) SW 220 ° 0 min 0,000 mm 0,0 UV-I 11 W/m² 0,0 °C 1,6 km/h (1 Bft)
06.11.2016 14:57 0,9 °C 0,9 °C 94 % 1001,2 hPa 0,0 mm 0,5 km/h (0 Bft) SW 220 ° 0 min 0,000 mm 0,0 UV-I 11 W/m² 0,0 °C 1,6 km/h (1 Bft)
06.11.2016 14:58 0,9 °C 0,9 °C 94 % 1001,2 hPa 0,0 mm 0,8 km/h (0 Bft) SW 220 ° 0 min 0,000 mm 0,0 UV-I 11 W/m² 0,0 °C 1,6 km/h (1 Bft)
06.11.2016 14:59 0,9 °C 0,9 °C 94 % 1001,3 hPa 0,2 mm 0,0 km/h (0 Bft) SW 220 ° 0 min 0,000 mm 0,0 UV-I 11 W/m² 0,0 °C 0,0 km/h (0 Bft)
06.11.2016 15:00 0,9 °C 0,9 °C 94 % 1001,3 hPa 0,0 mm 0,7 km/h (0 Bft) SW 220 ° 0 min 0,000 mm 0,0 UV-I 11 W/m² 0,0 °C 1,6 km/h (1 Bft)
06.11.2016 15:01 0,9 °C 0,9 °C 94 % 1001,5 hPa 0,0 mm 1,9 km/h (1 Bft) SW 220 ° 0 min 0,000 mm 0,0 UV-I 9 W/m² 0,0 °C 3,2 km/h (1 Bft)
06.11.2016 15:02 0,9 °C 0,9 °C 94 % 1001,7 hPa 0,0 mm 1,5 km/h (1 Bft) SW 220 ° 0 min 0,000 mm 0,0 UV-I 9 W/m² 0,0 °C 3,2 km/h (1 Bft)
06.11.2016 15:03 0,9 °C 0,9 °C 94 % 1001,8 hPa 0,0 mm 1,0 km/h (0 Bft) SW 220 ° 0 min 0,000 mm 0,0 UV-I 9 W/m² 0,0 °C 1,6 km/h (1 Bft)
06.11.2016 15:04 0,9 °C 0,9 °C 94 % 1001,8 hPa 0,0 mm 2,2 km/h (1 Bft) S 188 ° 0 min 0,000 mm 0,0 UV-I 7 W/m² 0,0 °C 3,2 km/h (1 Bft)
06.11.2016 15:05 0,9 °C 0,9 °C 94 % 1001,9 hPa 0,0 mm 2,5 km/h (1 Bft) S 184 ° 0 min 0,000 mm 0,0 UV-I 7 W/m² 0,0 °C 4,8 km/h (1 Bft)
06.11.2016 15:06 0,9 °C 0,9 °C 94 % 1001,8 hPa 0,0 mm 1,2 km/h (1 Bft) S 181 ° 0 min 0,000 mm 0,0 UV-I 7 W/m² 0,0 °C 3,2 km/h (1 Bft)
06.11.2016 15:07 0,8 °C 0,9 °C 94 % 1001,7 hPa 0,0 mm 0,1 km/h (0 Bft) S 181 ° 0 min 0,000 mm 0,0 UV-I 7 W/m² -0,1 °C 1,6 km/h (1 Bft)
06.11.2016 15:08 0,8 °C 0,9 °C 94 % 1001,7 hPa 0,0 mm 1,0 km/h (0 Bft) S 181 ° 0 min 0,000 mm 0,0 UV-I 7 W/m² -0,1 °C 1,6 km/h (1 Bft)
06.11.2016 15:09 0,9 °C 0,9 °C 94 % 1001,6 hPa 0,0 mm 0,3 km/h (0 Bft) S 181 ° 0 min 0,000 mm 0,0 UV-I 7 W/m² 0,0 °C 1,6 km/h (1 Bft)
06.11.2016 15:10 0,8 °C 0,9 °C 94 % 1001,6 hPa 0,0 mm 0,1 km/h (0 Bft) S 181 ° 0 min 0,000 mm 0,0 UV-I 7 W/m² -0,1 °C 1,6 km/h (1 Bft)
06.11.2016 15:11 0,9 °C 0,9 °C 94 % 1001,6 hPa 0,0 mm 0,2 km/h (0 Bft) S-SW 213 ° 0 min 0,000 mm 0,0 UV-I 7 W/m² 0,0 °C 1,6 km/h (1 Bft)
06.11.2016 15:12 0,8 °C 0,9 °C 94 % 1001,6 hPa 0,0 mm 3,5 km/h (1 Bft) W-SW 240 ° 0 min 0,000 mm 0,0 UV-I 5 W/m² -0,1 °C 4,8 km/h (1 Bft)
06.11.2016 15:13 0,8 °C 0,8 °C 94 % 1001,6 hPa 0,0 mm 1,1 km/h (1 Bft) W-SW 240 ° 0 min 0,000 mm 0,0 UV-I 5 W/m² -0,1 °C 3,2 km/h (1 Bft)
06.11.2016 15:14 0,8 °C 0,9 °C 94 % 1001,7 hPa 0,0 mm 0,4 km/h (0 Bft) W-SW 240 ° 0 min 0,000 mm 0,0 UV-I 7 W/m² -0,1 °C 1,6 km/h (1 Bft)
06.11.2016 15:15 0,8 °C 0,8 °C 94 % 1001,7 hPa 0,0 mm 2,9 km/h (1 Bft) S-SW 192 ° 0 min 0,000 mm 0,0 UV-I 5 W/m² -0,1 °C 6,4 km/h (2 Bft)
06.11.2016 15:16 0,8 °C 0,8 °C 94 % 1001,6 hPa 0,0 mm 2,9 km/h (1 Bft) S 188 ° 0 min 0,000 mm 0,0 UV-I 5 W/m² -0,1 °C 4,8 km/h (1 Bft)
06.11.2016 15:17 0,8 °C 0,8 °C 94 % 1001,7 hPa 0,0 mm 1,1 km/h (1 Bft) S 188 ° 0 min 0,000 mm 0,0 UV-I 5 W/m² -0,1 °C 3,2 km/h (1 Bft)
06.11.2016 15:18 0,8 °C 0,8 °C 94 % 1001,6 hPa 0,0 mm 0,2 km/h (0 Bft) S 188 ° 0 min 0,000 mm 0,0 UV-I 5 W/m² -0,1 °C 1,6 km/h (1 Bft)
06.11.2016 15:19 0,8 °C 0,8 °C 94 % 1001,6 hPa 0,0 mm 0,5 km/h (0 Bft) S 188 ° 0 min 0,000 mm 0,0 UV-I 5 W/m² -0,1 °C 1,6 km/h (1 Bft)
06.11.2016 15:20 0,8 °C 0,8 °C 94 % 1001,6 hPa 0,0 mm 1,0 km/h (0 Bft) S 188 ° 0 min 0,000 mm 0,0 UV-I 5 W/m² -0,1 °C 3,2 km/h (1 Bft)
06.11.2016 15:21 0,8 °C 0,8 °C 94 % 1001,6 hPa 0,0 mm 1,1 km/h (1 Bft) S 188 ° 0 min 0,000 mm 0,0 UV-I 5 W/m² -0,1 °C 1,6 km/h (1 Bft)
06.11.2016 15:22 0,8 °C 0,8 °C 94 % 1001,7 hPa 0,0 mm 1,2 km/h (1 Bft) S 188 ° 0 min 0,000 mm 0,0 UV-I 5 W/m² -0,1 °C 3,2 km/h (1 Bft)
06.11.2016 15:23 0,8 °C 0,8 °C 94 % 1001,7 hPa 0,0 mm 1,3 km/h (1 Bft) S 188 ° 0 min 0,000 mm 0,0 UV-I 5 W/m² -0,1 °C 3,2 km/h (1 Bft)
06.11.2016 15:24 0,8 °C 0,8 °C 94 % 1001,7 hPa 0,0 mm 0,6 km/h (0 Bft) S 188 ° 0 min 0,000 mm 0,0 UV-I 5 W/m² -0,1 °C 1,6 km/h (1 Bft)
06.11.2016 15:25 0,8 °C 0,8 °C 94 % 1001,7 hPa 0,0 mm 0,5 km/h (0 Bft) S 188 ° 0 min 0,000 mm 0,0 UV-I 5 W/m² -0,1 °C 1,6 km/h (1 Bft)
06.11.2016 15:26 0,8 °C 0,8 °C 94 % 1001,7 hPa 0,2 mm 3,1 km/h (1 Bft) S 175 ° 0 min 0,000 mm 0,0 UV-I 5 W/m² -0,1 °C 8,0 km/h (2 Bft)
06.11.2016 15:27 0,8 °C 0,8 °C 94 % 1001,7 hPa 0,0 mm 2,5 km/h (1 Bft) S 175 ° 0 min 0,000 mm 0,0 UV-I 5 W/m² -0,1 °C 4,8 km/h (1 Bft)
06.11.2016 15:28 0,8 °C 0,8 °C 94 % 1001,7 hPa 0,0 mm 0,5 km/h (0 Bft) S 175 ° 0 min 0,000 mm 0,0 UV-I 5 W/m² -0,1 °C 1,6 km/h (1 Bft)
06.11.2016 15:29 0,8 °C 0,8 °C 94 % 1001,7 hPa 0,0 mm 0,2 km/h (0 Bft) S 175 ° 0 min 0,000 mm 0,0 UV-I 5 W/m² -0,1 °C 1,6 km/h (1 Bft)
06.11.2016 15:30 0,8 °C 0,8 °C 94 % 1001,6 hPa 0,0 mm 0,6 km/h (0 Bft) S 175 ° 0 min 0,000 mm 0,0 UV-I 5 W/m² -0,1 °C 1,6 km/h (1 Bft)
06.11.2016 15:31 0,8 °C 0,8 °C 94 % 1001,6 hPa 0,0 mm 0,2 km/h (0 Bft) S 175 ° 0 min 0,000 mm 0,0 UV-I 5 W/m² -0,1 °C 1,6 km/h (1 Bft)
06.11.2016 15:32 0,8 °C 0,8 °C 93 % 1001,6 hPa 0,0 mm 0,1 km/h (0 Bft) S 175 ° 0 min 0,000 mm 0,0 UV-I 5 W/m² -0,2 °C 1,6 km/h (1 Bft)
06.11.2016 15:33 0,8 °C 0,8 °C 94 % 1001,6 hPa 0,0 mm 0,0 km/h (0 Bft) S 175 ° 0 min 0,000 mm 0,0 UV-I 5 W/m² -0,1 °C 0,0 km/h (0 Bft)
06.11.2016 15:34 0,8 °C 0,8 °C 93 % 1001,7 hPa 0,0 mm 0,5 km/h (0 Bft) S 175 ° 0 min 0,000 mm 0,0 UV-I 5 W/m² -0,2 °C 1,6 km/h (1 Bft)
06.11.2016 15:35 0,8 °C 0,8 °C 93 % 1001,7 hPa 0,0 mm 0,5 km/h (0 Bft) S 175 ° 0 min 0,000 mm 0,0 UV-I 5 W/m² -0,2 °C 1,6 km/h (1 Bft)
06.11.2016 15:36 0,8 °C 0,8 °C 94 % 1001,7 hPa 0,0 mm 0,1 km/h (0 Bft) S 175 ° 0 min 0,000 mm 0,0 UV-I 5 W/m² -0,1 °C 1,6 km/h (1 Bft)
06.11.2016 15:37 0,8 °C 0,8 °C 93 % 1001,8 hPa 0,0 mm 1,1 km/h (1 Bft) S 175 ° 0 min 0,000 mm 0,0 UV-I 5 W/m² -0,2 °C 3,2 km/h (1 Bft)
06.11.2016 15:38 0,8 °C 0,8 °C 94 % 1001,8 hPa 0,0 mm 1,4 km/h (1 Bft) S 175 ° 0 min 0,000 mm 0,0 UV-I 7 W/m² -0,1 °C 3,2 km/h (1 Bft)
06.11.2016 15:39 0,8 °C 0,8 °C 94 % 1001,9 hPa 0,0 mm 0,8 km/h (0 Bft) S 175 ° 0 min 0,000 mm 0,0 UV-I 7 W/m² -0,1 °C 1,6 km/h (1 Bft)
06.11.2016 15:40 0,7 °C 0,8 °C 94 % 1001,9 hPa 0,0 mm 0,5 km/h (0 Bft) S 175 ° 0 min 0,000 mm 0,0 UV-I 7 W/m² -0,2 °C 1,6 km/h (1 Bft)
06.11.2016 15:41 0,7 °C 0,8 °C 94 % 1001,9 hPa 0,0 mm 0,3 km/h (0 Bft) S 175 ° 0 min 0,000 mm 0,0 UV-I 7 W/m² -0,2 °C 1,6 km/h (1 Bft)
06.11.2016 15:42 0,7 °C 0,8 °C 94 % 1001,9 hPa 0,0 mm 0,8 km/h (0 Bft) S 175 ° 0 min 0,000 mm 0,0 UV-I 7 W/m² -0,2 °C 1,6 km/h (1 Bft)
06.11.2016 15:43 0,7 °C 0,7 °C 94 % 1002,0 hPa 0,0 mm 1,1 km/h (1 Bft) S 175 ° 0 min 0,000 mm 0,0 UV-I 7 W/m² -0,2 °C 1,6 km/h (1 Bft)
06.11.2016 15:44 0,7 °C 0,7 °C 94 % 1001,9 hPa 0,0 mm 0,0 km/h (0 Bft) S 175 ° 0 min 0,000 mm 0,0 UV-I 7 W/m² -0,2 °C 0,0 km/h (0 Bft)
06.11.2016 15:45 0,7 °C 0,8 °C 94 % 1001,9 hPa 0,0 mm 0,7 km/h (0 Bft) S 175 ° 0 min 0,000 mm 0,0 UV-I 7 W/m² -0,2 °C 1,6 km/h (1 Bft)
06.11.2016 15:46 0,7 °C 0,7 °C 94 % 1001,9 hPa 0,0 mm 0,1 km/h (0 Bft) S 175 ° 0 min 0,000 mm 0,0 UV-I 7 W/m² -0,2 °C 1,6 km/h (1 Bft)
06.11.2016 15:47 0,7 °C 0,7 °C 94 % 1001,8 hPa 0,0 mm 0,3 km/h (0 Bft) S 175 ° 0 min 0,000 mm 0,0 UV-I 7 W/m² -0,2 °C 1,6 km/h (1 Bft)
06.11.2016 15:48 0,7 °C 0,7 °C 94 % 1001,8 hPa 0,0 mm 0,3 km/h (0 Bft) S 175 ° 0 min 0,000 mm 0,0 UV-I 5 W/m² -0,2 °C 1,6 km/h (1 Bft)
06.11.2016 15:49 0,7 °C 0,8 °C 94 % 1001,7 hPa 0,2 mm 0,2 km/h (0 Bft) S 175 ° 0 min 0,000 mm 0,0 UV-I 5 W/m² -0,2 °C 1,6 km/h (1 Bft)
06.11.2016 15:50 0,7 °C 0,7 °C 94 % 1001,7 hPa 0,0 mm 0,2 km/h (0 Bft) S 175 ° 0 min 0,000 mm 0,0 UV-I 5 W/m² -0,2 °C 1,6 km/h (1 Bft)
06.11.2016 15:51 0,7 °C 0,7 °C 94 % 1001,7 hPa 0,0 mm 0,2 km/h (0 Bft) S 175 ° 0 min 0,000 mm 0,0 UV-I 5 W/m² -0,2 °C 1,6 km/h (1 Bft)
06.11.2016 15:52 0,7 °C 0,7 °C 94 % 1001,7 hPa 0,0 mm 1,1 km/h (1 Bft) S 175 ° 0 min 0,000 mm 0,0 UV-I 5 W/m² -0,2 °C 1,6 km/h (1 Bft)
06.11.2016 15:53 0,7 °C 0,7 °C 94 % 1001,7 hPa 0,0 mm 1,4 km/h (1 Bft) S 175 ° 0 min 0,000 mm 0,0 UV-I 5 W/m² -0,2 °C 1,6 km/h (1 Bft)
06.11.2016 15:54 0,7 °C 0,7 °C 94 % 1001,7 hPa 0,0 mm 0,2 km/h (0 Bft) S 175 ° 0 min 0,000 mm 0,0 UV-I 5 W/m² -0,2 °C 1,6 km/h (1 Bft)
06.11.2016 15:55 0,7 °C 0,7 °C 94 % 1001,7 hPa 0,0 mm 0,5 km/h (0 Bft) S 175 ° 0 min 0,000 mm 0,0 UV-I 5 W/m² -0,2 °C 1,6 km/h (1 Bft)
06.11.2016 15:56 0,7 °C 0,7 °C 94 % 1001,6 hPa 0,0 mm 0,1 km/h (0 Bft) S 175 ° 0 min 0,000 mm 0,0 UV-I 5 W/m² -0,2 °C 1,6 km/h (1 Bft)
06.11.2016 15:57 0,7 °C 0,7 °C 94 % 1001,6 hPa 0,0 mm 0,0 km/h (0 Bft) S 175 ° 0 min 0,000 mm 0,0 UV-I 5 W/m² -0,2 °C 0,0 km/h (0 Bft)
06.11.2016 15:58 0,7 °C 0,7 °C 94 % 1001,6 hPa 0,0 mm 0,2 km/h (0 Bft) S 175 ° 0 min 0,000 mm 0,0 UV-I 5 W/m² -0,2 °C 1,6 km/h (1 Bft)
06.11.2016 15:59 0,7 °C 0,7 °C 94 % 1001,6 hPa 0,0 mm 0,6 km/h (0 Bft) S 175 ° 0 min 0,000 mm 0,0 UV-I 0 W/m² -0,2 °C 1,6 km/h (1 Bft)
06.11.2016 16:00 0,7 °C 0,7 °C 94 % 1001,6 hPa 0,0 mm 0,5 km/h (0 Bft) S 175 ° 0 min 0,000 mm 0,0 UV-I 0 W/m² -0,2 °C 1,6 km/h (1 Bft)
06.11.2016 16:01 0,7 °C 0,7 °C 94 % 1001,5 hPa 0,0 mm 0,4 km/h (0 Bft) S 175 ° 0 min 0,000 mm 0,0 UV-I 0 W/m² -0,2 °C 1,6 km/h (1 Bft)
06.11.2016 16:02 0,7 °C 0,7 °C 94 % 1001,7 hPa 0,0 mm 0,3 km/h (0 Bft) S 175 ° 0 min 0,000 mm 0,0 UV-I 0 W/m² -0,2 °C 1,6 km/h (1 Bft)
06.11.2016 16:03 0,7 °C 0,7 °C 94 % 1001,7 hPa 0,0 mm 0,0 km/h (0 Bft) S 175 ° 0 min 0,000 mm 0,0 UV-I 0 W/m² -0,2 °C 0,0 km/h (0 Bft)
06.11.2016 16:04 0,7 °C 0,7 °C 94 % 1001,7 hPa 0,0 mm 0,0 km/h (0 Bft) S 175 ° 0 min 0,000 mm 0,0 UV-I 0 W/m² -0,2 °C 0,0 km/h (0 Bft)
06.11.2016 16:05 0,7 °C 0,7 °C 94 % 1001,8 hPa 0,0 mm 0,0 km/h (0 Bft) S 175 ° 0 min 0,000 mm 0,0 UV-I 0 W/m² -0,2 °C 0,0 km/h (0 Bft)
06.11.2016 16:06 0,7 °C 0,7 °C 94 % 1001,8 hPa 0,0 mm 0,0 km/h (0 Bft) S 175 ° 0 min 0,000 mm 0,0 UV-I 0 W/m² -0,2 °C 0,0 km/h (0 Bft)
06.11.2016 16:07 0,7 °C 0,7 °C 94 % 1001,9 hPa 0,0 mm 0,1 km/h (0 Bft) S 175 ° 0 min 0,000 mm 0,0 UV-I 0 W/m² -0,2 °C 1,6 km/h (1 Bft)
06.11.2016 16:08 0,7 °C 0,7 °C 94 % 1001,8 hPa 0,0 mm 1,0 km/h (0 Bft) S 175 ° 0 min 0,000 mm 0,0 UV-I 0 W/m² -0,2 °C 1,6 km/h (1 Bft)
06.11.2016 16:09 0,7 °C 0,7 °C 94 % 1001,9 hPa 0,0 mm 1,2 km/h (1 Bft) S 175 ° 0 min 0,000 mm 0,0 UV-I 0 W/m² -0,2 °C 1,6 km/h (1 Bft)
06.11.2016 16:10 0,7 °C 0,7 °C 94 % 1001,9 hPa 0,0 mm 0,1 km/h (0 Bft) S 175 ° 0 min 0,000 mm 0,0 UV-I 0 W/m² -0,2 °C 1,6 km/h (1 Bft)
06.11.2016 16:11 0,7 °C 0,7 °C 94 % 1001,8 hPa 0,0 mm 0,0 km/h (0 Bft) S 175 ° 0 min 0,000 mm 0,0 UV-I 0 W/m² -0,2 °C 0,0 km/h (0 Bft)
06.11.2016 16:12 0,7 °C 0,7 °C 94 % 1001,8 hPa 0,0 mm 0,0 km/h (0 Bft) S 175 ° 0 min 0,000 mm 0,0 UV-I 0 W/m² -0,2 °C 0,0 km/h (0 Bft)
06.11.2016 16:13 0,7 °C 0,7 °C 94 % 1001,8 hPa 0,2 mm 0,0 km/h (0 Bft) S 175 ° 0 min 0,000 mm 0,0 UV-I 0 W/m² -0,2 °C 0,0 km/h (0 Bft)
06.11.2016 16:14 0,7 °C 0,7 °C 94 % 1001,7 hPa 0,0 mm 0,0 km/h (0 Bft) S 175 ° 0 min 0,000 mm 0,0 UV-I 0 W/m² -0,2 °C 0,0 km/h (0 Bft)
06.11.2016 16:15 0,7 °C 0,7 °C 94 % 1001,7 hPa 0,0 mm 0,0 km/h (0 Bft) S 175 ° 0 min 0,000 mm 0,0 UV-I 0 W/m² -0,2 °C 0,0 km/h (0 Bft)
06.11.2016 16:16 0,7 °C 0,7 °C 94 % 1001,6 hPa 0,0 mm 0,0 km/h (0 Bft) S 175 ° 0 min 0,000 mm 0,0 UV-I 0 W/m² -0,2 °C 0,0 km/h (0 Bft)
06.11.2016 16:17 0,6 °C 0,7 °C 94 % 1001,6 hPa 0,0 mm 0,0 km/h (0 Bft) S 175 ° 0 min 0,000 mm 0,0 UV-I 5 W/m² -0,3 °C 0,0 km/h (0 Bft)
06.11.2016 16:18 0,6 °C 0,7 °C 94 % 1001,6 hPa 0,0 mm 0,0 km/h (0 Bft) S 175 ° 0 min 0,000 mm 0,0 UV-I 5 W/m² -0,3 °C 0,0 km/h (0 Bft)
06.11.2016 16:19 0,6 °C 0,7 °C 94 % 1001,6 hPa 0,0 mm 0,0 km/h (0 Bft) S 175 ° 0 min 0,000 mm 0,0 UV-I 5 W/m² -0,3 °C 0,0 km/h (0 Bft)
06.11.2016 16:20 0,7 °C 0,7 °C 94 % 1001,7 hPa 0,0 mm 0,0 km/h (0 Bft) S 175 ° 0 min 0,000 mm 0,0 UV-I 5 W/m² -0,2 °C 0,0 km/h (0 Bft)
06.11.2016 16:21 0,6 °C 0,7 °C 94 % 1001,8 hPa 0,0 mm 0,0 km/h (0 Bft) S 175 ° 0 min 0,000 mm 0,0 UV-I 5 W/m² -0,3 °C 0,0 km/h (0 Bft)
06.11.2016 16:22 0,6 °C 0,7 °C 94 % 1001,8 hPa 0,0 mm 0,0 km/h (0 Bft) S 175 ° 0 min 0,000 mm 0,0 UV-I 5 W/m² -0,3 °C 0,0 km/h (0 Bft)
06.11.2016 16:23 0,7 °C 0,7 °C 94 % 1001,8 hPa 0,0 mm 0,0 km/h (0 Bft) S 175 ° 0 min 0,000 mm 0,0 UV-I 0 W/m² -0,2 °C 0,0 km/h (0 Bft)
06.11.2016 16:24 0,6 °C 0,7 °C 94 % 1001,8 hPa 0,0 mm 0,1 km/h (0 Bft) S 175 ° 0 min 0,000 mm 0,0 UV-I 0 W/m² -0,3 °C 1,6 km/h (1 Bft)
06.11.2016 16:25 0,7 °C 0,7 °C 94 % 1001,8 hPa 0,0 mm 2,3 km/h (1 Bft) S 175 ° 0 min 0,000 mm 0,0 UV-I 0 W/m² -0,2 °C 3,2 km/h (1 Bft)
06.11.2016 16:26 0,6 °C 0,7 °C 94 % 1001,8 hPa 0,0 mm 1,2 km/h (1 Bft) S 175 ° 0 min 0,000 mm 0,0 UV-I 0 W/m² -0,3 °C 3,2 km/h (1 Bft)
06.11.2016 16:27 0,6 °C 0,6 °C 94 % 1001,8 hPa 0,0 mm 0,7 km/h (0 Bft) S 175 ° 0 min 0,000 mm 0,0 UV-I 0 W/m² -0,3 °C 1,6 km/h (1 Bft)
06.11.2016 16:28 0,6 °C 0,6 °C 94 % 1001,8 hPa 0,0 mm 0,0 km/h (0 Bft) S 175 ° 0 min 0,000 mm 0,0 UV-I 0 W/m² -0,3 °C 0,0 km/h (0 Bft)
06.11.2016 16:29 0,6 °C 0,6 °C 94 % 1001,8 hPa 0,0 mm 0,0 km/h (0 Bft) S 175 ° 0 min 0,000 mm 0,0 UV-I 0 W/m² -0,3 °C 0,0 km/h (0 Bft)
06.11.2016 16:30 0,6 °C 0,6 °C 94 % 1001,8 hPa 0,0 mm 0,0 km/h (0 Bft) S 175 ° 0 min 0,000 mm 0,0 UV-I 0 W/m² -0,3 °C 0,0 km/h (0 Bft)
06.11.2016 16:31 0,6 °C 0,6 °C 94 % 1001,8 hPa 0,0 mm 0,0 km/h (0 Bft) S 175 ° 0 min 0,000 mm 0,0 UV-I 0 W/m² -0,3 °C 0,0 km/h (0 Bft)
06.11.2016 16:32 0,6 °C 0,6 °C 94 % 1001,9 hPa 0,0 mm 0,8 km/h (0 Bft) S 175 ° 0 min 0,000 mm 0,0 UV-I 0 W/m² -0,3 °C 1,6 km/h (1 Bft)
06.11.2016 16:33 0,6 °C 0,6 °C 94 % 1001,8 hPa 0,0 mm 0,3 km/h (0 Bft) S 175 ° 0 min 0,000 mm 0,0 UV-I 0 W/m² -0,3 °C 1,6 km/h (1 Bft)
06.11.2016 16:34 0,6 °C 0,6 °C 94 % 1001,8 hPa 0,0 mm 0,3 km/h (0 Bft) S 175 ° 0 min 0,000 mm 0,0 UV-I 0 W/m² -0,3 °C 1,6 km/h (1 Bft)
06.11.2016 16:35 0,6 °C 0,6 °C 94 % 1001,8 hPa 0,0 mm 0,1 km/h (0 Bft) S 175 ° 0 min 0,000 mm 0,0 UV-I 0 W/m² -0,3 °C 1,6 km/h (1 Bft)
06.11.2016 16:36 0,6 °C 0,6 °C 94 % 1001,8 hPa 0,2 mm 0,0 km/h (0 Bft) S 175 ° 0 min 0,000 mm 0,0 UV-I 0 W/m² -0,3 °C 0,0 km/h (0 Bft)
06.11.2016 16:37 0,6 °C 0,6 °C 94 % 1001,7 hPa 0,0 mm 0,0 km/h (0 Bft) S 175 ° 0 min 0,000 mm 0,0 UV-I 0 W/m² -0,3 °C 0,0 km/h (0 Bft)
06.11.2016 16:38 0,6 °C 0,6 °C 94 % 1001,8 hPa 0,0 mm 0,0 km/h (0 Bft) S 175 ° 0 min 0,000 mm 0,0 UV-I 0 W/m² -0,3 °C 0,0 km/h (0 Bft)
06.11.2016 16:39 0,6 °C 0,6 °C 94 % 1001,7 hPa 0,0 mm 0,0 km/h (0 Bft) S 175 ° 0 min 0,000 mm 0,0 UV-I 0 W/m² -0,3 °C 0,0 km/h (0 Bft)
06.11.2016 16:40 0,6 °C 0,6 °C 94 % 1001,7 hPa 0,0 mm 0,0 km/h (0 Bft) S 175 ° 0 min 0,000 mm 0,0 UV-I 0 W/m² -0,3 °C 0,0 km/h (0 Bft)
06.11.2016 16:41 0,6 °C 0,6 °C 94 % 1001,7 hPa 0,0 mm 0,0 km/h (0 Bft) S 175 ° 0 min 0,000 mm 0,0 UV-I 0 W/m² -0,3 °C 0,0 km/h (0 Bft)
06.11.2016 16:42 0,6 °C 0,6 °C 94 % 1001,7 hPa 0,0 mm 0,0 km/h (0 Bft) S 175 ° 0 min 0,000 mm 0,0 UV-I 0 W/m² -0,3 °C 0,0 km/h (0 Bft)
06.11.2016 16:43 0,6 °C 0,6 °C 94 % 1001,7 hPa 0,0 mm 0,0 km/h (0 Bft) S 175 ° 0 min 0,000 mm 0,0 UV-I 0 W/m² -0,3 °C 0,0 km/h (0 Bft)
06.11.2016 16:44 0,6 °C 0,6 °C 94 % 1001,8 hPa 0,0 mm 0,0 km/h (0 Bft) S 175 ° 0 min 0,000 mm 0,0 UV-I 0 W/m² -0,3 °C 0,0 km/h (0 Bft)
06.11.2016 16:45 0,6 °C 0,6 °C 94 % 1001,8 hPa 0,0 mm 0,0 km/h (0 Bft) S 175 ° 0 min 0,000 mm 0,0 UV-I 0 W/m² -0,3 °C 0,0 km/h (0 Bft)
06.11.2016 16:46 0,6 °C 0,6 °C 94 % 1001,8 hPa 0,0 mm 0,0 km/h (0 Bft) S 175 ° 0 min 0,000 mm 0,0 UV-I 0 W/m² -0,3 °C 0,0 km/h (0 Bft)
06.11.2016 16:47 0,6 °C 0,6 °C 94 % 1001,9 hPa 0,0 mm 0,1 km/h (0 Bft) S 175 ° 0 min 0,000 mm 0,0 UV-I 0 W/m² -0,3 °C 1,6 km/h (1 Bft)
06.11.2016 16:48 0,6 °C 0,6 °C 94 % 1001,8 hPa 0,0 mm 0,0 km/h (0 Bft) S 175 ° 0 min 0,000 mm 0,0 UV-I 0 W/m² -0,3 °C 0,0 km/h (0 Bft)
06.11.2016 16:49 0,6 °C 0,6 °C 94 % 1001,8 hPa 0,0 mm 0,0 km/h (0 Bft) S 175 ° 0 min 0,000 mm 0,0 UV-I 0 W/m² -0,3 °C 0,0 km/h (0 Bft)
06.11.2016 16:50 0,6 °C 0,6 °C 94 % 1001,8 hPa 0,0 mm 0,0 km/h (0 Bft) S 175 ° 0 min 0,000 mm 0,0 UV-I 0 W/m² -0,3 °C 0,0 km/h (0 Bft)
06.11.2016 16:51 0,6 °C 0,6 °C 94 % 1001,8 hPa 0,0 mm 0,0 km/h (0 Bft) S 175 ° 0 min 0,000 mm 0,0 UV-I 0 W/m² -0,3 °C 0,0 km/h (0 Bft)
06.11.2016 16:52 0,6 °C 0,6 °C 94 % 1001,8 hPa 0,0 mm 0,0 km/h (0 Bft) S 175 ° 0 min 0,000 mm 0,0 UV-I 0 W/m² -0,3 °C 0,0 km/h (0 Bft)
06.11.2016 16:53 0,6 °C 0,6 °C 94 % 1001,8 hPa 0,0 mm 0,0 km/h (0 Bft) S 175 ° 0 min 0,000 mm 0,0 UV-I 0 W/m² -0,3 °C 0,0 km/h (0 Bft)
06.11.2016 16:54 0,6 °C 0,6 °C 94 % 1001,7 hPa 0,0 mm 0,0 km/h (0 Bft) S 175 ° 0 min 0,000 mm 0,0 UV-I 0 W/m² -0,3 °C 0,0 km/h (0 Bft)
06.11.2016 16:55 0,6 °C 0,6 °C 94 % 1001,7 hPa 0,0 mm 0,0 km/h (0 Bft) S 175 ° 0 min 0,000 mm 0,0 UV-I 0 W/m² -0,3 °C 0,0 km/h (0 Bft)
06.11.2016 16:56 0,5 °C 0,6 °C 94 % 1001,8 hPa 0,0 mm 0,0 km/h (0 Bft) S 175 ° 0 min 0,000 mm 0,0 UV-I 0 W/m² -0,4 °C 0,0 km/h (0 Bft)
06.11.2016 16:57 0,5 °C 0,6 °C 94 % 1001,8 hPa 0,0 mm 0,0 km/h (0 Bft) S 175 ° 0 min 0,000 mm 0,0 UV-I 0 W/m² -0,4 °C 0,0 km/h (0 Bft)
06.11.2016 16:58 0,5 °C 0,6 °C 94 % 1001,8 hPa 0,0 mm 0,0 km/h (0 Bft) S 175 ° 0 min 0,000 mm 0,0 UV-I 0 W/m² -0,4 °C 0,0 km/h (0 Bft)
06.11.2016 16:59 0,5 °C 0,6 °C 94 % 1001,9 hPa 0,0 mm 0,0 km/h (0 Bft) S 175 ° 0 min 0,000 mm 0,0 UV-I 0 W/m² -0,4 °C 0,0 km/h (0 Bft)
06.11.2016 17:00 0,5 °C 0,5 °C 94 % 1001,8 hPa 0,0 mm 0,3 km/h (0 Bft) S 175 ° 0 min 0,000 mm 0,0 UV-I 0 W/m² -0,4 °C 1,6 km/h (1 Bft)
06.11.2016 17:01 0,6 °C 0,6 °C 94 % 1001,9 hPa 0,2 mm 0,9 km/h (0 Bft) S 175 ° 0 min 0,000 mm 0,0 UV-I 0 W/m² -0,3 °C 1,6 km/h (1 Bft)
06.11.2016 17:02 0,5 °C 0,6 °C 94 % 1001,9 hPa 0,0 mm 0,3 km/h (0 Bft) S 175 ° 0 min 0,000 mm 0,0 UV-I 0 W/m² -0,4 °C 1,6 km/h (1 Bft)
06.11.2016 17:03 0,5 °C 0,5 °C 94 % 1001,9 hPa 0,0 mm 0,0 km/h (0 Bft) S 175 ° 0 min 0,000 mm 0,0 UV-I 0 W/m² -0,4 °C 0,0 km/h (0 Bft)
06.11.2016 17:04 0,5 °C 0,5 °C 94 % 1001,9 hPa 0,0 mm 0,5 km/h (0 Bft) S 175 ° 0 min 0,000 mm 0,0 UV-I 0 W/m² -0,4 °C 1,6 km/h (1 Bft)
06.11.2016 17:05 0,5 °C 0,5 °C 94 % 1001,9 hPa 0,0 mm 0,0 km/h (0 Bft) S 175 ° 0 min 0,000 mm 0,0 UV-I 0 W/m² -0,4 °C 0,0 km/h (0 Bft)
06.11.2016 17:06 0,5 °C 0,5 °C 94 % 1001,9 hPa 0,0 mm 0,0 km/h (0 Bft) S 175 ° 0 min 0,000 mm 0,0 UV-I 0 W/m² -0,4 °C 0,0 km/h (0 Bft)
06.11.2016 17:07 0,4 °C 0,5 °C 94 % 1001,9 hPa 0,0 mm 0,1 km/h (0 Bft) S 175 ° 0 min 0,000 mm 0,0 UV-I 0 W/m² -0,5 °C 1,6 km/h (1 Bft)
06.11.2016 17:08 0,5 °C 0,5 °C 94 % 1001,9 hPa 0,0 mm 0,0 km/h (0 Bft) S 175 ° 0 min 0,000 mm 0,0 UV-I 0 W/m² -0,4 °C 0,0 km/h (0 Bft)
06.11.2016 17:09 0,4 °C 0,5 °C 94 % 1001,9 hPa 0,0 mm 0,0 km/h (0 Bft) S 175 ° 0 min 0,000 mm 0,0 UV-I 0 W/m² -0,5 °C 0,0 km/h (0 Bft)
06.11.2016 17:10 0,4 °C 0,5 °C 94 % 1001,9 hPa 0,0 mm 0,0 km/h (0 Bft) S 175 ° 0 min 0,000 mm 0,0 UV-I 0 W/m² -0,5 °C 0,0 km/h (0 Bft)
06.11.2016 17:11 0,5 °C 0,5 °C 94 % 1001,9 hPa 0,0 mm 0,0 km/h (0 Bft) S 175 ° 0 min 0,000 mm 0,0 UV-I 0 W/m² -0,4 °C 0,0 km/h (0 Bft)
06.11.2016 17:12 0,4 °C 0,5 °C 94 % 1001,9 hPa 0,0 mm 0,0 km/h (0 Bft) S 175 ° 0 min 0,000 mm 0,0 UV-I 0 W/m² -0,5 °C 0,0 km/h (0 Bft)
06.11.2016 17:13 0,4 °C 0,5 °C 94 % 1002,0 hPa 0,0 mm 0,0 km/h (0 Bft) S 175 ° 0 min 0,000 mm 0,0 UV-I 0 W/m² -0,5 °C 0,0 km/h (0 Bft)
06.11.2016 17:14 0,4 °C 0,4 °C 94 % 1002,0 hPa 0,0 mm 0,0 km/h (0 Bft) S 175 ° 0 min 0,000 mm 0,0 UV-I 0 W/m² -0,5 °C 0,0 km/h (0 Bft)
06.11.2016 17:15 0,4 °C 0,4 °C 94 % 1002,0 hPa 0,0 mm 0,0 km/h (0 Bft) S 175 ° 0 min 0,000 mm 0,0 UV-I 0 W/m² -0,5 °C 0,0 km/h (0 Bft)
06.11.2016 17:16 0,4 °C 0,4 °C 94 % 1002,0 hPa 0,0 mm 0,0 km/h (0 Bft) S 175 ° 0 min 0,000 mm 0,0 UV-I 0 W/m² -0,5 °C 0,0 km/h (0 Bft)
06.11.2016 17:17 0,4 °C 0,4 °C 94 % 1002,1 hPa 0,0 mm 0,0 km/h (0 Bft) S 175 ° 0 min 0,000 mm 0,0 UV-I 0 W/m² -0,5 °C 0,0 km/h (0 Bft)
06.11.2016 17:18 0,4 °C 0,4 °C 94 % 1002,0 hPa 0,0 mm 0,0 km/h (0 Bft) S 175 ° 0 min 0,000 mm 0,0 UV-I 0 W/m² -0,5 °C 0,0 km/h (0 Bft)
06.11.2016 17:19 0,4 °C 0,4 °C 94 % 1002,0 hPa 0,0 mm 0,0 km/h (0 Bft) S 175 ° 0 min 0,000 mm 0,0 UV-I 0 W/m² -0,5 °C 0,0 km/h (0 Bft)
06.11.2016 17:20 0,4 °C 0,4 °C 94 % 1002,0 hPa 0,0 mm 0,0 km/h (0 Bft) S 175 ° 0 min 0,000 mm 0,0 UV-I 0 W/m² -0,5 °C 0,0 km/h (0 Bft)
06.11.2016 17:21 0,4 °C 0,4 °C 94 % 1002,0 hPa 0,0 mm 0,0 km/h (0 Bft) S 175 ° 0 min 0,000 mm 0,0 UV-I 0 W/m² -0,5 °C 0,0 km/h (0 Bft)
06.11.2016 17:22 0,4 °C 0,4 °C 94 % 1002,1 hPa 0,0 mm 0,0 km/h (0 Bft) S 175 ° 0 min 0,000 mm 0,0 UV-I 0 W/m² -0,5 °C 0,0 km/h (0 Bft)
06.11.2016 17:23 0,4 °C 0,4 °C 94 % 1002,2 hPa 0,0 mm 0,0 km/h (0 Bft) S 175 ° 0 min 0,000 mm 0,0 UV-I 0 W/m² -0,5 °C 0,0 km/h (0 Bft)
06.11.2016 17:24 0,4 °C 0,4 °C 94 % 1002,1 hPa 0,0 mm 0,0 km/h (0 Bft) S 175 ° 0 min 0,000 mm 0,0 UV-I 0 W/m² -0,5 °C 0,0 km/h (0 Bft)
06.11.2016 17:25 0,4 °C 0,4 °C 94 % 1002,2 hPa 0,0 mm 0,5 km/h (0 Bft) S 175 ° 0 min 0,000 mm 0,0 UV-I 0 W/m² -0,5 °C 1,6 km/h (1 Bft)
06.11.2016 17:26 0,4 °C 0,4 °C 94 % 1002,1 hPa 0,0 mm 1,1 km/h (1 Bft) S 175 ° 0 min 0,000 mm 0,0 UV-I 0 W/m² -0,5 °C 1,6 km/h (1 Bft)
06.11.2016 17:27 0,4 °C 0,4 °C 94 % 1002,2 hPa 0,0 mm 0,2 km/h (0 Bft) S 175 ° 0 min 0,000 mm 0,0 UV-I 0 W/m² -0,5 °C 1,6 km/h (1 Bft)
06.11.2016 17:28 0,4 °C 0,4 °C 94 % 1002,2 hPa 0,0 mm 0,0 km/h (0 Bft) S 175 ° 0 min 0,000 mm 0,0 UV-I 0 W/m² -0,5 °C 0,0 km/h (0 Bft)
06.11.2016 17:29 0,4 °C 0,4 °C 94 % 1002,2 hPa 0,0 mm 0,0 km/h (0 Bft) S 175 ° 0 min 0,000 mm 0,0 UV-I 0 W/m² -0,5 °C 0,0 km/h (0 Bft)
06.11.2016 17:30 0,4 °C 0,4 °C 94 % 1002,2 hPa 0,0 mm 0,0 km/h (0 Bft) S 175 ° 0 min 0,000 mm 0,0 UV-I 0 W/m² -0,5 °C 0,0 km/h (0 Bft)
06.11.2016 17:31 0,4 °C 0,4 °C 94 % 1002,2 hPa 0,2 mm 0,9 km/h (0 Bft) S 175 ° 0 min 0,000 mm 0,0 UV-I 0 W/m² -0,5 °C 1,6 km/h (1 Bft)
06.11.2016 17:32 0,4 °C 0,4 °C 94 % 1002,2 hPa 0,0 mm 1,9 km/h (1 Bft) S 175 ° 0 min 0,000 mm 0,0 UV-I 0 W/m² -0,5 °C 3,2 km/h (1 Bft)
06.11.2016 17:33 0,4 °C 0,4 °C 94 % 1002,3 hPa 0,0 mm 2,5 km/h (1 Bft) S 175 ° 0 min 0,000 mm 0,0 UV-I 0 W/m² -0,5 °C 3,2 km/h (1 Bft)
06.11.2016 17:34 0,4 °C 0,4 °C 94 % 1002,3 hPa 0,0 mm 3,4 km/h (1 Bft) S 186 ° 0 min 0,000 mm 0,0 UV-I 0 W/m² -0,5 °C 4,8 km/h (1 Bft)
06.11.2016 17:35 0,4 °C 0,4 °C 94 % 1002,3 hPa 0,0 mm 2,7 km/h (1 Bft) S-SO 168 ° 0 min 0,000 mm 0,0 UV-I 0 W/m² -0,5 °C 3,2 km/h (1 Bft)
06.11.2016 17:36 0,4 °C 0,4 °C 94 % 1002,4 hPa 0,0 mm 2,2 km/h (1 Bft) S 178 ° 0 min 0,000 mm 0,0 UV-I 0 W/m² -0,5 °C 4,8 km/h (1 Bft)
06.11.2016 17:37 0,4 °C 0,4 °C 94 % 1002,3 hPa 0,0 mm 1,8 km/h (1 Bft) S 178 ° 0 min 0,000 mm 0,0 UV-I 0 W/m² -0,5 °C 3,2 km/h (1 Bft)
06.11.2016 17:38 0,4 °C 0,4 °C 94 % 1002,4 hPa 0,0 mm 0,9 km/h (0 Bft) S 178 ° 0 min 0,000 mm 0,0 UV-I 0 W/m² -0,5 °C 1,6 km/h (1 Bft)
06.11.2016 17:39 0,4 °C 0,4 °C 94 % 1002,3 hPa 0,0 mm 2,7 km/h (1 Bft) S 181 ° 0 min 0,000 mm 0,0 UV-I 0 W/m² -0,5 °C 4,8 km/h (1 Bft)
06.11.2016 17:40 0,4 °C 0,4 °C 94 % 1002,4 hPa 0,0 mm 0,6 km/h (0 Bft) S 181 ° 0 min 0,000 mm 0,0 UV-I 0 W/m² -0,5 °C 1,6 km/h (1 Bft)
06.11.2016 17:41 0,4 °C 0,4 °C 94 % 1002,4 hPa 0,0 mm 1,5 km/h (1 Bft) S 181 ° 0 min 0,000 mm 0,0 UV-I 0 W/m² -0,5 °C 3,2 km/h (1 Bft)
06.11.2016 17:42 0,4 °C 0,4 °C 94 % 1002,4 hPa 0,0 mm 1,3 km/h (1 Bft) S 181 ° 0 min 0,000 mm 0,0 UV-I 0 W/m² -0,5 °C 1,6 km/h (1 Bft)
06.11.2016 17:43 0,4 °C 0,4 °C 94 % 1002,4 hPa 0,0 mm 1,9 km/h (1 Bft) S 181 ° 0 min 0,000 mm 0,0 UV-I 0 W/m² -0,5 °C 3,2 km/h (1 Bft)
06.11.2016 17:44 0,4 °C 0,4 °C 94 % 1002,4 hPa 0,0 mm 0,6 km/h (0 Bft) S 181 ° 0 min 0,000 mm 0,0 UV-I 0 W/m² -0,5 °C 1,6 km/h (1 Bft)
06.11.2016 17:45 0,4 °C 0,5 °C 94 % 1002,4 hPa 0,0 mm 0,3 km/h (0 Bft) S 181 ° 0 min 0,000 mm 0,0 UV-I 0 W/m² -0,5 °C 1,6 km/h (1 Bft)
06.11.2016 17:46 0,4 °C 0,4 °C 94 % 1002,4 hPa 0,0 mm 0,5 km/h (0 Bft) S 181 ° 0 min 0,000 mm 0,0 UV-I 0 W/m² -0,5 °C 1,6 km/h (1 Bft)
06.11.2016 17:47 0,4 °C 0,4 °C 94 % 1002,4 hPa 0,0 mm 0,0 km/h (0 Bft) S 181 ° 0 min 0,000 mm 0,0 UV-I 0 W/m² -0,5 °C 0,0 km/h (0 Bft)
06.11.2016 17:48 0,4 °C 0,4 °C 94 % 1002,4 hPa 0,0 mm 0,0 km/h (0 Bft) S 181 ° 0 min 0,000 mm 0,0 UV-I 0 W/m² -0,5 °C 0,0 km/h (0 Bft)
06.11.2016 17:49 0,4 °C 0,4 °C 94 % 1002,5 hPa 0,0 mm 0,0 km/h (0 Bft) S 181 ° 0 min 0,000 mm 0,0 UV-I 0 W/m² -0,5 °C 0,0 km/h (0 Bft)
06.11.2016 17:50 0,4 °C 0,4 °C 94 % 1002,5 hPa 0,0 mm 0,0 km/h (0 Bft) S 181 ° 0 min 0,000 mm 0,0 UV-I 0 W/m² -0,5 °C 0,0 km/h (0 Bft)
06.11.2016 17:51 0,4 °C 0,4 °C 94 % 1002,5 hPa 0,0 mm 0,0 km/h (0 Bft) S 181 ° 0 min 0,000 mm 0,0 UV-I 0 W/m² -0,5 °C 0,0 km/h (0 Bft)
06.11.2016 17:52 0,4 °C 0,4 °C 94 % 1002,5 hPa 0,0 mm 0,0 km/h (0 Bft) S 181 ° 0 min 0,000 mm 0,0 UV-I 0 W/m² -0,5 °C 0,0 km/h (0 Bft)
06.11.2016 17:53 0,4 °C 0,4 °C 94 % 1002,5 hPa 0,0 mm 0,6 km/h (0 Bft) S 181 ° 0 min 0,000 mm 0,0 UV-I 0 W/m² -0,5 °C 1,6 km/h (1 Bft)
06.11.2016 17:54 0,4 °C 0,4 °C 94 % 1002,5 hPa 0,0 mm 0,1 km/h (0 Bft) S 181 ° 0 min 0,000 mm 0,0 UV-I 0 W/m² -0,5 °C 1,6 km/h (1 Bft)
06.11.2016 17:55 0,4 °C 0,4 °C 94 % 1002,5 hPa 0,0 mm 0,2 km/h (0 Bft) S 181 ° 0 min 0,000 mm 0,0 UV-I 0 W/m² -0,5 °C 1,6 km/h (1 Bft)
06.11.2016 17:56 0,4 °C 0,4 °C 94 % 1002,5 hPa 0,0 mm 0,2 km/h (0 Bft) S 181 ° 0 min 0,000 mm 0,0 UV-I 0 W/m² -0,5 °C 1,6 km/h (1 Bft)
06.11.2016 17:57 0,4 °C 0,5 °C 94 % 1002,5 hPa 0,0 mm 0,9 km/h (0 Bft) S 186 ° 0 min 0,000 mm 0,0 UV-I 0 W/m² -0,5 °C 3,2 km/h (1 Bft)
06.11.2016 17:58 0,4 °C 0,4 °C 94 % 1002,6 hPa 0,0 mm 0,7 km/h (0 Bft) S 186 ° 0 min 0,000 mm 0,0 UV-I 0 W/m² -0,5 °C 1,6 km/h (1 Bft)
06.11.2016 17:59 0,4 °C 0,4 °C 94 % 1002,6 hPa 0,0 mm 0,1 km/h (0 Bft) S 186 ° 0 min 0,000 mm 0,0 UV-I 0 W/m² -0,5 °C 1,6 km/h (1 Bft)
06.11.2016 18:00 0,4 °C 0,4 °C 94 % 1002,5 hPa 0,0 mm 0,3 km/h (0 Bft) S 186 ° 0 min 0,000 mm 0,0 UV-I 0 W/m² -0,5 °C 1,6 km/h (1 Bft)
06.11.2016 18:01 0,4 °C 0,4 °C 94 % 1002,5 hPa 0,0 mm 0,0 km/h (0 Bft) S 186 ° 0 min 0,000 mm 0,0 UV-I 0 W/m² -0,5 °C 0,0 km/h (0 Bft)
06.11.2016 18:02 0,4 °C 0,4 °C 94 % 1002,5 hPa 0,2 mm 0,0 km/h (0 Bft) S 186 ° 0 min 0,000 mm 0,0 UV-I 0 W/m² -0,5 °C 0,0 km/h (0 Bft)
06.11.2016 18:03 0,4 °C 0,4 °C 94 % 1002,5 hPa 0,0 mm 0,6 km/h (0 Bft) S 186 ° 0 min 0,000 mm 0,0 UV-I 0 W/m² -0,5 °C 1,6 km/h (1 Bft)
06.11.2016 18:04 0,4 °C 0,5 °C 94 % 1002,5 hPa 0,0 mm 2,6 km/h (1 Bft) SW 226 ° 0 min 0,000 mm 0,0 UV-I 0 W/m² -0,5 °C 4,8 km/h (1 Bft)
06.11.2016 18:05 0,4 °C 0,4 °C 94 % 1002,4 hPa 0,0 mm 0,6 km/h (0 Bft) SW 226 ° 0 min 0,000 mm 0,0 UV-I 0 W/m² -0,5 °C 1,6 km/h (1 Bft)
06.11.2016 18:06 0,4 °C 0,4 °C 94 % 1002,4 hPa 0,0 mm 0,0 km/h (0 Bft) SW 226 ° 0 min 0,000 mm 0,0 UV-I 0 W/m² -0,5 °C 0,0 km/h (0 Bft)
06.11.2016 18:07 0,4 °C 0,4 °C 94 % 1002,5 hPa 0,0 mm 0,7 km/h (0 Bft) SW 226 ° 0 min 0,000 mm 0,0 UV-I 0 W/m² -0,5 °C 1,6 km/h (1 Bft)
06.11.2016 18:08 0,4 °C 0,4 °C 95 % 1002,5 hPa 0,0 mm 0,2 km/h (0 Bft) SW 226 ° 0 min 0,000 mm 0,0 UV-I 0 W/m² -0,3 °C 1,6 km/h (1 Bft)
06.11.2016 18:09 0,4 °C 0,4 °C 95 % 1002,5 hPa 0,0 mm 0,1 km/h (0 Bft) SW 226 ° 0 min 0,000 mm 0,0 UV-I 0 W/m² -0,3 °C 1,6 km/h (1 Bft)
06.11.2016 18:10 0,4 °C 0,5 °C 95 % 1002,6 hPa 0,0 mm 0,1 km/h (0 Bft) SW 226 ° 0 min 0,000 mm 0,0 UV-I 0 W/m² -0,3 °C 1,6 km/h (1 Bft)
06.11.2016 18:11 0,4 °C 0,4 °C 95 % 1002,5 hPa 0,0 mm 0,0 km/h (0 Bft) SW 226 ° 0 min 0,000 mm 0,0 UV-I 0 W/m² -0,3 °C 0,0 km/h (0 Bft)
06.11.2016 18:12 0,4 °C 0,4 °C 95 % 1002,5 hPa 0,0 mm 0,2 km/h (0 Bft) SW 226 ° 0 min 0,000 mm 0,0 UV-I 0 W/m² -0,3 °C 1,6 km/h (1 Bft)
06.11.2016 18:13 0,4 °C 0,4 °C 95 % 1002,5 hPa 0,0 mm 0,4 km/h (0 Bft) SW 226 ° 0 min 0,000 mm 0,0 UV-I 0 W/m² -0,3 °C 1,6 km/h (1 Bft)
06.11.2016 18:14 0,4 °C 0,4 °C 95 % 1002,5 hPa 0,0 mm 0,0 km/h (0 Bft) SW 226 ° 0 min 0,000 mm 0,0 UV-I 0 W/m² -0,3 °C 0,0 km/h (0 Bft)
06.11.2016 18:15 0,4 °C 0,5 °C 95 % 1002,5 hPa 0,0 mm 0,0 km/h (0 Bft) SW 226 ° 0 min 0,000 mm 0,0 UV-I 0 W/m² -0,3 °C 0,0 km/h (0 Bft)
06.11.2016 18:16 0,4 °C 0,5 °C 95 % 1002,5 hPa 0,0 mm 0,3 km/h (0 Bft) SW 226 ° 0 min 0,000 mm 0,0 UV-I 0 W/m² -0,3 °C 1,6 km/h (1 Bft)
06.11.2016 18:17 0,4 °C 0,5 °C 95 % 1002,5 hPa 0,0 mm 2,3 km/h (1 Bft) SW 227 ° 0 min 0,000 mm 0,0 UV-I 0 W/m² -0,3 °C 3,2 km/h (1 Bft)
06.11.2016 18:18 0,5 °C 0,5 °C 95 % 1002,5 hPa 0,0 mm 2,5 km/h (1 Bft) SW 235 ° 0 min 0,000 mm 0,0 UV-I 0 W/m² -0,2 °C 4,8 km/h (1 Bft)
06.11.2016 18:19 0,4 °C 0,5 °C 95 % 1002,5 hPa 0,0 mm 0,6 km/h (0 Bft) SW 235 ° 0 min 0,000 mm 0,0 UV-I 0 W/m² -0,3 °C 1,6 km/h (1 Bft)
06.11.2016 18:20 0,4 °C 0,5 °C 95 % 1002,5 hPa 0,0 mm 0,5 km/h (0 Bft) SW 231 ° 0 min 0,000 mm 0,0 UV-I 0 W/m² -0,3 °C 1,6 km/h (1 Bft)
06.11.2016 18:21 0,5 °C 0,5 °C 95 % 1002,5 hPa 0,0 mm 1,0 km/h (0 Bft) SW 231 ° 0 min 0,000 mm 0,0 UV-I 0 W/m² -0,2 °C 1,6 km/h (1 Bft)
06.11.2016 18:22 0,5 °C 0,5 °C 95 % 1002,5 hPa 0,0 mm 2,1 km/h (1 Bft) SW 231 ° 0 min 0,000 mm 0,0 UV-I 0 W/m² -0,2 °C 3,2 km/h (1 Bft)
06.11.2016 18:23 0,5 °C 0,6 °C 95 % 1002,5 hPa 0,0 mm 0,8 km/h (0 Bft) SW 231 ° 0 min 0,000 mm 0,0 UV-I 0 W/m² -0,2 °C 1,6 km/h (1 Bft)
06.11.2016 18:24 0,4 °C 0,5 °C 95 % 1002,5 hPa 0,0 mm 0,3 km/h (0 Bft) SW 231 ° 0 min 0,000 mm 0,0 UV-I 0 W/m² -0,3 °C 1,6 km/h (1 Bft)
06.11.2016 18:25 0,5 °C 0,5 °C 95 % 1002,6 hPa 0,0 mm 0,5 km/h (0 Bft) SW 231 ° 0 min 0,000 mm 0,0 UV-I 0 W/m² -0,2 °C 1,6 km/h (1 Bft)
06.11.2016 18:26 0,5 °C 0,5 °C 95 % 1002,6 hPa 0,0 mm 1,3 km/h (1 Bft) S 190 ° 0 min 0,000 mm 0,0 UV-I 0 W/m² -0,2 °C 1,6 km/h (1 Bft)
06.11.2016 18:27 0,5 °C 0,6 °C 95 % 1002,6 hPa 0,0 mm 1,0 km/h (0 Bft) S 190 ° 0 min 0,000 mm 0,0 UV-I 0 W/m² -0,2 °C 1,6 km/h (1 Bft)
06.11.2016 18:28 0,5 °C 0,5 °C 95 % 1002,7 hPa 0,0 mm 1,8 km/h (1 Bft) S 190 ° 0 min 0,000 mm 0,0 UV-I 0 W/m² -0,2 °C 3,2 km/h (1 Bft)
06.11.2016 18:29 0,5 °C 0,5 °C 95 % 1002,6 hPa 0,0 mm 1,7 km/h (1 Bft) S 190 ° 0 min 0,000 mm 0,0 UV-I 0 W/m² -0,2 °C 3,2 km/h (1 Bft)
06.11.2016 18:30 0,5 °C 0,6 °C 95 % 1002,7 hPa 0,0 mm 1,0 km/h (0 Bft) S 190 ° 0 min 0,000 mm 0,0 UV-I 0 W/m² -0,2 °C 3,2 km/h (1 Bft)
06.11.2016 18:31 0,5 °C 0,6 °C 95 % 1002,7 hPa 0,0 mm 2,3 km/h (1 Bft) S 190 ° 0 min 0,000 mm 0,0 UV-I 0 W/m² -0,2 °C 3,2 km/h (1 Bft)
06.11.2016 18:32 0,5 °C 0,6 °C 95 % 1002,7 hPa 0,0 mm 0,6 km/h (0 Bft) S 190 ° 0 min 0,000 mm 0,0 UV-I 0 W/m² -0,2 °C 3,2 km/h (1 Bft)
06.11.2016 18:33 0,6 °C 0,6 °C 95 % 1002,7 hPa 0,0 mm 0,1 km/h (0 Bft) S 190 ° 0 min 0,000 mm 0,0 UV-I 0 W/m² -0,1 °C 1,6 km/h (1 Bft)
06.11.2016 18:34 0,6 °C 0,6 °C 95 % 1002,7 hPa 0,0 mm 1,7 km/h (1 Bft) S 190 ° 0 min 0,000 mm 0,0 UV-I 0 W/m² -0,1 °C 4,8 km/h (1 Bft)
06.11.2016 18:35 0,6 °C 0,6 °C 95 % 1002,7 hPa 0,0 mm 0,3 km/h (0 Bft) S 190 ° 0 min 0,000 mm 0,0 UV-I 0 W/m² -0,1 °C 1,6 km/h (1 Bft)
06.11.2016 18:36 0,6 °C 0,6 °C 95 % 1002,6 hPa 0,0 mm 0,8 km/h (0 Bft) S 190 ° 0 min 0,000 mm 0,0 UV-I 0 W/m² -0,1 °C 1,6 km/h (1 Bft)
06.11.2016 18:37 0,6 °C 0,6 °C 95 % 1002,7 hPa 0,0 mm 0,9 km/h (0 Bft) S-SW 197 ° 0 min 0,000 mm 0,0 UV-I 0 W/m² -0,1 °C 3,2 km/h (1 Bft)
06.11.2016 18:38 0,6 °C 0,6 °C 95 % 1002,7 hPa 0,0 mm 3,2 km/h (1 Bft) S-SW 207 ° 0 min 0,000 mm 0,0 UV-I 0 W/m² -0,1 °C 4,8 km/h (1 Bft)
06.11.2016 18:39 0,6 °C 0,6 °C 95 % 1002,7 hPa 0,2 mm 0,2 km/h (0 Bft) S-SW 207 ° 0 min 0,000 mm 0,0 UV-I 0 W/m² -0,1 °C 1,6 km/h (1 Bft)
06.11.2016 18:40 0,6 °C 0,6 °C 95 % 1002,7 hPa 0,0 mm 1,3 km/h (1 Bft) S-SW 207 ° 0 min 0,000 mm 0,0 UV-I 0 W/m² -0,1 °C 3,2 km/h (1 Bft)
06.11.2016 18:41 0,6 °C 0,6 °C 95 % 1002,8 hPa 0,0 mm 0,8 km/h (0 Bft) S-SW 207 ° 0 min 0,000 mm 0,0 UV-I 0 W/m² -0,1 °C 1,6 km/h (1 Bft)
06.11.2016 18:42 0,6 °C 0,6 °C 95 % 1002,8 hPa 0,0 mm 1,3 km/h (1 Bft) S-SW 207 ° 0 min 0,000 mm 0,0 UV-I 0 W/m² -0,1 °C 3,2 km/h (1 Bft)
06.11.2016 18:43 0,6 °C 0,6 °C 95 % 1002,8 hPa 0,0 mm 0,9 km/h (0 Bft) S-SW 207 ° 0 min 0,000 mm 0,0 UV-I 0 W/m² -0,1 °C 3,2 km/h (1 Bft)
06.11.2016 18:44 0,6 °C 0,6 °C 95 % 1002,8 hPa 0,0 mm 2,7 km/h (1 Bft) W 271 ° 0 min 0,000 mm 0,0 UV-I 0 W/m² -0,1 °C 4,8 km/h (1 Bft)
06.11.2016 18:45 0,6 °C 0,6 °C 95 % 1002,8 hPa 0,0 mm 3,5 km/h (1 Bft) W-SW 250 ° 0 min 0,000 mm 0,0 UV-I 0 W/m² -0,1 °C 4,8 km/h (1 Bft)
06.11.2016 18:46 0,6 °C 0,6 °C 95 % 1002,9 hPa 0,0 mm 2,1 km/h (1 Bft) W-SW 250 ° 0 min 0,000 mm 0,0 UV-I 0 W/m² -0,1 °C 4,8 km/h (1 Bft)
06.11.2016 18:47 0,6 °C 0,6 °C 95 % 1002,9 hPa 0,0 mm 3,2 km/h (1 Bft) W-SW 248 ° 0 min 0,000 mm 0,0 UV-I 0 W/m² -0,1 °C 4,8 km/h (1 Bft)
06.11.2016 18:48 0,6 °C 0,6 °C 95 % 1002,9 hPa 0,0 mm 0,3 km/h (0 Bft) W-SW 248 ° 0 min 0,000 mm 0,0 UV-I 0 W/m² -0,1 °C 1,6 km/h (1 Bft)
06.11.2016 18:49 0,6 °C 0,6 °C 95 % 1002,9 hPa 0,0 mm 0,0 km/h (0 Bft) W-SW 248 ° 0 min 0,000 mm 0,0 UV-I 0 W/m² -0,1 °C 0,0 km/h (0 Bft)
06.11.2016 18:50 0,6 °C 0,6 °C 95 % 1002,9 hPa 0,0 mm 0,2 km/h (0 Bft) W-SW 248 ° 0 min 0,000 mm 0,0 UV-I 0 W/m² -0,1 °C 1,6 km/h (1 Bft)
06.11.2016 18:51 0,6 °C 0,6 °C 95 % 1002,9 hPa 0,0 mm 0,6 km/h (0 Bft) W-SW 248 ° 0 min 0,000 mm 0,0 UV-I 0 W/m² -0,1 °C 1,6 km/h (1 Bft)
06.11.2016 18:52 0,6 °C 0,6 °C 95 % 1002,9 hPa 0,0 mm 0,5 km/h (0 Bft) W-SW 248 ° 0 min 0,000 mm 0,0 UV-I 0 W/m² -0,1 °C 1,6 km/h (1 Bft)
06.11.2016 18:53 0,6 °C 0,6 °C 95 % 1002,9 hPa 0,0 mm 1,7 km/h (1 Bft) W-SW 237 ° 0 min 0,000 mm 0,0 UV-I 0 W/m² -0,1 °C 3,2 km/h (1 Bft)
06.11.2016 18:54 0,6 °C 0,6 °C 95 % 1002,9 hPa 0,0 mm 1,9 km/h (1 Bft) SW 232 ° 0 min 0,000 mm 0,0 UV-I 0 W/m² -0,1 °C 3,2 km/h (1 Bft)
06.11.2016 18:55 0,6 °C 0,6 °C 95 % 1002,9 hPa 0,0 mm 2,1 km/h (1 Bft) S-SW 209 ° 0 min 0,000 mm 0,0 UV-I 0 W/m² -0,1 °C 3,2 km/h (1 Bft)
06.11.2016 18:56 0,6 °C 0,6 °C 95 % 1003,0 hPa 0,0 mm 0,9 km/h (0 Bft) S-SW 209 ° 0 min 0,000 mm 0,0 UV-I 0 W/m² -0,1 °C 3,2 km/h (1 Bft)
06.11.2016 18:57 0,6 °C 0,6 °C 95 % 1003,0 hPa 0,0 mm 2,2 km/h (1 Bft) S-SW 207 ° 0 min 0,000 mm 0,0 UV-I 0 W/m² -0,1 °C 3,2 km/h (1 Bft)
06.11.2016 18:58 0,6 °C 0,6 °C 95 % 1003,0 hPa 0,0 mm 1,7 km/h (1 Bft) S-SW 207 ° 0 min 0,000 mm 0,0 UV-I 0 W/m² -0,1 °C 3,2 km/h (1 Bft)
06.11.2016 18:59 0,6 °C 0,6 °C 95 % 1003,0 hPa 0,0 mm 1,6 km/h (1 Bft) S-SW 207 ° 0 min 0,000 mm 0,0 UV-I 0 W/m² -0,1 °C 3,2 km/h (1 Bft)
06.11.2016 19:00 0,6 °C 0,6 °C 95 % 1003,0 hPa 0,0 mm 1,7 km/h (1 Bft) S-SW 207 ° 0 min 0,000 mm 0,0 UV-I 0 W/m² -0,1 °C 3,2 km/h (1 Bft)
06.11.2016 19:01 0,6 °C 0,6 °C 95 % 1003,0 hPa 0,0 mm 2,2 km/h (1 Bft) S-SW 207 ° 0 min 0,000 mm 0,0 UV-I 0 W/m² -0,1 °C 3,2 km/h (1 Bft)
06.11.2016 19:02 0,6 °C 0,6 °C 95 % 1003,0 hPa 0,0 mm 2,2 km/h (1 Bft) S-SW 207 ° 0 min 0,000 mm 0,0 UV-I 0 W/m² -0,1 °C 3,2 km/h (1 Bft)
06.11.2016 19:03 0,6 °C 0,6 °C 95 % 1003,1 hPa 0,0 mm 1,5 km/h (1 Bft) S-SW 207 ° 0 min 0,000 mm 0,0 UV-I 0 W/m² -0,1 °C 3,2 km/h (1 Bft)
06.11.2016 19:04 0,6 °C 0,6 °C 95 % 1003,1 hPa 0,0 mm 1,3 km/h (1 Bft) S-SW 207 ° 0 min 0,000 mm 0,0 UV-I 0 W/m² -0,1 °C 1,6 km/h (1 Bft)
06.11.2016 19:05 0,6 °C 0,6 °C 95 % 1003,1 hPa 0,0 mm 1,1 km/h (1 Bft) S-SW 207 ° 0 min 0,000 mm 0,0 UV-I 0 W/m² -0,1 °C 3,2 km/h (1 Bft)
06.11.2016 19:06 0,6 °C 0,6 °C 95 % 1003,0 hPa 0,0 mm 1,3 km/h (1 Bft) S-SW 207 ° 0 min 0,000 mm 0,0 UV-I 0 W/m² -0,1 °C 3,2 km/h (1 Bft)
06.11.2016 19:07 0,6 °C 0,6 °C 95 % 1003,0 hPa 0,0 mm 1,7 km/h (1 Bft) S-SW 207 ° 0 min 0,000 mm 0,0 UV-I 0 W/m² -0,1 °C 3,2 km/h (1 Bft)
06.11.2016 19:08 0,6 °C 0,6 °C 95 % 1003,0 hPa 0,0 mm 0,9 km/h (0 Bft) S-SW 207 ° 0 min 0,000 mm 0,0 UV-I 0 W/m² -0,1 °C 1,6 km/h (1 Bft)
06.11.2016 19:09 0,6 °C 0,6 °C 95 % 1003,0 hPa 0,0 mm 1,9 km/h (1 Bft) S-SW 207 ° 0 min 0,000 mm 0,0 UV-I 0 W/m² -0,1 °C 3,2 km/h (1 Bft)
06.11.2016 19:10 0,6 °C 0,6 °C 95 % 1003,0 hPa 0,0 mm 0,2 km/h (0 Bft) S-SW 207 ° 0 min 0,000 mm 0,0 UV-I 0 W/m² -0,1 °C 1,6 km/h (1 Bft)
06.11.2016 19:11 0,6 °C 0,6 °C 95 % 1003,0 hPa 0,0 mm 0,0 km/h (0 Bft) S-SW 207 ° 0 min 0,000 mm 0,0 UV-I 0 W/m² -0,1 °C 0,0 km/h (0 Bft)
06.11.2016 19:12 0,6 °C 0,6 °C 95 % 1003,0 hPa 0,0 mm 0,0 km/h (0 Bft) S-SW 207 ° 0 min 0,000 mm 0,0 UV-I 0 W/m² -0,1 °C 0,0 km/h (0 Bft)
06.11.2016 19:13 0,6 °C 0,6 °C 95 % 1003,0 hPa 0,0 mm 0,0 km/h (0 Bft) S-SW 207 ° 0 min 0,000 mm 0,0 UV-I 0 W/m² -0,1 °C 0,0 km/h (0 Bft)
06.11.2016 19:14 0,6 °C 0,6 °C 95 % 1003,0 hPa 0,0 mm 0,0 km/h (0 Bft) S-SW 207 ° 0 min 0,000 mm 0,0 UV-I 0 W/m² -0,1 °C 0,0 km/h (0 Bft)
06.11.2016 19:15 0,6 °C 0,6 °C 95 % 1003,0 hPa 0,0 mm 0,0 km/h (0 Bft) S-SW 207 ° 0 min 0,000 mm 0,0 UV-I 0 W/m² -0,1 °C 0,0 km/h (0 Bft)
06.11.2016 19:16 0,6 °C 0,6 °C 95 % 1003,0 hPa 0,0 mm 0,0 km/h (0 Bft) S-SW 207 ° 0 min 0,000 mm 0,0 UV-I 0 W/m² -0,1 °C 0,0 km/h (0 Bft)
06.11.2016 19:17 0,6 °C 0,6 °C 95 % 1003,0 hPa 0,0 mm 0,0 km/h (0 Bft) S-SW 207 ° 0 min 0,000 mm 0,0 UV-I 0 W/m² -0,1 °C 0,0 km/h (0 Bft)
06.11.2016 19:18 0,6 °C 0,6 °C 95 % 1003,0 hPa 0,0 mm 0,0 km/h (0 Bft) S-SW 207 ° 0 min 0,000 mm 0,0 UV-I 0 W/m² -0,1 °C 0,0 km/h (0 Bft)
06.11.2016 19:19 0,6 °C 0,6 °C 95 % 1003,0 hPa 0,0 mm 0,0 km/h (0 Bft) S-SW 207 ° 0 min 0,000 mm 0,0 UV-I 0 W/m² -0,1 °C 0,0 km/h (0 Bft)
06.11.2016 19:20 0,6 °C 0,6 °C 95 % 1003,0 hPa 0,2 mm 0,0 km/h (0 Bft) S-SW 207 ° 0 min 0,000 mm 0,0 UV-I 0 W/m² -0,1 °C 0,0 km/h (0 Bft)
06.11.2016 19:21 0,6 °C 0,6 °C 95 % 1003,0 hPa 0,0 mm 0,0 km/h (0 Bft) S-SW 207 ° 0 min 0,000 mm 0,0 UV-I 0 W/m² -0,1 °C 0,0 km/h (0 Bft)
06.11.2016 19:22 0,6 °C 0,6 °C 95 % 1002,9 hPa 0,0 mm 0,0 km/h (0 Bft) S-SW 207 ° 0 min 0,000 mm 0,0 UV-I 0 W/m² -0,1 °C 0,0 km/h (0 Bft)
06.11.2016 19:23 0,6 °C 0,6 °C 95 % 1002,9 hPa 0,0 mm 0,0 km/h (0 Bft) S-SW 207 ° 0 min 0,000 mm 0,0 UV-I 0 W/m² -0,1 °C 0,0 km/h (0 Bft)
06.11.2016 19:24 0,6 °C 0,6 °C 95 % 1002,9 hPa 0,0 mm 0,0 km/h (0 Bft) S-SW 207 ° 0 min 0,000 mm 0,0 UV-I 0 W/m² -0,1 °C 0,0 km/h (0 Bft)
06.11.2016 19:25 0,6 °C 0,6 °C 95 % 1002,9 hPa 0,0 mm 0,0 km/h (0 Bft) S-SW 209 ° 0 min 0,000 mm 0,0 UV-I 0 W/m² -0,1 °C 0,0 km/h (0 Bft)
06.11.2016 19:26 0,6 °C 0,6 °C 95 % 1002,9 hPa 0,0 mm 0,0 km/h (0 Bft) S-SW 209 ° 0 min 0,000 mm 0,0 UV-I 0 W/m² -0,1 °C 0,0 km/h (0 Bft)
06.11.2016 19:27 0,6 °C 0,6 °C 95 % 1003,0 hPa 0,0 mm 0,0 km/h (0 Bft) S-SW 209 ° 0 min 0,000 mm 0,0 UV-I 0 W/m² -0,1 °C 0,0 km/h (0 Bft)
06.11.2016 19:28 0,6 °C 0,6 °C 95 % 1002,9 hPa 0,0 mm 0,0 km/h (0 Bft) S-SW 209 ° 0 min 0,000 mm 0,0 UV-I 0 W/m² -0,1 °C 0,0 km/h (0 Bft)
06.11.2016 19:29 0,6 °C 0,6 °C 95 % 1002,9 hPa 0,0 mm 0,0 km/h (0 Bft) S-SW 209 ° 0 min 0,000 mm 0,0 UV-I 0 W/m² -0,1 °C 0,0 km/h (0 Bft)
06.11.2016 19:30 0,6 °C 0,6 °C 95 % 1002,9 hPa 0,0 mm 0,0 km/h (0 Bft) S-SW 209 ° 0 min 0,000 mm 0,0 UV-I 0 W/m² -0,1 °C 0,0 km/h (0 Bft)
06.11.2016 19:31 0,6 °C 0,6 °C 95 % 1003,0 hPa 0,0 mm 0,0 km/h (0 Bft) S-SW 209 ° 0 min 0,000 mm 0,0 UV-I 0 W/m² -0,1 °C 0,0 km/h (0 Bft)
06.11.2016 19:32 0,6 °C 0,6 °C 95 % 1002,9 hPa 0,0 mm 0,0 km/h (0 Bft) S-SW 209 ° 0 min 0,000 mm 0,0 UV-I 0 W/m² -0,1 °C 0,0 km/h (0 Bft)
06.11.2016 19:33 0,6 °C 0,6 °C 95 % 1003,0 hPa 0,0 mm 0,0 km/h (0 Bft) S-SW 209 ° 0 min 0,000 mm 0,0 UV-I 0 W/m² -0,1 °C 0,0 km/h (0 Bft)
06.11.2016 19:34 0,6 °C 0,6 °C 95 % 1003,0 hPa 0,0 mm 0,0 km/h (0 Bft) S-SW 209 ° 0 min 0,000 mm 0,0 UV-I 0 W/m² -0,1 °C 0,0 km/h (0 Bft)
06.11.2016 19:35 0,6 °C 0,6 °C 95 % 1003,0 hPa 0,0 mm 0,0 km/h (0 Bft) S-SW 209 ° 0 min 0,000 mm 0,0 UV-I 0 W/m² -0,1 °C 0,0 km/h (0 Bft)
06.11.2016 19:36 0,6 °C 0,6 °C 95 % 1003,0 hPa 0,0 mm 0,0 km/h (0 Bft) S-SW 209 ° 0 min 0,000 mm 0,0 UV-I 0 W/m² -0,1 °C 0,0 km/h (0 Bft)
06.11.2016 19:37 0,6 °C 0,6 °C 95 % 1003,0 hPa 0,0 mm 0,0 km/h (0 Bft) SW 230 ° 0 min 0,000 mm 0,0 UV-I 0 W/m² -0,1 °C 0,0 km/h (0 Bft)
06.11.2016 19:38 0,6 °C 0,6 °C 95 % 1003,0 hPa 0,0 mm 2,1 km/h (1 Bft) W-SW 258 ° 0 min 0,000 mm 0,0 UV-I 0 W/m² -0,1 °C 4,8 km/h (1 Bft)
06.11.2016 19:39 0,6 °C 0,6 °C 95 % 1003,1 hPa 0,0 mm 2,3 km/h (1 Bft) W 268 ° 0 min 0,000 mm 0,0 UV-I 0 W/m² -0,1 °C 4,8 km/h (1 Bft)
06.11.2016 19:40 0,6 °C 0,6 °C 95 % 1003,1 hPa 0,0 mm 0,3 km/h (0 Bft) W 268 ° 0 min 0,000 mm 0,0 UV-I 0 W/m² -0,1 °C 1,6 km/h (1 Bft)
06.11.2016 19:41 0,6 °C 0,6 °C 95 % 1003,1 hPa 0,0 mm 0,3 km/h (0 Bft) W 268 ° 0 min 0,000 mm 0,0 UV-I 0 W/m² -0,1 °C 1,6 km/h (1 Bft)
06.11.2016 19:42 0,6 °C 0,6 °C 95 % 1003,0 hPa 0,0 mm 0,0 km/h (0 Bft) W 268 ° 0 min 0,000 mm 0,0 UV-I 0 W/m² -0,1 °C 0,0 km/h (0 Bft)
06.11.2016 19:43 0,6 °C 0,6 °C 95 % 1003,1 hPa 0,0 mm 0,1 km/h (0 Bft) W 268 ° 0 min 0,000 mm 0,0 UV-I 0 W/m² -0,1 °C 1,6 km/h (1 Bft)
06.11.2016 19:44 0,6 °C 0,6 °C 95 % 1003,1 hPa 0,0 mm 1,2 km/h (1 Bft) W 268 ° 0 min 0,000 mm 0,0 UV-I 0 W/m² -0,1 °C 3,2 km/h (1 Bft)
06.11.2016 19:45 0,6 °C 0,6 °C 95 % 1003,0 hPa 0,0 mm 0,0 km/h (0 Bft) W 268 ° 0 min 0,000 mm 0,0 UV-I 0 W/m² -0,1 °C 0,0 km/h (0 Bft)
06.11.2016 19:46 0,6 °C 0,6 °C 95 % 1003,0 hPa 0,0 mm 0,0 km/h (0 Bft) W 268 ° 0 min 0,000 mm 0,0 UV-I 0 W/m² -0,1 °C 0,0 km/h (0 Bft)
06.11.2016 19:47 0,6 °C 0,6 °C 95 % 1003,1 hPa 0,0 mm 0,0 km/h (0 Bft) W 268 ° 0 min 0,000 mm 0,0 UV-I 0 W/m² -0,1 °C 0,0 km/h (0 Bft)
06.11.2016 19:48 0,6 °C 0,6 °C 95 % 1003,0 hPa 0,0 mm 3,5 km/h (1 Bft) W-SW 244 ° 0 min 0,000 mm 0,0 UV-I 0 W/m² -0,1 °C 6,4 km/h (2 Bft)
06.11.2016 19:49 0,6 °C 0,6 °C 95 % 1003,1 hPa 0,0 mm 2,5 km/h (1 Bft) SW 235 ° 0 min 0,000 mm 0,0 UV-I 0 W/m² -0,1 °C 4,8 km/h (1 Bft)
06.11.2016 19:50 0,6 °C 0,6 °C 95 % 1003,1 hPa 0,0 mm 0,6 km/h (0 Bft) SW 235 ° 0 min 0,000 mm 0,0 UV-I 0 W/m² -0,1 °C 1,6 km/h (1 Bft)
06.11.2016 19:51 0,6 °C 0,6 °C 95 % 1003,1 hPa 0,0 mm 1,3 km/h (1 Bft) SW 235 ° 0 min 0,000 mm 0,0 UV-I 0 W/m² -0,1 °C 3,2 km/h (1 Bft)
06.11.2016 19:52 0,6 °C 0,6 °C 95 % 1003,1 hPa 0,0 mm 0,7 km/h (0 Bft) SW 235 ° 0 min 0,000 mm 0,0 UV-I 0 W/m² -0,1 °C 1,6 km/h (1 Bft)
06.11.2016 19:53 0,6 °C 0,6 °C 95 % 1003,1 hPa 0,0 mm 1,6 km/h (1 Bft) SW 235 ° 0 min 0,000 mm 0,0 UV-I 0 W/m² -0,1 °C 3,2 km/h (1 Bft)
06.11.2016 19:54 0,6 °C 0,6 °C 95 % 1003,1 hPa 0,0 mm 1,1 km/h (1 Bft) SW 235 ° 0 min 0,000 mm 0,0 UV-I 0 W/m² -0,1 °C 3,2 km/h (1 Bft)
06.11.2016 19:55 0,6 °C 0,6 °C 95 % 1003,1 hPa 0,0 mm 0,1 km/h (0 Bft) SW 235 ° 0 min 0,000 mm 0,0 UV-I 0 W/m² -0,1 °C 1,6 km/h (1 Bft)
06.11.2016 19:56 0,6 °C 0,6 °C 95 % 1003,1 hPa 0,0 mm 2,2 km/h (1 Bft) SW 232 ° 0 min 0,000 mm 0,0 UV-I 0 W/m² -0,1 °C 4,8 km/h (1 Bft)
06.11.2016 19:57 0,6 °C 0,6 °C 95 % 1003,2 hPa 0,0 mm 1,6 km/h (1 Bft) SW 225 ° 0 min 0,000 mm 0,0 UV-I 0 W/m² -0,1 °C 3,2 km/h (1 Bft)
06.11.2016 19:58 0,6 °C 0,6 °C 95 % 1003,2 hPa 0,0 mm 3,2 km/h (1 Bft) SW 225 ° 0 min 0,000 mm 0,0 UV-I 0 W/m² -0,1 °C 4,8 km/h (1 Bft)
06.11.2016 19:59 0,6 °C 0,6 °C 95 % 1003,2 hPa 0,0 mm 3,2 km/h (1 Bft) SW 225 ° 0 min 0,000 mm 0,0 UV-I 0 W/m² -0,1 °C 3,2 km/h (1 Bft)
06.11.2016 20:00 0,6 °C 0,6 °C 95 % 1003,2 hPa 0,0 mm 1,6 km/h (1 Bft) S-SW 202 ° 0 min 0,000 mm 0,0 UV-I 0 W/m² -0,1 °C 3,2 km/h (1 Bft)
06.11.2016 20:01 0,6 °C 0,6 °C 95 % 1003,3 hPa 0,0 mm 3,2 km/h (1 Bft) SW 225 ° 0 min 0,000 mm 0,0 UV-I 0 W/m² -0,1 °C 4,8 km/h (1 Bft)
06.11.2016 20:02 0,6 °C 0,6 °C 95 % 1003,2 hPa 0,0 mm 1,6 km/h (1 Bft) SW 225 ° 0 min 0,000 mm 0,0 UV-I 0 W/m² -0,1 °C 3,2 km/h (1 Bft)
06.11.2016 20:03 0,6 °C 0,6 °C 95 % 1003,3 hPa 0,0 mm 1,6 km/h (1 Bft) SW 225 ° 0 min 0,000 mm 0,0 UV-I 0 W/m² -0,1 °C 3,2 km/h (1 Bft)
06.11.2016 20:04 0,6 °C 0,6 °C 95 % 1003,2 hPa 0,0 mm 1,6 km/h (1 Bft) S-SW 202 ° 0 min 0,000 mm 0,0 UV-I 0 W/m² -0,1 °C 4,8 km/h (1 Bft)
06.11.2016 20:05 0,6 °C 0,6 °C 95 % 1003,3 hPa 0,0 mm 4,8 km/h (1 Bft) SW 225 ° 0 min 0,000 mm 0,0 UV-I 0 W/m² -0,1 °C 6,4 km/h (2 Bft)
06.11.2016 20:06 0,6 °C 0,6 °C 95 % 1003,2 hPa 0,0 mm 3,2 km/h (1 Bft) SW 225 ° 0 min 0,000 mm 0,0 UV-I 0 W/m² -0,1 °C 6,4 km/h (2 Bft)
06.11.2016 20:07 0,6 °C 0,7 °C 95 % 1003,2 hPa 0,0 mm 1,6 km/h (1 Bft) SW 225 ° 0 min 0,000 mm 0,0 UV-I 0 W/m² -0,1 °C 1,6 km/h (1 Bft)
06.11.2016 20:08 0,6 °C 0,7 °C 95 % 1003,2 hPa 0,0 mm 1,6 km/h (1 Bft) SW 225 ° 0 min 0,000 mm 0,0 UV-I 0 W/m² -0,1 °C 4,8 km/h (1 Bft)
06.11.2016 20:09 0,7 °C 0,7 °C 95 % 1003,2 hPa 0,0 mm 1,6 km/h (1 Bft) SW 225 ° 0 min 0,000 mm 0,0 UV-I 0 W/m² -0,0 °C 3,2 km/h (1 Bft)
06.11.2016 20:10 0,7 °C 0,7 °C 95 % 1003,2 hPa 0,0 mm 3,2 km/h (1 Bft) SW 225 ° 0 min 0,000 mm 0,0 UV-I 0 W/m² -0,0 °C 4,8 km/h (1 Bft)
06.11.2016 20:11 0,6 °C 0,7 °C 95 % 1003,1 hPa 0,0 mm 3,2 km/h (1 Bft) S-SW 202 ° 0 min 0,000 mm 0,0 UV-I 0 W/m² -0,1 °C 6,4 km/h (2 Bft)
06.11.2016 20:12 0,7 °C 0,7 °C 95 % 1003,1 hPa 0,0 mm 3,2 km/h (1 Bft) S-SW 202 ° 0 min 0,000 mm 0,0 UV-I 0 W/m² -0,0 °C 4,8 km/h (1 Bft)
06.11.2016 20:13 0,7 °C 0,7 °C 95 % 1003,2 hPa 0,0 mm 3,2 km/h (1 Bft) S-SW 202 ° 0 min 0,000 mm 0,0 UV-I 0 W/m² -0,0 °C 4,8 km/h (1 Bft)
06.11.2016 20:14 0,7 °C 0,7 °C 95 % 1003,1 hPa 0,0 mm 4,8 km/h (1 Bft) S-SW 202 ° 0 min 0,000 mm 0,0 UV-I 0 W/m² -0,0 °C 4,8 km/h (1 Bft)
06.11.2016 20:15 0,7 °C 0,7 °C 95 % 1003,1 hPa 0,0 mm 3,2 km/h (1 Bft) S-SW 202 ° 0 min 0,000 mm 0,0 UV-I 0 W/m² -0,0 °C 4,8 km/h (1 Bft)
06.11.2016 20:16 0,7 °C 0,7 °C 95 % 1003,1 hPa 0,0 mm 4,8 km/h (1 Bft) S-SW 202 ° 0 min 0,000 mm 0,0 UV-I 0 W/m² -0,0 °C 6,4 km/h (2 Bft)
06.11.2016 20:17 0,7 °C 0,7 °C 95 % 1003,1 hPa 0,0 mm 6,4 km/h (2 Bft) S-SW 202 ° 0 min 0,000 mm 0,0 UV-I 0 W/m² -0,0 °C 8,0 km/h (2 Bft)
06.11.2016 20:18 0,7 °C 0,7 °C 95 % 1003,1 hPa 0,0 mm 3,2 km/h (1 Bft) SW 225 ° 0 min 0,000 mm 0,0 UV-I 0 W/m² -0,0 °C 6,4 km/h (2 Bft)
06.11.2016 20:19 0,7 °C 0,7 °C 95 % 1003,1 hPa 0,0 mm 3,2 km/h (1 Bft) SW 225 ° 0 min 0,000 mm 0,0 UV-I 0 W/m² -0,0 °C 6,4 km/h (2 Bft)
06.11.2016 20:20 0,7 °C 0,7 °C 95 % 1003,1 hPa 0,0 mm 4,8 km/h (1 Bft) S 180 ° 0 min 0,000 mm 0,0 UV-I 0 W/m² -0,0 °C 6,4 km/h (2 Bft)
06.11.2016 20:21 0,7 °C 0,7 °C 95 % 1003,1 hPa 0,0 mm 4,8 km/h (1 Bft) S-SW 202 ° 0 min 0,000 mm 0,0 UV-I 0 W/m² -0,0 °C 8,0 km/h (2 Bft)
06.11.2016 20:22 0,7 °C 0,7 °C 95 % 1003,0 hPa 0,0 mm 4,8 km/h (1 Bft) S 180 ° 0 min 0,000 mm 0,0 UV-I 0 W/m² -0,0 °C 6,4 km/h (2 Bft)
06.11.2016 20:23 0,7 °C 0,7 °C 95 % 1003,1 hPa 0,0 mm 6,4 km/h (2 Bft) S 180 ° 0 min 0,000 mm 0,0 UV-I 0 W/m² -0,0 °C 9,7 km/h (2 Bft)
06.11.2016 20:24 0,7 °C 0,8 °C 95 % 1003,1 hPa 0,0 mm 4,8 km/h (1 Bft) S 180 ° 0 min 0,000 mm 0,0 UV-I 0 W/m² -0,0 °C 6,4 km/h (2 Bft)
06.11.2016 20:25 0,8 °C 0,8 °C 95 % 1003,1 hPa 0,0 mm 4,8 km/h (1 Bft) S-SO 157 ° 0 min 0,000 mm 0,0 UV-I 0 W/m² 0,1 °C 8,0 km/h (2 Bft)
06.11.2016 20:26 0,7 °C 0,8 °C 95 % 1003,0 hPa 0,0 mm 3,2 km/h (1 Bft) S-SW 202 ° 0 min 0,000 mm 0,0 UV-I 0 W/m² -0,0 °C 4,8 km/h (1 Bft)
06.11.2016 20:27 0,8 °C 0,8 °C 95 % 1003,1 hPa 0,0 mm 3,2 km/h (1 Bft) S-SW 202 ° 0 min 0,000 mm 0,0 UV-I 0 W/m² 0,1 °C 6,4 km/h (2 Bft)
06.11.2016 20:28 0,8 °C 0,8 °C 95 % 1003,1 hPa 0,0 mm 3,2 km/h (1 Bft) SW 225 ° 0 min 0,000 mm 0,0 UV-I 0 W/m² 0,1 °C 4,8 km/h (1 Bft)
06.11.2016 20:29 0,8 °C 0,8 °C 95 % 1003,2 hPa 0,0 mm 3,2 km/h (1 Bft) SW 225 ° 0 min 0,000 mm 0,0 UV-I 0 W/m² 0,1 °C 4,8 km/h (1 Bft)
06.11.2016 20:30 0,8 °C 0,8 °C 95 % 1003,2 hPa 0,0 mm 3,2 km/h (1 Bft) SW 225 ° 0 min 0,000 mm 0,0 UV-I 0 W/m² 0,1 °C 4,8 km/h (1 Bft)
06.11.2016 20:31 0,8 °C 0,8 °C 95 % 1003,3 hPa 0,0 mm 3,2 km/h (1 Bft) SW 225 ° 0 min 0,000 mm 0,0 UV-I 0 W/m² 0,1 °C 4,8 km/h (1 Bft)
06.11.2016 20:32 0,8 °C 0,8 °C 95 % 1003,2 hPa 0,0 mm 3,2 km/h (1 Bft) SW 225 ° 0 min 0,000 mm 0,0 UV-I 0 W/m² 0,1 °C 6,4 km/h (2 Bft)
06.11.2016 20:33 0,8 °C 0,8 °C 95 % 1003,3 hPa 0,0 mm 3,2 km/h (1 Bft) S-SW 202 ° 0 min 0,000 mm 0,0 UV-I 0 W/m² 0,1 °C 4,8 km/h (1 Bft)
06.11.2016 20:34 0,8 °C 0,8 °C 95 % 1003,4 hPa 0,0 mm 1,6 km/h (1 Bft) S-SW 202 ° 0 min 0,000 mm 0,0 UV-I 0 W/m² 0,1 °C 3,2 km/h (1 Bft)
06.11.2016 20:35 0,8 °C 0,8 °C 95 % 1003,3 hPa 0,0 mm 3,2 km/h (1 Bft) S-SW 202 ° 0 min 0,000 mm 0,0 UV-I 0 W/m² 0,1 °C 4,8 km/h (1 Bft)
06.11.2016 20:36 0,8 °C 0,8 °C 95 % 1003,3 hPa 0,0 mm 3,2 km/h (1 Bft) S-SW 202 ° 0 min 0,000 mm 0,0 UV-I 0 W/m² 0,1 °C 4,8 km/h (1 Bft)
06.11.2016 20:37 0,8 °C 0,8 °C 95 % 1003,3 hPa 0,0 mm 3,2 km/h (1 Bft) S-SW 202 ° 0 min 0,000 mm 0,0 UV-I 0 W/m² 0,1 °C 9,7 km/h (2 Bft)
06.11.2016 20:38 0,8 °C 0,8 °C 95 % 1003,3 hPa 0,0 mm 6,4 km/h (2 Bft) W-SW 247 ° 0 min 0,000 mm 0,0 UV-I 0 W/m² 0,1 °C 11,3 km/h (2 Bft)
06.11.2016 20:39 0,8 °C 0,8 °C 95 % 1003,3 hPa 0,0 mm 3,2 km/h (1 Bft) W-SW 247 ° 0 min 0,000 mm 0,0 UV-I 0 W/m² 0,1 °C 4,8 km/h (1 Bft)
06.11.2016 20:40 0,8 °C 0,8 °C 95 % 1003,3 hPa 0,0 mm 1,6 km/h (1 Bft) S 180 ° 0 min 0,000 mm 0,0 UV-I 0 W/m² 0,1 °C 3,2 km/h (1 Bft)
06.11.2016 20:41 0,8 °C 0,8 °C 95 % 1003,4 hPa 0,0 mm 3,2 km/h (1 Bft) S-SW 202 ° 0 min 0,000 mm 0,0 UV-I 0 W/m² 0,1 °C 4,8 km/h (1 Bft)
06.11.2016 20:42 0,8 °C 0,8 °C 94 % 1003,4 hPa 0,2 mm 4,8 km/h (1 Bft) S-SW 202 ° 0 min 0,000 mm 0,0 UV-I 0 W/m² -0,1 °C 6,4 km/h (2 Bft)
06.11.2016 20:43 0,8 °C 0,8 °C 94 % 1003,4 hPa 0,0 mm 4,8 km/h (1 Bft) S 180 ° 0 min 0,000 mm 0,0 UV-I 0 W/m² -0,1 °C 6,4 km/h (2 Bft)
06.11.2016 20:44 0,8 °C 0,9 °C 94 % 1003,4 hPa 0,0 mm 4,8 km/h (1 Bft) S-SW 202 ° 0 min 0,000 mm 0,0 UV-I 0 W/m² -0,1 °C 8,0 km/h (2 Bft)
06.11.2016 20:45 0,8 °C 0,8 °C 95 % 1003,4 hPa 0,0 mm 3,2 km/h (1 Bft) S 180 ° 0 min 0,000 mm 0,0 UV-I 0 W/m² 0,1 °C 4,8 km/h (1 Bft)
06.11.2016 20:46 0,9 °C 0,9 °C 95 % 1003,4 hPa 0,0 mm 3,2 km/h (1 Bft) SW 225 ° 0 min 0,000 mm 0,0 UV-I 0 W/m² 0,2 °C 4,8 km/h (1 Bft)
06.11.2016 20:47 0,8 °C 0,9 °C 94 % 1003,4 hPa 0,0 mm 3,2 km/h (1 Bft) W-SW 247 ° 0 min 0,000 mm 0,0 UV-I 0 W/m² -0,1 °C 6,4 km/h (2 Bft)
06.11.2016 20:48 0,9 °C 0,9 °C 94 % 1003,4 hPa 0,0 mm 3,2 km/h (1 Bft) W-SW 247 ° 0 min 0,000 mm 0,0 UV-I 0 W/m² 0,0 °C 4,8 km/h (1 Bft)
06.11.2016 20:49 0,9 °C 0,9 °C 94 % 1003,4 hPa 0,0 mm 3,2 km/h (1 Bft) W-SW 247 ° 0 min 0,000 mm 0,0 UV-I 0 W/m² 0,0 °C 4,8 km/h (1 Bft)
06.11.2016 20:50 0,8 °C 0,9 °C 94 % 1003,4 hPa 0,0 mm 3,2 km/h (1 Bft) W-SW 247 ° 0 min 0,000 mm 0,0 UV-I 0 W/m² -0,1 °C 4,8 km/h (1 Bft)
06.11.2016 20:51 0,8 °C 0,9 °C 94 % 1003,4 hPa 0,0 mm 3,2 km/h (1 Bft) W-SW 247 ° 0 min 0,000 mm 0,0 UV-I 0 W/m² -0,1 °C 4,8 km/h (1 Bft)
06.11.2016 20:52 0,9 °C 0,9 °C 94 % 1003,4 hPa 0,0 mm 6,4 km/h (2 Bft) W-SW 247 ° 0 min 0,000 mm 0,0 UV-I 0 W/m² 0,0 °C 12,9 km/h (3 Bft)
06.11.2016 20:53 0,9 °C 0,9 °C 94 % 1003,4 hPa 0,0 mm 8,0 km/h (2 Bft) W 270 ° 0 min 0,000 mm 0,0 UV-I 0 W/m² 0,0 °C 12,9 km/h (3 Bft)
06.11.2016 20:54 0,9 °C 0,9 °C 94 % 1003,4 hPa 0,0 mm 3,2 km/h (1 Bft) SW 225 ° 0 min 0,000 mm 0,0 UV-I 0 W/m² 0,0 °C 6,4 km/h (2 Bft)
06.11.2016 20:55 0,9 °C 0,9 °C 94 % 1003,4 hPa 0,0 mm 4,8 km/h (1 Bft) SW 225 ° 0 min 0,000 mm 0,0 UV-I 0 W/m² 0,0 °C 6,4 km/h (2 Bft)
06.11.2016 20:56 0,9 °C 0,9 °C 94 % 1003,4 hPa 0,0 mm 11,3 km/h (2 Bft) W-SW 247 ° 0 min 0,000 mm 0,0 UV-I 0 W/m² 0,0 °C 14,5 km/h (3 Bft)
06.11.2016 20:57 0,9 °C 0,9 °C 94 % 1003,4 hPa 0,0 mm 8,0 km/h (2 Bft) W-SW 247 ° 0 min 0,000 mm 0,0 UV-I 0 W/m² 0,0 °C 12,9 km/h (3 Bft)
06.11.2016 20:58 0,9 °C 0,9 °C 94 % 1003,4 hPa 0,0 mm 3,2 km/h (1 Bft) S-SW 202 ° 0 min 0,000 mm 0,0 UV-I 0 W/m² 0,0 °C 4,8 km/h (1 Bft)
06.11.2016 20:59 0,9 °C 0,9 °C 94 % 1003,4 hPa 0,0 mm 4,8 km/h (1 Bft) W-SW 247 ° 0 min 0,000 mm 0,0 UV-I 0 W/m² 0,0 °C 6,4 km/h (2 Bft)
06.11.2016 21:00 0,9 °C 0,9 °C 94 % 1003,4 hPa 0,0 mm 1,6 km/h (1 Bft) W 270 ° 0 min 0,000 mm 0,0 UV-I 0 W/m² 0,0 °C 4,8 km/h (1 Bft)
06.11.2016 21:01 0,9 °C 0,9 °C 94 % 1003,5 hPa 0,0 mm 6,4 km/h (2 Bft) SW 225 ° 0 min 0,000 mm 0,0 UV-I 0 W/m² 0,0 °C 11,3 km/h (2 Bft)
06.11.2016 21:02 0,9 °C 0,9 °C 94 % 1003,5 hPa 0,0 mm 4,8 km/h (1 Bft) W-SW 247 ° 0 min 0,000 mm 0,0 UV-I 0 W/m² 0,0 °C 6,4 km/h (2 Bft)
06.11.2016 21:03 0,8 °C 0,9 °C 94 % 1003,5 hPa 0,0 mm 4,8 km/h (1 Bft) W-SW 247 ° 0 min 0,000 mm 0,0 UV-I 0 W/m² -0,1 °C 11,3 km/h (2 Bft)
06.11.2016 21:04 0,9 °C 0,9 °C 94 % 1003,5 hPa 0,0 mm 9,7 km/h (2 Bft) W-SW 247 ° 0 min 0,000 mm 0,0 UV-I 0 W/m² 0,0 °C 14,5 km/h (3 Bft)
06.11.2016 21:05 0,9 °C 0,9 °C 94 % 1003,5 hPa 0,0 mm 6,4 km/h (2 Bft) W-SW 247 ° 0 min 0,000 mm 0,0 UV-I 0 W/m² 0,0 °C 11,3 km/h (2 Bft)
06.11.2016 21:06 0,9 °C 0,9 °C 94 % 1003,6 hPa 0,0 mm 3,2 km/h (1 Bft) W-SW 247 ° 0 min 0,000 mm 0,0 UV-I 0 W/m² 0,0 °C 12,9 km/h (3 Bft)
06.11.2016 21:07 0,8 °C 0,9 °C 94 % 1003,6 hPa 0,0 mm 6,4 km/h (2 Bft) W-SW 247 ° 0 min 0,000 mm 0,0 UV-I 0 W/m² -0,1 °C 11,3 km/h (2 Bft)
06.11.2016 21:08 0,9 °C 0,9 °C 94 % 1003,6 hPa 0,0 mm 4,8 km/h (1 Bft) W 270 ° 0 min 0,000 mm 0,0 UV-I 0 W/m² 0,0 °C 8,0 km/h (2 Bft)
06.11.2016 21:09 0,9 °C 0,9 °C 94 % 1003,5 hPa 0,0 mm 4,8 km/h (1 Bft) W-SW 247 ° 0 min 0,000 mm 0,0 UV-I 0 W/m² 0,0 °C 6,4 km/h (2 Bft)
06.11.2016 21:10 0,8 °C 0,9 °C 94 % 1003,6 hPa 0,0 mm 4,8 km/h (1 Bft) SW 225 ° 0 min 0,000 mm 0,0 UV-I 0 W/m² -0,1 °C 8,0 km/h (2 Bft)
06.11.2016 21:11 0,8 °C 0,8 °C 94 % 1003,6 hPa 0,0 mm 6,4 km/h (2 Bft) S-SW 202 ° 0 min 0,000 mm 0,0 UV-I 0 W/m² -0,1 °C 8,0 km/h (2 Bft)
06.11.2016 21:12 0,8 °C 0,8 °C 94 % 1003,6 hPa 0,0 mm 4,8 km/h (1 Bft) W-SW 247 ° 0 min 0,000 mm 0,0 UV-I 0 W/m² -0,1 °C 9,7 km/h (2 Bft)
06.11.2016 21:13 0,8 °C 0,8 °C 94 % 1003,7 hPa 0,0 mm 3,2 km/h (1 Bft) S-SW 202 ° 0 min 0,000 mm 0,0 UV-I 0 W/m² -0,1 °C 4,8 km/h (1 Bft)
06.11.2016 21:14 0,8 °C 0,8 °C 94 % 1003,6 hPa 0,0 mm 4,8 km/h (1 Bft) S-SW 202 ° 0 min 0,000 mm 0,0 UV-I 0 W/m² -0,1 °C 8,0 km/h (2 Bft)
06.11.2016 21:15 0,8 °C 0,8 °C 94 % 1003,6 hPa 0,0 mm 3,2 km/h (1 Bft) SW 225 ° 0 min 0,000 mm 0,0 UV-I 0 W/m² -0,1 °C 4,8 km/h (1 Bft)
06.11.2016 21:16 0,8 °C 0,8 °C 94 % 1003,6 hPa 0,0 mm 1,6 km/h (1 Bft) SW 225 ° 0 min 0,000 mm 0,0 UV-I 0 W/m² -0,1 °C 4,8 km/h (1 Bft)
06.11.2016 21:17 0,8 °C 0,9 °C 94 % 1003,6 hPa 0,0 mm 4,8 km/h (1 Bft) W-SW 247 ° 0 min 0,000 mm 0,0 UV-I 0 W/m² -0,1 °C 8,0 km/h (2 Bft)
06.11.2016 21:18 0,8 °C 0,8 °C 94 % 1003,6 hPa 0,0 mm 1,6 km/h (1 Bft) S 180 ° 0 min 0,000 mm 0,0 UV-I 0 W/m² -0,1 °C 3,2 km/h (1 Bft)
06.11.2016 21:19 0,8 °C 0,8 °C 94 % 1003,6 hPa 0,0 mm 3,2 km/h (1 Bft) W-SW 247 ° 0 min 0,000 mm 0,0 UV-I 0 W/m² -0,1 °C 4,8 km/h (1 Bft)
06.11.2016 21:20 0,8 °C 0,8 °C 94 % 1003,6 hPa 0,0 mm 3,2 km/h (1 Bft) SW 225 ° 0 min 0,000 mm 0,0 UV-I 0 W/m² -0,1 °C 4,8 km/h (1 Bft)
06.11.2016 21:21 0,8 °C 0,8 °C 94 % 1003,6 hPa 0,0 mm 3,2 km/h (1 Bft) W-SW 247 ° 0 min 0,000 mm 0,0 UV-I 0 W/m² -0,1 °C 3,2 km/h (1 Bft)
06.11.2016 21:22 0,8 °C 0,8 °C 94 % 1003,6 hPa 0,0 mm 4,8 km/h (1 Bft) W-SW 247 ° 0 min 0,000 mm 0,0 UV-I 0 W/m² -0,1 °C 9,7 km/h (2 Bft)
06.11.2016 21:23 0,8 °C 0,8 °C 94 % 1003,5 hPa 0,0 mm 3,2 km/h (1 Bft) SW 225 ° 0 min 0,000 mm 0,0 UV-I 0 W/m² -0,1 °C 4,8 km/h (1 Bft)
06.11.2016 21:24 0,8 °C 0,8 °C 94 % 1003,5 hPa 0,0 mm 3,2 km/h (1 Bft) S-SW 202 ° 0 min 0,000 mm 0,0 UV-I 0 W/m² -0,1 °C 6,4 km/h (2 Bft)
06.11.2016 21:25 0,8 °C 0,8 °C 94 % 1003,6 hPa 0,0 mm 4,8 km/h (1 Bft) SW 225 ° 0 min 0,000 mm 0,0 UV-I 0 W/m² -0,1 °C 4,8 km/h (1 Bft)
06.11.2016 21:26 0,8 °C 0,8 °C 94 % 1003,6 hPa 0,0 mm 3,2 km/h (1 Bft) SW 225 ° 0 min 0,000 mm 0,0 UV-I 0 W/m² -0,1 °C 4,8 km/h (1 Bft)
06.11.2016 21:27 0,8 °C 0,8 °C 94 % 1003,6 hPa 0,0 mm 1,6 km/h (1 Bft) W-SW 247 ° 0 min 0,000 mm 0,0 UV-I 0 W/m² -0,1 °C 4,8 km/h (1 Bft)
06.11.2016 21:28 0,8 °C 0,8 °C 94 % 1003,6 hPa 0,0 mm 1,6 km/h (1 Bft) W-SW 247 ° 0 min 0,000 mm 0,0 UV-I 0 W/m² -0,1 °C 3,2 km/h (1 Bft)
06.11.2016 21:29 0,8 °C 0,8 °C 94 % 1003,6 hPa 0,0 mm 3,2 km/h (1 Bft) W-SW 247 ° 0 min 0,000 mm 0,0 UV-I 0 W/m² -0,1 °C 4,8 km/h (1 Bft)
06.11.2016 21:30 0,8 °C 0,8 °C 94 % 1003,6 hPa 0,0 mm 0,0 km/h (0 Bft) W-SW 247 ° 0 min 0,000 mm 0,0 UV-I 0 W/m² -0,1 °C 1,6 km/h (1 Bft)
06.11.2016 21:31 0,8 °C 0,8 °C 94 % 1003,6 hPa 0,0 mm 1,6 km/h (1 Bft) W-SW 247 ° 0 min 0,000 mm 0,0 UV-I 0 W/m² -0,1 °C 3,2 km/h (1 Bft)
06.11.2016 21:32 0,8 °C 0,8 °C 94 % 1003,6 hPa 0,0 mm 1,6 km/h (1 Bft) W-SW 247 ° 0 min 0,000 mm 0,0 UV-I 0 W/m² -0,1 °C 3,2 km/h (1 Bft)
06.11.2016 21:33 0,8 °C 0,8 °C 94 % 1003,6 hPa 0,0 mm 1,6 km/h (1 Bft) W-SW 247 ° 0 min 0,000 mm 0,0 UV-I 0 W/m² -0,1 °C 1,6 km/h (1 Bft)
06.11.2016 21:34 0,8 °C 0,8 °C 94 % 1003,6 hPa 0,0 mm 0,0 km/h (0 Bft) W-SW 247 ° 0 min 0,000 mm 0,0 UV-I 0 W/m² -0,1 °C 1,6 km/h (1 Bft)
06.11.2016 21:35 0,8 °C 0,8 °C 94 % 1003,6 hPa 0,0 mm 0,0 km/h (0 Bft) W-SW 247 ° 0 min 0,000 mm 0,0 UV-I 0 W/m² -0,1 °C 1,6 km/h (1 Bft)
06.11.2016 21:36 0,8 °C 0,8 °C 94 % 1003,6 hPa 0,0 mm 0,0 km/h (0 Bft) W-SW 247 ° 0 min 0,000 mm 0,0 UV-I 0 W/m² -0,1 °C 1,6 km/h (1 Bft)
06.11.2016 21:37 0,8 °C 0,8 °C 94 % 1003,6 hPa 0,0 mm 0,0 km/h (0 Bft) W-SW 247 ° 0 min 0,000 mm 0,0 UV-I 0 W/m² -0,1 °C 1,6 km/h (1 Bft)
06.11.2016 21:38 0,8 °C 0,8 °C 94 % 1003,6 hPa 0,0 mm 1,6 km/h (1 Bft) W-SW 247 ° 0 min 0,000 mm 0,0 UV-I 0 W/m² -0,1 °C 3,2 km/h (1 Bft)
06.11.2016 21:39 0,8 °C 0,8 °C 94 % 1003,6 hPa 0,0 mm 1,6 km/h (1 Bft) W-SW 247 ° 0 min 0,000 mm 0,0 UV-I 0 W/m² -0,1 °C 1,6 km/h (1 Bft)
06.11.2016 21:40 0,8 °C 0,8 °C 94 % 1003,6 hPa 0,0 mm 1,6 km/h (1 Bft) S-SW 202 ° 0 min 0,000 mm 0,0 UV-I 0 W/m² -0,1 °C 3,2 km/h (1 Bft)
06.11.2016 21:41 0,8 °C 0,8 °C 94 % 1003,7 hPa 0,0 mm 1,6 km/h (1 Bft) S-SW 202 ° 0 min 0,000 mm 0,0 UV-I 0 W/m² -0,1 °C 3,2 km/h (1 Bft)
06.11.2016 21:42 0,8 °C 0,8 °C 94 % 1003,6 hPa 0,0 mm 3,2 km/h (1 Bft) S-SW 202 ° 0 min 0,000 mm 0,0 UV-I 0 W/m² -0,1 °C 3,2 km/h (1 Bft)
06.11.2016 21:43 0,8 °C 0,8 °C 94 % 1003,7 hPa 0,0 mm 3,2 km/h (1 Bft) S-SW 202 ° 0 min 0,000 mm 0,0 UV-I 0 W/m² -0,1 °C 6,4 km/h (2 Bft)
06.11.2016 21:44 0,8 °C 0,8 °C 94 % 1003,7 hPa 0,0 mm 1,6 km/h (1 Bft) S-SW 202 ° 0 min 0,000 mm 0,0 UV-I 0 W/m² -0,1 °C 3,2 km/h (1 Bft)
06.11.2016 21:45 0,8 °C 0,8 °C 94 % 1003,7 hPa 0,0 mm 3,2 km/h (1 Bft) S-SW 202 ° 0 min 0,000 mm 0,0 UV-I 0 W/m² -0,1 °C 6,4 km/h (2 Bft)
06.11.2016 21:46 0,8 °C 0,8 °C 94 % 1003,7 hPa 0,0 mm 1,6 km/h (1 Bft) S 180 ° 0 min 0,000 mm 0,0 UV-I 0 W/m² -0,1 °C 4,8 km/h (1 Bft)
06.11.2016 21:47 0,8 °C 0,8 °C 94 % 1003,7 hPa 0,0 mm 1,6 km/h (1 Bft) S 180 ° 0 min 0,000 mm 0,0 UV-I 0 W/m² -0,1 °C 3,2 km/h (1 Bft)
06.11.2016 21:48 0,8 °C 0,8 °C 94 % 1003,7 hPa 0,0 mm 1,6 km/h (1 Bft) S 180 ° 0 min 0,000 mm 0,0 UV-I 0 W/m² -0,1 °C 3,2 km/h (1 Bft)
06.11.2016 21:49 0,8 °C 0,8 °C 94 % 1003,7 hPa 0,0 mm 3,2 km/h (1 Bft) S 180 ° 0 min 0,000 mm 0,0 UV-I 0 W/m² -0,1 °C 4,8 km/h (1 Bft)
06.11.2016 21:50 0,8 °C 0,8 °C 94 % 1003,7 hPa 0,0 mm 3,2 km/h (1 Bft) S-SW 202 ° 0 min 0,000 mm 0,0 UV-I 0 W/m² -0,1 °C 3,2 km/h (1 Bft)
06.11.2016 21:51 0,7 °C 0,8 °C 94 % 1003,7 hPa 0,0 mm 1,6 km/h (1 Bft) S-SW 202 ° 0 min 0,000 mm 0,0 UV-I 0 W/m² -0,2 °C 3,2 km/h (1 Bft)
06.11.2016 21:52 0,8 °C 0,8 °C 94 % 1003,7 hPa 0,0 mm 1,6 km/h (1 Bft) S-SW 202 ° 0 min 0,000 mm 0,0 UV-I 0 W/m² -0,1 °C 3,2 km/h (1 Bft)
06.11.2016 21:53 0,8 °C 0,8 °C 94 % 1003,7 hPa 0,2 mm 1,6 km/h (1 Bft) S-SW 202 ° 0 min 0,000 mm 0,0 UV-I 0 W/m² -0,1 °C 3,2 km/h (1 Bft)
06.11.2016 21:54 0,8 °C 0,8 °C 94 % 1003,6 hPa 0,0 mm 1,6 km/h (1 Bft) S-SW 202 ° 0 min 0,000 mm 0,0 UV-I 0 W/m² -0,1 °C 3,2 km/h (1 Bft)
06.11.2016 21:55 0,7 °C 0,8 °C 94 % 1003,7 hPa 0,0 mm 1,6 km/h (1 Bft) S-SW 202 ° 0 min 0,000 mm 0,0 UV-I 0 W/m² -0,2 °C 3,2 km/h (1 Bft)
06.11.2016 21:56 0,7 °C 0,8 °C 94 % 1003,6 hPa 0,0 mm 1,6 km/h (1 Bft) S-SW 202 ° 0 min 0,000 mm 0,0 UV-I 0 W/m² -0,2 °C 3,2 km/h (1 Bft)
06.11.2016 21:57 0,7 °C 0,8 °C 94 % 1003,6 hPa 0,0 mm 1,6 km/h (1 Bft) S-SW 202 ° 0 min 0,000 mm 0,0 UV-I 0 W/m² -0,2 °C 3,2 km/h (1 Bft)
06.11.2016 21:58 0,8 °C 0,8 °C 94 % 1003,7 hPa 0,0 mm 3,2 km/h (1 Bft) S-SW 202 ° 0 min 0,000 mm 0,0 UV-I 0 W/m² -0,1 °C 4,8 km/h (1 Bft)
06.11.2016 21:59 0,7 °C 0,8 °C 94 % 1003,7 hPa 0,0 mm 3,2 km/h (1 Bft) SW 225 ° 0 min 0,000 mm 0,0 UV-I 0 W/m² -0,2 °C 4,8 km/h (1 Bft)
06.11.2016 22:00 0,7 °C 0,8 °C 94 % 1003,7 hPa 0,0 mm 1,6 km/h (1 Bft) SW 225 ° 0 min 0,000 mm 0,0 UV-I 0 W/m² -0,2 °C 3,2 km/h (1 Bft)
06.11.2016 22:01 0,7 °C 0,7 °C 94 % 1003,7 hPa 0,0 mm 1,6 km/h (1 Bft) SW 225 ° 0 min 0,000 mm 0,0 UV-I 0 W/m² -0,2 °C 1,6 km/h (1 Bft)
06.11.2016 22:02 0,7 °C 0,8 °C 94 % 1003,7 hPa 0,0 mm 1,6 km/h (1 Bft) S-SW 202 ° 0 min 0,000 mm 0,0 UV-I 0 W/m² -0,2 °C 3,2 km/h (1 Bft)
06.11.2016 22:03 0,7 °C 0,7 °C 94 % 1003,7 hPa 0,0 mm 3,2 km/h (1 Bft) S-SW 202 ° 0 min 0,000 mm 0,0 UV-I 0 W/m² -0,2 °C 4,8 km/h (1 Bft)
06.11.2016 22:04 0,7 °C 0,8 °C 94 % 1003,7 hPa 0,0 mm 1,6 km/h (1 Bft) S-SW 202 ° 0 min 0,000 mm 0,0 UV-I 0 W/m² -0,2 °C 3,2 km/h (1 Bft)
06.11.2016 22:05 0,7 °C 0,8 °C 94 % 1003,7 hPa 0,0 mm 1,6 km/h (1 Bft) S-SW 202 ° 0 min 0,000 mm 0,0 UV-I 0 W/m² -0,2 °C 3,2 km/h (1 Bft)
06.11.2016 22:06 0,7 °C 0,7 °C 94 % 1003,7 hPa 0,0 mm 3,2 km/h (1 Bft) S-SW 202 ° 0 min 0,000 mm 0,0 UV-I 0 W/m² -0,2 °C 4,8 km/h (1 Bft)
06.11.2016 22:07 0,7 °C 0,7 °C 94 % 1003,7 hPa 0,0 mm 3,2 km/h (1 Bft) S-SW 202 ° 0 min 0,000 mm 0,0 UV-I 0 W/m² -0,2 °C 6,4 km/h (2 Bft)
06.11.2016 22:08 0,7 °C 0,7 °C 94 % 1003,8 hPa 0,0 mm 3,2 km/h (1 Bft) S-SW 202 ° 0 min 0,000 mm 0,0 UV-I 0 W/m² -0,2 °C 6,4 km/h (2 Bft)
06.11.2016 22:09 0,7 °C 0,7 °C 94 % 1003,7 hPa 0,0 mm 3,2 km/h (1 Bft) S-SW 202 ° 0 min 0,000 mm 0,0 UV-I 0 W/m² -0,2 °C 4,8 km/h (1 Bft)
06.11.2016 22:10 0,7 °C 0,7 °C 94 % 1003,8 hPa 0,0 mm 3,2 km/h (1 Bft) S-SW 202 ° 0 min 0,000 mm 0,0 UV-I 0 W/m² -0,2 °C 4,8 km/h (1 Bft)
06.11.2016 22:11 0,7 °C 0,7 °C 94 % 1003,8 hPa 0,0 mm 1,6 km/h (1 Bft) S-SW 202 ° 0 min 0,000 mm 0,0 UV-I 0 W/m² -0,2 °C 3,2 km/h (1 Bft)
06.11.2016 22:12 0,7 °C 0,7 °C 94 % 1003,9 hPa 0,0 mm 3,2 km/h (1 Bft) S-SW 202 ° 0 min 0,000 mm 0,0 UV-I 0 W/m² -0,2 °C 4,8 km/h (1 Bft)
06.11.2016 22:13 0,7 °C 0,7 °C 94 % 1003,8 hPa 0,0 mm 1,6 km/h (1 Bft) S-SW 202 ° 0 min 0,000 mm 0,0 UV-I 0 W/m² -0,2 °C 3,2 km/h (1 Bft)
06.11.2016 22:14 0,7 °C 0,7 °C 94 % 1003,8 hPa 0,0 mm 1,6 km/h (1 Bft) S-SW 202 ° 0 min 0,000 mm 0,0 UV-I 0 W/m² -0,2 °C 3,2 km/h (1 Bft)
06.11.2016 22:15 0,7 °C 0,7 °C 94 % 1003,9 hPa 0,0 mm 3,2 km/h (1 Bft) W-SW 247 ° 0 min 0,000 mm 0,0 UV-I 0 W/m² -0,2 °C 9,7 km/h (2 Bft)
06.11.2016 22:16 0,7 °C 0,7 °C 94 % 1003,9 hPa 0,0 mm 3,2 km/h (1 Bft) S-SW 202 ° 0 min 0,000 mm 0,0 UV-I 0 W/m² -0,2 °C 6,4 km/h (2 Bft)
06.11.2016 22:17 0,7 °C 0,7 °C 94 % 1003,9 hPa 0,0 mm 3,2 km/h (1 Bft) SW 225 ° 0 min 0,000 mm 0,0 UV-I 0 W/m² -0,2 °C 4,8 km/h (1 Bft)
06.11.2016 22:18 0,7 °C 0,7 °C 94 % 1003,9 hPa 0,0 mm 1,6 km/h (1 Bft) SW 225 ° 0 min 0,000 mm 0,0 UV-I 0 W/m² -0,2 °C 3,2 km/h (1 Bft)
06.11.2016 22:19 0,7 °C 0,7 °C 94 % 1004,0 hPa 0,0 mm 4,8 km/h (1 Bft) SW 225 ° 0 min 0,000 mm 0,0 UV-I 0 W/m² -0,2 °C 6,4 km/h (2 Bft)
06.11.2016 22:20 0,7 °C 0,7 °C 94 % 1004,0 hPa 0,0 mm 3,2 km/h (1 Bft) W-SW 247 ° 0 min 0,000 mm 0,0 UV-I 0 W/m² -0,2 °C 4,8 km/h (1 Bft)
06.11.2016 22:21 0,7 °C 0,7 °C 94 % 1004,0 hPa 0,0 mm 1,6 km/h (1 Bft) SW 225 ° 0 min 0,000 mm 0,0 UV-I 0 W/m² -0,2 °C 3,2 km/h (1 Bft)
06.11.2016 22:22 0,7 °C 0,7 °C 94 % 1004,0 hPa 0,0 mm 4,8 km/h (1 Bft) W 270 ° 0 min 0,000 mm 0,0 UV-I 0 W/m² -0,2 °C 6,4 km/h (2 Bft)
06.11.2016 22:23 0,7 °C 0,7 °C 94 % 1003,9 hPa 0,0 mm 3,2 km/h (1 Bft) W-SW 247 ° 0 min 0,000 mm 0,0 UV-I 0 W/m² -0,2 °C 4,8 km/h (1 Bft)
06.11.2016 22:24 0,7 °C 0,7 °C 94 % 1004,0 hPa 0,0 mm 4,8 km/h (1 Bft) W-SW 247 ° 0 min 0,000 mm 0,0 UV-I 0 W/m² -0,2 °C 9,7 km/h (2 Bft)
06.11.2016 22:25 0,7 °C 0,7 °C 94 % 1003,9 hPa 0,0 mm 4,8 km/h (1 Bft) W-SW 247 ° 0 min 0,000 mm 0,0 UV-I 0 W/m² -0,2 °C 6,4 km/h (2 Bft)
06.11.2016 22:26 0,7 °C 0,7 °C 94 % 1003,9 hPa 0,0 mm 3,2 km/h (1 Bft) W-SW 247 ° 0 min 0,000 mm 0,0 UV-I 0 W/m² -0,2 °C 6,4 km/h (2 Bft)
06.11.2016 22:27 0,7 °C 0,7 °C 94 % 1003,9 hPa 0,0 mm 3,2 km/h (1 Bft) W-SW 247 ° 0 min 0,000 mm 0,0 UV-I 0 W/m² -0,2 °C 4,8 km/h (1 Bft)
06.11.2016 22:28 0,7 °C 0,7 °C 94 % 1003,9 hPa 0,0 mm 3,2 km/h (1 Bft) W-SW 247 ° 0 min 0,000 mm 0,0 UV-I 0 W/m² -0,2 °C 4,8 km/h (1 Bft)
06.11.2016 22:29 0,7 °C 0,7 °C 94 % 1003,9 hPa 0,0 mm 1,6 km/h (1 Bft) W-SW 247 ° 0 min 0,000 mm 0,0 UV-I 0 W/m² -0,2 °C 3,2 km/h (1 Bft)
06.11.2016 22:30 0,7 °C 0,7 °C 94 % 1003,9 hPa 0,0 mm 4,8 km/h (1 Bft) W-SW 247 ° 0 min 0,000 mm 0,0 UV-I 0 W/m² -0,2 °C 8,0 km/h (2 Bft)
06.11.2016 22:31 0,7 °C 0,7 °C 94 % 1003,9 hPa 0,0 mm 1,6 km/h (1 Bft) S-SW 202 ° 0 min 0,000 mm 0,0 UV-I 0 W/m² -0,2 °C 3,2 km/h (1 Bft)
06.11.2016 22:32 0,7 °C 0,7 °C 94 % 1003,9 hPa 0,0 mm 4,8 km/h (1 Bft) S-SW 202 ° 0 min 0,000 mm 0,0 UV-I 0 W/m² -0,2 °C 9,7 km/h (2 Bft)
06.11.2016 22:33 0,7 °C 0,7 °C 94 % 1003,9 hPa 0,0 mm 3,2 km/h (1 Bft) S-SW 202 ° 0 min 0,000 mm 0,0 UV-I 0 W/m² -0,2 °C 4,8 km/h (1 Bft)
06.11.2016 22:34 0,7 °C 0,7 °C 94 % 1003,9 hPa 0,0 mm 6,4 km/h (2 Bft) W-SW 247 ° 0 min 0,000 mm 0,0 UV-I 0 W/m² -0,2 °C 11,3 km/h (2 Bft)
06.11.2016 22:35 0,7 °C 0,7 °C 94 % 1003,9 hPa 0,0 mm 3,2 km/h (1 Bft) W-SW 247 ° 0 min 0,000 mm 0,0 UV-I 0 W/m² -0,2 °C 4,8 km/h (1 Bft)
06.11.2016 22:36 0,7 °C 0,7 °C 94 % 1003,9 hPa 0,0 mm 4,8 km/h (1 Bft) W-SW 247 ° 0 min 0,000 mm 0,0 UV-I 0 W/m² -0,2 °C 6,4 km/h (2 Bft)
06.11.2016 22:37 0,7 °C 0,7 °C 94 % 1003,9 hPa 0,0 mm 6,4 km/h (2 Bft) SW 225 ° 0 min 0,000 mm 0,0 UV-I 0 W/m² -0,2 °C 8,0 km/h (2 Bft)
06.11.2016 22:38 0,7 °C 0,7 °C 94 % 1003,9 hPa 0,0 mm 6,4 km/h (2 Bft) SW 225 ° 0 min 0,000 mm 0,0 UV-I 0 W/m² -0,2 °C 12,9 km/h (3 Bft)
06.11.2016 22:39 0,7 °C 0,7 °C 94 % 1003,9 hPa 0,0 mm 4,8 km/h (1 Bft) SW 225 ° 0 min 0,000 mm 0,0 UV-I 0 W/m² -0,2 °C 9,7 km/h (2 Bft)
06.11.2016 22:40 0,7 °C 0,7 °C 94 % 1003,8 hPa 0,0 mm 4,8 km/h (1 Bft) SW 225 ° 0 min 0,000 mm 0,0 UV-I 0 W/m² -0,2 °C 11,3 km/h (2 Bft)
06.11.2016 22:41 0,7 °C 0,7 °C 94 % 1003,8 hPa 0,0 mm 8,0 km/h (2 Bft) W-SW 247 ° 0 min 0,000 mm 0,0 UV-I 0 W/m² -0,2 °C 12,9 km/h (3 Bft)
06.11.2016 22:42 0,7 °C 0,7 °C 94 % 1003,8 hPa 0,0 mm 6,4 km/h (2 Bft) SW 225 ° 0 min 0,000 mm 0,0 UV-I 0 W/m² -0,2 °C 11,3 km/h (2 Bft)
06.11.2016 22:43 0,7 °C 0,7 °C 94 % 1003,8 hPa 0,0 mm 6,4 km/h (2 Bft) SW 225 ° 0 min 0,000 mm 0,0 UV-I 0 W/m² -0,2 °C 9,7 km/h (2 Bft)
06.11.2016 22:44 0,7 °C 0,7 °C 94 % 1003,8 hPa 0,0 mm 4,8 km/h (1 Bft) SW 225 ° 0 min 0,000 mm 0,0 UV-I 0 W/m² -0,2 °C 9,7 km/h (2 Bft)
06.11.2016 22:45 0,7 °C 0,7 °C 94 % 1003,9 hPa 0,0 mm 6,4 km/h (2 Bft) W-SW 247 ° 0 min 0,000 mm 0,0 UV-I 0 W/m² -0,2 °C 9,7 km/h (2 Bft)
06.11.2016 22:46 0,7 °C 0,7 °C 94 % 1003,8 hPa 0,0 mm 8,0 km/h (2 Bft) W-SW 247 ° 0 min 0,000 mm 0,0 UV-I 0 W/m² -0,2 °C 11,3 km/h (2 Bft)
06.11.2016 22:47 0,7 °C 0,7 °C 94 % 1003,8 hPa 0,0 mm 6,4 km/h (2 Bft) W-SW 247 ° 0 min 0,000 mm 0,0 UV-I 0 W/m² -0,2 °C 9,7 km/h (2 Bft)
06.11.2016 22:48 0,7 °C 0,7 °C 94 % 1003,8 hPa 0,0 mm 3,2 km/h (1 Bft) W-SW 247 ° 0 min 0,000 mm 0,0 UV-I 0 W/m² -0,2 °C 6,4 km/h (2 Bft)
06.11.2016 22:49 0,7 °C 0,7 °C 94 % 1003,8 hPa 0,0 mm 6,4 km/h (2 Bft) W-SW 247 ° 0 min 0,000 mm 0,0 UV-I 0 W/m² -0,2 °C 9,7 km/h (2 Bft)
06.11.2016 22:50 0,7 °C 0,7 °C 94 % 1003,8 hPa 0,0 mm 6,4 km/h (2 Bft) SW 225 ° 0 min 0,000 mm 0,0 UV-I 0 W/m² -0,2 °C 8,0 km/h (2 Bft)
06.11.2016 22:51 0,7 °C 0,7 °C 94 % 1003,8 hPa 0,0 mm 6,4 km/h (2 Bft) SW 225 ° 0 min 0,000 mm 0,0 UV-I 0 W/m² -0,2 °C 9,7 km/h (2 Bft)
06.11.2016 22:52 0,7 °C 0,7 °C 94 % 1003,8 hPa 0,0 mm 6,4 km/h (2 Bft) W-SW 247 ° 0 min 0,000 mm 0,0 UV-I 0 W/m² -0,2 °C 9,7 km/h (2 Bft)
06.11.2016 22:53 0,7 °C 0,8 °C 94 % 1003,8 hPa 0,0 mm 8,0 km/h (2 Bft) W-SW 247 ° 0 min 0,000 mm 0,0 UV-I 0 W/m² -0,2 °C 11,3 km/h (2 Bft)
06.11.2016 22:54 0,7 °C 0,7 °C 94 % 1003,8 hPa 0,0 mm 4,8 km/h (1 Bft) SW 225 ° 0 min 0,000 mm 0,0 UV-I 0 W/m² -0,2 °C 9,7 km/h (2 Bft)
06.11.2016 22:55 0,7 °C 0,7 °C 94 % 1003,8 hPa 0,0 mm 4,8 km/h (1 Bft) SW 225 ° 0 min 0,000 mm 0,0 UV-I 0 W/m² -0,2 °C 11,3 km/h (2 Bft)
06.11.2016 22:56 0,7 °C 0,7 °C 94 % 1003,8 hPa 0,0 mm 8,0 km/h (2 Bft) W-SW 247 ° 0 min 0,000 mm 0,0 UV-I 0 W/m² -0,2 °C 11,3 km/h (2 Bft)
06.11.2016 22:57 0,7 °C 0,7 °C 94 % 1003,8 hPa 0,0 mm 6,4 km/h (2 Bft) S 180 ° 0 min 0,000 mm 0,0 UV-I 0 W/m² -0,2 °C 12,9 km/h (3 Bft)
06.11.2016 22:58 0,7 °C 0,7 °C 94 % 1003,8 hPa 0,0 mm 8,0 km/h (2 Bft) W 270 ° 0 min 0,000 mm 0,0 UV-I 0 W/m² -0,2 °C 12,9 km/h (3 Bft)
06.11.2016 22:59 0,7 °C 0,7 °C 94 % 1003,8 hPa 0,0 mm 6,4 km/h (2 Bft) W-SW 247 ° 0 min 0,000 mm 0,0 UV-I 0 W/m² -0,2 °C 9,7 km/h (2 Bft)
06.11.2016 23:00 0,7 °C 0,7 °C 94 % 1003,8 hPa 0,0 mm 6,4 km/h (2 Bft) W-SW 247 ° 0 min 0,000 mm 0,0 UV-I 0 W/m² -0,2 °C 11,3 km/h (2 Bft)
06.11.2016 23:01 0,7 °C 0,7 °C 94 % 1003,8 hPa 0,0 mm 6,4 km/h (2 Bft) W-SW 247 ° 0 min 0,000 mm 0,0 UV-I 0 W/m² -0,2 °C 11,3 km/h (2 Bft)
06.11.2016 23:02 0,7 °C 0,7 °C 94 % 1003,8 hPa 0,0 mm 4,8 km/h (1 Bft) W-SW 247 ° 0 min 0,000 mm 0,0 UV-I 0 W/m² -0,2 °C 8,0 km/h (2 Bft)
06.11.2016 23:03 0,7 °C 0,7 °C 94 % 1003,9 hPa 0,0 mm 6,4 km/h (2 Bft) SW 225 ° 0 min 0,000 mm 0,0 UV-I 0 W/m² -0,2 °C 11,3 km/h (2 Bft)
06.11.2016 23:04 0,7 °C 0,7 °C 94 % 1003,9 hPa 0,0 mm 4,8 km/h (1 Bft) W-SW 247 ° 0 min 0,000 mm 0,0 UV-I 0 W/m² -0,2 °C 6,4 km/h (2 Bft)
06.11.2016 23:05 0,7 °C 0,8 °C 94 % 1003,9 hPa 0,0 mm 6,4 km/h (2 Bft) W-SW 247 ° 0 min 0,000 mm 0,0 UV-I 0 W/m² -0,2 °C 9,7 km/h (2 Bft)
06.11.2016 23:06 0,7 °C 0,7 °C 94 % 1003,9 hPa 0,0 mm 4,8 km/h (1 Bft) W-SW 247 ° 0 min 0,000 mm 0,0 UV-I 0 W/m² -0,2 °C 11,3 km/h (2 Bft)
06.11.2016 23:07 0,7 °C 0,7 °C 94 % 1003,9 hPa 0,0 mm 6,4 km/h (2 Bft) W-SW 247 ° 0 min 0,000 mm 0,0 UV-I 0 W/m² -0,2 °C 9,7 km/h (2 Bft)
06.11.2016 23:08 0,7 °C 0,7 °C 94 % 1003,9 hPa 0,0 mm 4,8 km/h (1 Bft) W-SW 247 ° 0 min 0,000 mm 0,0 UV-I 0 W/m² -0,2 °C 9,7 km/h (2 Bft)
06.11.2016 23:09 0,7 °C 0,7 °C 94 % 1004,0 hPa 0,0 mm 6,4 km/h (2 Bft) W-SW 247 ° 0 min 0,000 mm 0,0 UV-I 0 W/m² -0,2 °C 11,3 km/h (2 Bft)
06.11.2016 23:10 0,7 °C 0,7 °C 94 % 1004,0 hPa 0,0 mm 4,8 km/h (1 Bft) SW 225 ° 0 min 0,000 mm 0,0 UV-I 0 W/m² -0,2 °C 6,4 km/h (2 Bft)
06.11.2016 23:11 0,7 °C 0,7 °C 94 % 1004,0 hPa 0,0 mm 3,2 km/h (1 Bft) S-SO 157 ° 0 min 0,000 mm 0,0 UV-I 0 W/m² -0,2 °C 6,4 km/h (2 Bft)
06.11.2016 23:12 0,7 °C 0,7 °C 94 % 1004,1 hPa 0,0 mm 3,2 km/h (1 Bft) W-SW 247 ° 0 min 0,000 mm 0,0 UV-I 0 W/m² -0,2 °C 4,8 km/h (1 Bft)
06.11.2016 23:13 0,7 °C 0,7 °C 94 % 1004,0 hPa 0,0 mm 3,2 km/h (1 Bft) W-SW 247 ° 0 min 0,000 mm 0,0 UV-I 0 W/m² -0,2 °C 4,8 km/h (1 Bft)
06.11.2016 23:14 0,7 °C 0,7 °C 94 % 1004,1 hPa 0,0 mm 6,4 km/h (2 Bft) W-SW 247 ° 0 min 0,000 mm 0,0 UV-I 0 W/m² -0,2 °C 11,3 km/h (2 Bft)
06.11.2016 23:15 0,7 °C 0,7 °C 94 % 1004,1 hPa 0,0 mm 6,4 km/h (2 Bft) W-SW 247 ° 0 min 0,000 mm 0,0 UV-I 0 W/m² -0,2 °C 8,0 km/h (2 Bft)
06.11.2016 23:16 0,7 °C 0,7 °C 94 % 1004,1 hPa 0,0 mm 4,8 km/h (1 Bft) W 270 ° 0 min 0,000 mm 0,0 UV-I 0 W/m² -0,2 °C 8,0 km/h (2 Bft)
06.11.2016 23:17 0,7 °C 0,7 °C 94 % 1004,1 hPa 0,0 mm 6,4 km/h (2 Bft) W-SW 247 ° 0 min 0,000 mm 0,0 UV-I 0 W/m² -0,2 °C 9,7 km/h (2 Bft)
06.11.2016 23:18 0,7 °C 0,7 °C 94 % 1004,1 hPa 0,0 mm 3,2 km/h (1 Bft) W-SW 247 ° 0 min 0,000 mm 0,0 UV-I 0 W/m² -0,2 °C 6,4 km/h (2 Bft)
06.11.2016 23:19 0,7 °C 0,7 °C 94 % 1004,2 hPa 0,0 mm 6,4 km/h (2 Bft) W-SW 247 ° 0 min 0,000 mm 0,0 UV-I 0 W/m² -0,2 °C 11,3 km/h (2 Bft)
06.11.2016 23:20 0,7 °C 0,7 °C 94 % 1004,2 hPa 0,0 mm 6,4 km/h (2 Bft) W-SW 247 ° 0 min 0,000 mm 0,0 UV-I 0 W/m² -0,2 °C 11,3 km/h (2 Bft)
06.11.2016 23:21 0,7 °C 0,7 °C 94 % 1004,2 hPa 0,0 mm 6,4 km/h (2 Bft) SW 225 ° 0 min 0,000 mm 0,0 UV-I 0 W/m² -0,2 °C 11,3 km/h (2 Bft)
06.11.2016 23:22 0,7 °C 0,7 °C 94 % 1004,2 hPa 0,0 mm 8,0 km/h (2 Bft) W-SW 247 ° 0 min 0,000 mm 0,0 UV-I 0 W/m² -0,2 °C 12,9 km/h (3 Bft)
06.11.2016 23:23 0,7 °C 0,7 °C 94 % 1004,2 hPa 0,0 mm 6,4 km/h (2 Bft) W-NW 292 ° 0 min 0,000 mm 0,0 UV-I 0 W/m² -0,2 °C 9,7 km/h (2 Bft)
06.11.2016 23:24 0,7 °C 0,7 °C 94 % 1004,2 hPa 0,0 mm 9,7 km/h (2 Bft) W-SW 247 ° 0 min 0,000 mm 0,0 UV-I 0 W/m² -0,2 °C 14,5 km/h (3 Bft)
06.11.2016 23:25 0,7 °C 0,7 °C 94 % 1004,3 hPa 0,0 mm 12,9 km/h (3 Bft) W-SW 247 ° 0 min 0,000 mm 0,0 UV-I 0 W/m² -0,2 °C 16,1 km/h (3 Bft)
06.11.2016 23:26 0,7 °C 0,7 °C 94 % 1004,2 hPa 0,0 mm 9,7 km/h (2 Bft) W-SW 247 ° 0 min 0,000 mm 0,0 UV-I 0 W/m² -0,2 °C 16,1 km/h (3 Bft)
06.11.2016 23:27 0,7 °C 0,7 °C 94 % 1004,3 hPa 0,0 mm 8,0 km/h (2 Bft) W 270 ° 0 min 0,000 mm 0,0 UV-I 0 W/m² -0,2 °C 12,9 km/h (3 Bft)
06.11.2016 23:28 0,7 °C 0,7 °C 94 % 1004,3 hPa 0,0 mm 9,7 km/h (2 Bft) W-SW 247 ° 0 min 0,000 mm 0,0 UV-I 0 W/m² -0,2 °C 14,5 km/h (3 Bft)
06.11.2016 23:29 0,7 °C 0,7 °C 94 % 1004,3 hPa 0,0 mm 9,7 km/h (2 Bft) W 270 ° 0 min 0,000 mm 0,0 UV-I 0 W/m² -0,2 °C 14,5 km/h (3 Bft)
06.11.2016 23:30 0,7 °C 0,7 °C 94 % 1004,4 hPa 0,0 mm 9,7 km/h (2 Bft) W 270 ° 0 min 0,000 mm 0,0 UV-I 0 W/m² -0,2 °C 14,5 km/h (3 Bft)
06.11.2016 23:31 0,7 °C 0,7 °C 94 % 1004,3 hPa 0,0 mm 6,4 km/h (2 Bft) W-SW 247 ° 0 min 0,000 mm 0,0 UV-I 0 W/m² -0,2 °C 11,3 km/h (2 Bft)
06.11.2016 23:32 0,7 °C 0,7 °C 94 % 1004,3 hPa 0,0 mm 4,8 km/h (1 Bft) W 270 ° 0 min 0,000 mm 0,0 UV-I 0 W/m² -0,2 °C 8,0 km/h (2 Bft)
06.11.2016 23:33 0,7 °C 0,7 °C 94 % 1004,4 hPa 0,0 mm 4,8 km/h (1 Bft) W-SW 247 ° 0 min 0,000 mm 0,0 UV-I 0 W/m² -0,2 °C 6,4 km/h (2 Bft)
06.11.2016 23:34 0,7 °C 0,7 °C 94 % 1004,3 hPa 0,0 mm 3,2 km/h (1 Bft) SW 225 ° 0 min 0,000 mm 0,0 UV-I 0 W/m² -0,2 °C 4,8 km/h (1 Bft)
06.11.2016 23:35 0,7 °C 0,7 °C 94 % 1004,4 hPa 0,0 mm 4,8 km/h (1 Bft) W-SW 247 ° 0 min 0,000 mm 0,0 UV-I 0 W/m² -0,2 °C 6,4 km/h (2 Bft)
06.11.2016 23:36 0,6 °C 0,7 °C 94 % 1004,4 hPa 0,0 mm 3,2 km/h (1 Bft) W-SW 247 ° 0 min 0,000 mm 0,0 UV-I 0 W/m² -0,3 °C 6,4 km/h (2 Bft)
06.11.2016 23:37 0,6 °C 0,6 °C 94 % 1004,4 hPa 0,0 mm 3,2 km/h (1 Bft) W-SW 247 ° 0 min 0,000 mm 0,0 UV-I 0 W/m² -0,3 °C 4,8 km/h (1 Bft)
06.11.2016 23:38 0,6 °C 0,6 °C 94 % 1004,4 hPa 0,0 mm 3,2 km/h (1 Bft) W-SW 247 ° 0 min 0,000 mm 0,0 UV-I 0 W/m² -0,3 °C 4,8 km/h (1 Bft)
06.11.2016 23:39 0,6 °C 0,7 °C 94 % 1004,4 hPa 0,0 mm 4,8 km/h (1 Bft) W-SW 247 ° 0 min 0,000 mm 0,0 UV-I 0 W/m² -0,3 °C 8,0 km/h (2 Bft)
06.11.2016 23:40 0,6 °C 0,6 °C 94 % 1004,4 hPa 0,0 mm 4,8 km/h (1 Bft) W-SW 247 ° 0 min 0,000 mm 0,0 UV-I 0 W/m² -0,3 °C 4,8 km/h (1 Bft)
06.11.2016 23:41 0,6 °C 0,6 °C 94 % 1004,3 hPa 0,0 mm 1,6 km/h (1 Bft) S-SW 202 ° 0 min 0,000 mm 0,0 UV-I 0 W/m² -0,3 °C 3,2 km/h (1 Bft)
06.11.2016 23:42 0,6 °C 0,6 °C 94 % 1004,4 hPa 0,0 mm 3,2 km/h (1 Bft) W-SW 247 ° 0 min 0,000 mm 0,0 UV-I 0 W/m² -0,3 °C 4,8 km/h (1 Bft)
06.11.2016 23:43 0,6 °C 0,6 °C 94 % 1004,4 hPa 0,0 mm 1,6 km/h (1 Bft) S 180 ° 0 min 0,000 mm 0,0 UV-I 0 W/m² -0,3 °C 3,2 km/h (1 Bft)
06.11.2016 23:44 0,6 °C 0,6 °C 94 % 1004,4 hPa 0,2 mm 1,6 km/h (1 Bft) SW 225 ° 0 min 0,000 mm 0,0 UV-I 0 W/m² -0,3 °C 4,8 km/h (1 Bft)
06.11.2016 23:45 0,6 °C 0,7 °C 94 % 1004,4 hPa 0,0 mm 3,2 km/h (1 Bft) SW 225 ° 0 min 0,000 mm 0,0 UV-I 0 W/m² -0,3 °C 6,4 km/h (2 Bft)
06.11.2016 23:46 0,6 °C 0,6 °C 94 % 1004,4 hPa 0,0 mm 3,2 km/h (1 Bft) S 180 ° 0 min 0,000 mm 0,0 UV-I 0 W/m² -0,3 °C 4,8 km/h (1 Bft)
06.11.2016 23:47 0,6 °C 0,6 °C 94 % 1004,4 hPa 0,0 mm 4,8 km/h (1 Bft) S-SW 202 ° 0 min 0,000 mm 0,0 UV-I 0 W/m² -0,3 °C 6,4 km/h (2 Bft)
06.11.2016 23:48 0,6 °C 0,6 °C 94 % 1004,3 hPa 0,0 mm 3,2 km/h (1 Bft) SW 225 ° 0 min 0,000 mm 0,0 UV-I 0 W/m² -0,3 °C 4,8 km/h (1 Bft)
06.11.2016 23:49 0,6 °C 0,6 °C 94 % 1004,4 hPa 0,0 mm 1,6 km/h (1 Bft) S-SW 202 ° 0 min 0,000 mm 0,0 UV-I 0 W/m² -0,3 °C 3,2 km/h (1 Bft)
06.11.2016 23:50 0,6 °C 0,6 °C 94 % 1004,3 hPa 0,0 mm 1,6 km/h (1 Bft) S-SW 202 ° 0 min 0,000 mm 0,0 UV-I 0 W/m² -0,3 °C 3,2 km/h (1 Bft)
06.11.2016 23:51 0,6 °C 0,6 °C 94 % 1004,3 hPa 0,0 mm 1,6 km/h (1 Bft) S-SW 202 ° 0 min 0,000 mm 0,0 UV-I 0 W/m² -0,3 °C 4,8 km/h (1 Bft)
06.11.2016 23:52 0,6 °C 0,6 °C 94 % 1004,3 hPa 0,0 mm 3,2 km/h (1 Bft) S-SW 202 ° 0 min 0,000 mm 0,0 UV-I 0 W/m² -0,3 °C 4,8 km/h (1 Bft)
06.11.2016 23:53 0,6 °C 0,6 °C 94 % 1004,4 hPa 0,0 mm 3,2 km/h (1 Bft) SW 225 ° 0 min 0,000 mm 0,0 UV-I 0 W/m² -0,3 °C 4,8 km/h (1 Bft)
06.11.2016 23:54 0,6 °C 0,6 °C 94 % 1004,4 hPa 0,0 mm 3,2 km/h (1 Bft) S-SW 202 ° 0 min 0,000 mm 0,0 UV-I 0 W/m² -0,3 °C 3,2 km/h (1 Bft)
06.11.2016 23:55 0,6 °C 0,6 °C 94 % 1004,4 hPa 0,0 mm 1,6 km/h (1 Bft) S-SW 202 ° 0 min 0,000 mm 0,0 UV-I 0 W/m² -0,3 °C 4,8 km/h (1 Bft)
06.11.2016 23:56 0,6 °C 0,6 °C 94 % 1004,4 hPa 0,0 mm 1,6 km/h (1 Bft) S-SW 202 ° 0 min 0,000 mm 0,0 UV-I 0 W/m² -0,3 °C 3,2 km/h (1 Bft)
06.11.2016 23:57 0,6 °C 0,6 °C 94 % 1004,4 hPa 0,0 mm 0,0 km/h (0 Bft) S-SW 202 ° 0 min 0,000 mm 0,0 UV-I 0 W/m² -0,3 °C 1,6 km/h (1 Bft)
06.11.2016 23:58 0,6 °C 0,6 °C 94 % 1004,4 hPa 0,0 mm 0,0 km/h (0 Bft) S-SW 202 ° 0 min 0,000 mm 0,0 UV-I 0 W/m² -0,3 °C 1,6 km/h (1 Bft)
06.11.2016 23:59 0,6 °C 0,6 °C 94 % 1004,4 hPa 0,0 mm 0,0 km/h (0 Bft) S-SW 202 ° 0 min 0,000 mm 0,0 UV-I 0 W/m² -0,3 °C 1,6 km/h (1 Bft)
_ Min-Zeit 18:24 18:14 09:02 06:04 - 23:59 - - - - - - 18:07 19:47
Minimum _ 0,4 °C 0,4 °C 91 % 998,7 hPa - 0,0 km/h (0 Bft) - - - - - - -0,5 °C 0,0 km/h (0 Bft)
_ Max-Zeit 00:15 00:17 20:46 23:59 23:44 23:25 - - 23:59 23:59 23:59 13:25 00:15 23:26
Maximum _ 6,8 °C 6,8 °C 95 % 1004,4 hPa 0,2 mm 12,9 km/h
W-SW (3 Bft)
- - 0 min 0,000 mm 0,0 UV-I 35 W/m² 5,7 °C 16,1 km/h
W-SW (3 Bft)
Durchschnitt _ 2,3 °C 2,3 °C 94 % 1001,3 hPa #15,8 mm 1,8 km/h (1 Bft) W-SW - #0 min. #0,000 mm 0,0 UV-I 5 W/m² 1,4 °C 3,2 km/h (1 Bft)